<?xml version="1.0" encoding="UTF-8" standalone="no" ?>
<gpx xmlns="http://www.topografix.com/GPX/1/1" xmlns:xsi="http://www.w3.org/2001/XMLSchema-instance" xsi:schemaLocation="http://www.topografix.com/GPX/1/1 http://www.topografix.com/GPX/1/1/gpx.xsd" version="1.1" creator="VisuGPX - https://www.visugpx.com">
  <metadata>
    <name>Boucle Sainte-Honorine-La-Guillaume n°3</name>
  </metadata>
  <trk>
    <name><![CDATA[Boucle Sainte-Honorine-La-Guillaume n°3]]></name>
    <extensions>
      <line xmlns="http://www.topografix.com/GPX/gpx_style/0/2">
        <color>0000FF</color>
        <width>4</width>
          <extensions>
            <sens>1</sens>
          </extensions>
      </line>
    </extensions>
    <trkseg>
      <trkpt lat="48.77871" lon="-0.37637">
        <ele>204</ele>
        <time>2025-04-26T07:15:20.000Z</time>
      </trkpt>
      <trkpt lat="48.77871" lon="-0.37637">
        <ele>204</ele>
        <time>2025-04-26T07:15:20.000Z</time>
      </trkpt>
      <trkpt lat="48.77875" lon="-0.37643">
        <ele>203.9</ele>
        <time>2025-04-26T07:15:24.085Z</time>
      </trkpt>
      <trkpt lat="48.77881" lon="-0.37652">
        <ele>203.7</ele>
        <time>2025-04-26T07:15:30.088Z</time>
      </trkpt>
      <trkpt lat="48.77887" lon="-0.37662">
        <ele>203.2</ele>
        <time>2025-04-26T07:15:36.091Z</time>
      </trkpt>
      <trkpt lat="48.77893" lon="-0.37671">
        <ele>203</ele>
        <time>2025-04-26T07:15:42.094Z</time>
      </trkpt>
      <trkpt lat="48.77899" lon="-0.3768">
        <ele>202.9</ele>
        <time>2025-04-26T07:15:48.097Z</time>
      </trkpt>
      <trkpt lat="48.77904" lon="-0.37688">
        <ele>202.8</ele>
        <time>2025-04-26T07:15:53.163Z</time>
      </trkpt>
      <trkpt lat="48.7791" lon="-0.37696">
        <ele>202.7</ele>
        <time>2025-04-26T07:15:58.229Z</time>
      </trkpt>
      <trkpt lat="48.77915" lon="-0.37703">
        <ele>202.3</ele>
        <time>2025-04-26T07:16:03.296Z</time>
      </trkpt>
      <trkpt lat="48.7792" lon="-0.37711">
        <ele>201.9</ele>
        <time>2025-04-26T07:16:08.363Z</time>
      </trkpt>
      <trkpt lat="48.77926" lon="-0.37721">
        <ele>201.5</ele>
        <time>2025-04-26T07:16:14.508Z</time>
      </trkpt>
      <trkpt lat="48.77932" lon="-0.3773">
        <ele>201.3</ele>
        <time>2025-04-26T07:16:20.654Z</time>
      </trkpt>
      <trkpt lat="48.77938" lon="-0.3774">
        <ele>201.1</ele>
        <time>2025-04-26T07:16:26.800Z</time>
      </trkpt>
      <trkpt lat="48.77944" lon="-0.37749">
        <ele>201</ele>
        <time>2025-04-26T07:16:32.946Z</time>
      </trkpt>
      <trkpt lat="48.77947" lon="-0.37754">
        <ele>200.7</ele>
        <time>2025-04-26T07:16:36.050Z</time>
      </trkpt>
      <trkpt lat="48.77951" lon="-0.37759">
        <ele>200.3</ele>
        <time>2025-04-26T07:16:39.155Z</time>
      </trkpt>
      <trkpt lat="48.77954" lon="-0.37764">
        <ele>200</ele>
        <time>2025-04-26T07:16:42.260Z</time>
      </trkpt>
      <trkpt lat="48.77957" lon="-0.37769">
        <ele>199.7</ele>
        <time>2025-04-26T07:16:45.365Z</time>
      </trkpt>
      <trkpt lat="48.77961" lon="-0.37774">
        <ele>199.5</ele>
        <time>2025-04-26T07:16:49.108Z</time>
      </trkpt>
      <trkpt lat="48.77964" lon="-0.3778">
        <ele>199.3</ele>
        <time>2025-04-26T07:16:52.851Z</time>
      </trkpt>
      <trkpt lat="48.77968" lon="-0.37785">
        <ele>199.4</ele>
        <time>2025-04-26T07:16:56.595Z</time>
      </trkpt>
      <trkpt lat="48.77971" lon="-0.3779">
        <ele>199.5</ele>
        <time>2025-04-26T07:17:00.339Z</time>
      </trkpt>
      <trkpt lat="48.77975" lon="-0.37795">
        <ele>199.5</ele>
        <time>2025-04-26T07:17:04.083Z</time>
      </trkpt>
      <trkpt lat="48.77978" lon="-0.37801">
        <ele>199.6</ele>
        <time>2025-04-26T07:17:07.827Z</time>
      </trkpt>
      <trkpt lat="48.77982" lon="-0.37806">
        <ele>199.7</ele>
        <time>2025-04-26T07:17:11.571Z</time>
      </trkpt>
      <trkpt lat="48.77985" lon="-0.37811">
        <ele>199.6</ele>
        <time>2025-04-26T07:17:15.315Z</time>
      </trkpt>
      <trkpt lat="48.7799" lon="-0.37818">
        <ele>199.7</ele>
        <time>2025-04-26T07:17:20.719Z</time>
      </trkpt>
      <trkpt lat="48.77994" lon="-0.37826">
        <ele>199.8</ele>
        <time>2025-04-26T07:17:26.123Z</time>
      </trkpt>
      <trkpt lat="48.77999" lon="-0.37833">
        <ele>200</ele>
        <time>2025-04-26T07:17:31.527Z</time>
      </trkpt>
      <trkpt lat="48.78003" lon="-0.3784">
        <ele>200.2</ele>
        <time>2025-04-26T07:17:36.931Z</time>
      </trkpt>
      <trkpt lat="48.78009" lon="-0.37849">
        <ele>200.6</ele>
        <time>2025-04-26T07:17:44.449Z</time>
      </trkpt>
      <trkpt lat="48.78015" lon="-0.37858">
        <ele>200.9</ele>
        <time>2025-04-26T07:17:51.238Z</time>
      </trkpt>
      <trkpt lat="48.7802" lon="-0.37866">
        <ele>201.2</ele>
        <time>2025-04-26T07:17:58.028Z</time>
      </trkpt>
      <trkpt lat="48.78026" lon="-0.37875">
        <ele>201.5</ele>
        <time>2025-04-26T07:18:04.480Z</time>
      </trkpt>
      <trkpt lat="48.78031" lon="-0.37883">
        <ele>201.7</ele>
        <time>2025-04-26T07:18:10.932Z</time>
      </trkpt>
      <trkpt lat="48.78037" lon="-0.37892">
        <ele>201.8</ele>
        <time>2025-04-26T07:18:17.384Z</time>
      </trkpt>
      <trkpt lat="48.78042" lon="-0.379">
        <ele>201.9</ele>
        <time>2025-04-26T07:18:23.837Z</time>
      </trkpt>
      <trkpt lat="48.78047" lon="-0.37907">
        <ele>202</ele>
        <time>2025-04-26T07:18:29.709Z</time>
      </trkpt>
      <trkpt lat="48.78052" lon="-0.37915">
        <ele>202</ele>
        <time>2025-04-26T07:18:35.582Z</time>
      </trkpt>
      <trkpt lat="48.78057" lon="-0.37922">
        <ele>202.4</ele>
        <time>2025-04-26T07:18:41.455Z</time>
      </trkpt>
      <trkpt lat="48.78062" lon="-0.37929">
        <ele>202.8</ele>
        <time>2025-04-26T07:18:47.328Z</time>
      </trkpt>
      <trkpt lat="48.78066" lon="-0.37935">
        <ele>203.1</ele>
        <time>2025-04-26T07:18:51.568Z</time>
      </trkpt>
      <trkpt lat="48.78069" lon="-0.3794">
        <ele>203.3</ele>
        <time>2025-04-26T07:18:55.809Z</time>
      </trkpt>
      <trkpt lat="48.78073" lon="-0.37946">
        <ele>203.4</ele>
        <time>2025-04-26T07:19:00.050Z</time>
      </trkpt>
      <trkpt lat="48.78076" lon="-0.37951">
        <ele>203.4</ele>
        <time>2025-04-26T07:19:04.291Z</time>
      </trkpt>
      <trkpt lat="48.78082" lon="-0.3796">
        <ele>203.6</ele>
        <time>2025-04-26T07:19:12.102Z</time>
      </trkpt>
      <trkpt lat="48.78089" lon="-0.3797">
        <ele>204.3</ele>
        <time>2025-04-26T07:19:19.914Z</time>
      </trkpt>
      <trkpt lat="48.78095" lon="-0.37979">
        <ele>204.9</ele>
        <time>2025-04-26T07:19:27.726Z</time>
      </trkpt>
      <trkpt lat="48.78101" lon="-0.37988">
        <ele>205.1</ele>
        <time>2025-04-26T07:19:35.538Z</time>
      </trkpt>
      <trkpt lat="48.78106" lon="-0.37995">
        <ele>205.1</ele>
        <time>2025-04-26T07:19:40.828Z</time>
      </trkpt>
      <trkpt lat="48.7811" lon="-0.38002">
        <ele>205.1</ele>
        <time>2025-04-26T07:19:46.118Z</time>
      </trkpt>
      <trkpt lat="48.78115" lon="-0.38008">
        <ele>205.4</ele>
        <time>2025-04-26T07:19:51.408Z</time>
      </trkpt>
      <trkpt lat="48.78119" lon="-0.38015">
        <ele>205.8</ele>
        <time>2025-04-26T07:19:56.698Z</time>
      </trkpt>
      <trkpt lat="48.78123" lon="-0.38022">
        <ele>206.2</ele>
        <time>2025-04-26T07:20:01.912Z</time>
      </trkpt>
      <trkpt lat="48.78127" lon="-0.38028">
        <ele>206.6</ele>
        <time>2025-04-26T07:20:07.126Z</time>
      </trkpt>
      <trkpt lat="48.78131" lon="-0.38035">
        <ele>206.8</ele>
        <time>2025-04-26T07:20:12.340Z</time>
      </trkpt>
      <trkpt lat="48.78135" lon="-0.38041">
        <ele>206.9</ele>
        <time>2025-04-26T07:20:17.554Z</time>
      </trkpt>
      <trkpt lat="48.78141" lon="-0.3805">
        <ele>207.1</ele>
        <time>2025-04-26T07:20:24.652Z</time>
      </trkpt>
      <trkpt lat="48.78147" lon="-0.38059">
        <ele>207.4</ele>
        <time>2025-04-26T07:20:31.750Z</time>
      </trkpt>
      <trkpt lat="48.78146" lon="-0.38061">
        <ele>207.4</ele>
        <time>2025-04-26T07:20:33.018Z</time>
        <extensions>
          <visugpx:TrkExtension xmlns:visugpx="https://www.visugpx.com/editgpx/">
            <visugpx:node>1</visugpx:node>
            </visugpx:TrkExtension>
        </extensions>
      </trkpt>
      <trkpt lat="48.78144" lon="-0.38067">
        <ele>207.5</ele>
        <time>2025-04-26T07:20:36.663Z</time>
      </trkpt>
      <trkpt lat="48.78142" lon="-0.38079">
        <ele>207.9</ele>
        <time>2025-04-26T07:20:43.970Z</time>
      </trkpt>
      <trkpt lat="48.78141" lon="-0.38087">
        <ele>208.1</ele>
        <time>2025-04-26T07:20:48.738Z</time>
      </trkpt>
      <trkpt lat="48.7814" lon="-0.38095">
        <ele>208.4</ele>
        <time>2025-04-26T07:20:53.507Z</time>
      </trkpt>
      <trkpt lat="48.7814" lon="-0.38107">
        <ele>208.8</ele>
        <time>2025-04-26T07:21:00.379Z</time>
      </trkpt>
      <trkpt lat="48.7814" lon="-0.38118">
        <ele>209.2</ele>
        <time>2025-04-26T07:21:07.252Z</time>
      </trkpt>
      <trkpt lat="48.78139" lon="-0.3813">
        <ele>209.7</ele>
        <time>2025-04-26T07:21:14.722Z</time>
      </trkpt>
      <trkpt lat="48.78139" lon="-0.38137">
        <ele>209.9</ele>
        <time>2025-04-26T07:21:19.067Z</time>
      </trkpt>
      <trkpt lat="48.78138" lon="-0.38145">
        <ele>210.2</ele>
        <time>2025-04-26T07:21:23.412Z</time>
      </trkpt>
      <trkpt lat="48.78138" lon="-0.38152">
        <ele>210.5</ele>
        <time>2025-04-26T07:21:27.758Z</time>
      </trkpt>
      <trkpt lat="48.78137" lon="-0.38159">
        <ele>210.7</ele>
        <time>2025-04-26T07:21:32.105Z</time>
      </trkpt>
      <trkpt lat="48.78137" lon="-0.38169">
        <ele>211.1</ele>
        <time>2025-04-26T07:21:37.855Z</time>
      </trkpt>
      <trkpt lat="48.78136" lon="-0.38178">
        <ele>211.4</ele>
        <time>2025-04-26T07:21:43.607Z</time>
      </trkpt>
      <trkpt lat="48.78136" lon="-0.38188">
        <ele>211.8</ele>
        <time>2025-04-26T07:21:49.357Z</time>
      </trkpt>
      <trkpt lat="48.78135" lon="-0.38197">
        <ele>212.1</ele>
        <time>2025-04-26T07:21:55.108Z</time>
      </trkpt>
      <trkpt lat="48.78134" lon="-0.3821">
        <ele>212.6</ele>
        <time>2025-04-26T07:22:03.065Z</time>
      </trkpt>
      <trkpt lat="48.78133" lon="-0.38222">
        <ele>213</ele>
        <time>2025-04-26T07:22:10.232Z</time>
      </trkpt>
      <trkpt lat="48.78132" lon="-0.38229">
        <ele>213.1</ele>
        <time>2025-04-26T07:22:14.197Z</time>
      </trkpt>
      <trkpt lat="48.7813" lon="-0.38236">
        <ele>213.2</ele>
        <time>2025-04-26T07:22:18.163Z</time>
      </trkpt>
      <trkpt lat="48.78129" lon="-0.38246">
        <ele>213.3</ele>
        <time>2025-04-26T07:22:23.848Z</time>
      </trkpt>
      <trkpt lat="48.78127" lon="-0.38256">
        <ele>213.6</ele>
        <time>2025-04-26T07:22:29.534Z</time>
      </trkpt>
      <trkpt lat="48.78125" lon="-0.38268">
        <ele>214.2</ele>
        <time>2025-04-26T07:22:37.400Z</time>
      </trkpt>
      <trkpt lat="48.78122" lon="-0.3828">
        <ele>214.7</ele>
        <time>2025-04-26T07:22:45.267Z</time>
      </trkpt>
      <trkpt lat="48.7812" lon="-0.38291">
        <ele>215.1</ele>
        <time>2025-04-26T07:22:52.616Z</time>
      </trkpt>
      <trkpt lat="48.78118" lon="-0.38302">
        <ele>215.6</ele>
        <time>2025-04-26T07:22:59.965Z</time>
      </trkpt>
      <trkpt lat="48.78116" lon="-0.38312">
        <ele>216.3</ele>
        <time>2025-04-26T07:23:07.314Z</time>
      </trkpt>
      <trkpt lat="48.78114" lon="-0.38323">
        <ele>217.1</ele>
        <time>2025-04-26T07:23:14.665Z</time>
      </trkpt>
      <trkpt lat="48.78112" lon="-0.38336">
        <ele>218.1</ele>
        <time>2025-04-26T07:23:23.482Z</time>
      </trkpt>
      <trkpt lat="48.78109" lon="-0.38349">
        <ele>218.5</ele>
        <time>2025-04-26T07:23:32.300Z</time>
      </trkpt>
      <trkpt lat="48.78107" lon="-0.3836">
        <ele>218.8</ele>
        <time>2025-04-26T07:23:39.085Z</time>
      </trkpt>
      <trkpt lat="48.78105" lon="-0.38371">
        <ele>219.2</ele>
        <time>2025-04-26T07:23:45.870Z</time>
      </trkpt>
      <trkpt lat="48.78103" lon="-0.38381">
        <ele>219.6</ele>
        <time>2025-04-26T07:23:52.655Z</time>
      </trkpt>
      <trkpt lat="48.78101" lon="-0.38392">
        <ele>220.2</ele>
        <time>2025-04-26T07:23:59.441Z</time>
      </trkpt>
      <trkpt lat="48.781" lon="-0.384">
        <ele>220.6</ele>
        <time>2025-04-26T07:24:04.757Z</time>
      </trkpt>
      <trkpt lat="48.78098" lon="-0.38408">
        <ele>221</ele>
        <time>2025-04-26T07:24:10.074Z</time>
      </trkpt>
      <trkpt lat="48.78095" lon="-0.38418">
        <ele>221.7</ele>
        <time>2025-04-26T07:24:17.691Z</time>
      </trkpt>
      <trkpt lat="48.78093" lon="-0.3843">
        <ele>222.6</ele>
        <time>2025-04-26T07:24:26.692Z</time>
      </trkpt>
      <trkpt lat="48.78092" lon="-0.3844">
        <ele>223.4</ele>
        <time>2025-04-26T07:24:34.305Z</time>
      </trkpt>
      <trkpt lat="48.78091" lon="-0.38448">
        <ele>223.9</ele>
        <time>2025-04-26T07:24:39.844Z</time>
      </trkpt>
      <trkpt lat="48.7809" lon="-0.38455">
        <ele>224.5</ele>
        <time>2025-04-26T07:24:45.384Z</time>
      </trkpt>
      <trkpt lat="48.78089" lon="-0.38467">
        <ele>225.4</ele>
        <time>2025-04-26T07:24:54.260Z</time>
      </trkpt>
      <trkpt lat="48.7809" lon="-0.3848">
        <ele>226.3</ele>
        <time>2025-04-26T07:25:03.579Z</time>
      </trkpt>
      <trkpt lat="48.7809" lon="-0.38483">
        <ele>226.5</ele>
        <time>2025-04-26T07:25:05.692Z</time>
        <extensions>
          <visugpx:TrkExtension xmlns:visugpx="https://www.visugpx.com/editgpx/">
            <visugpx:node>2</visugpx:node>
            </visugpx:TrkExtension>
        </extensions>
      </trkpt>
      <trkpt lat="48.7809" lon="-0.3848">
        <ele>226.3</ele>
        <time>2025-04-26T07:25:07.018Z</time>
      </trkpt>
      <trkpt lat="48.78084" lon="-0.38483">
        <ele>226.7</ele>
        <time>2025-04-26T07:25:13.755Z</time>
      </trkpt>
      <trkpt lat="48.78077" lon="-0.38486">
        <ele>227.3</ele>
        <time>2025-04-26T07:25:20.492Z</time>
      </trkpt>
      <trkpt lat="48.78071" lon="-0.38488">
        <ele>227.9</ele>
        <time>2025-04-26T07:25:27.229Z</time>
      </trkpt>
      <trkpt lat="48.78064" lon="-0.38491">
        <ele>228.5</ele>
        <time>2025-04-26T07:25:33.968Z</time>
      </trkpt>
      <trkpt lat="48.7806" lon="-0.38493">
        <ele>229</ele>
        <time>2025-04-26T07:25:38.158Z</time>
      </trkpt>
      <trkpt lat="48.78055" lon="-0.38495">
        <ele>229.4</ele>
        <time>2025-04-26T07:25:42.348Z</time>
      </trkpt>
      <trkpt lat="48.78051" lon="-0.38497">
        <ele>229.7</ele>
        <time>2025-04-26T07:25:46.539Z</time>
      </trkpt>
      <trkpt lat="48.78047" lon="-0.38499">
        <ele>229.9</ele>
        <time>2025-04-26T07:25:50.730Z</time>
      </trkpt>
      <trkpt lat="48.78042" lon="-0.385">
        <ele>230</ele>
        <time>2025-04-26T07:25:54.921Z</time>
      </trkpt>
      <trkpt lat="48.78038" lon="-0.38502">
        <ele>230.2</ele>
        <time>2025-04-26T07:25:59.112Z</time>
      </trkpt>
      <trkpt lat="48.78033" lon="-0.38504">
        <ele>230.4</ele>
        <time>2025-04-26T07:26:03.303Z</time>
      </trkpt>
      <trkpt lat="48.78029" lon="-0.38506">
        <ele>230.6</ele>
        <time>2025-04-26T07:26:07.495Z</time>
      </trkpt>
      <trkpt lat="48.78023" lon="-0.3851">
        <ele>231.3</ele>
        <time>2025-04-26T07:26:14.771Z</time>
      </trkpt>
      <trkpt lat="48.78016" lon="-0.38514">
        <ele>231.9</ele>
        <time>2025-04-26T07:26:22.049Z</time>
      </trkpt>
      <trkpt lat="48.78011" lon="-0.38523">
        <ele>233.1</ele>
        <time>2025-04-26T07:26:29.693Z</time>
      </trkpt>
      <trkpt lat="48.78007" lon="-0.38533">
        <ele>233.9</ele>
        <time>2025-04-26T07:26:37.337Z</time>
      </trkpt>
      <trkpt lat="48.78002" lon="-0.38542">
        <ele>234.4</ele>
        <time>2025-04-26T07:26:44.981Z</time>
      </trkpt>
      <trkpt lat="48.77998" lon="-0.38551">
        <ele>234.9</ele>
        <time>2025-04-26T07:26:52.625Z</time>
      </trkpt>
      <trkpt lat="48.77993" lon="-0.3856">
        <ele>235.6</ele>
        <time>2025-04-26T07:27:00.269Z</time>
      </trkpt>
      <trkpt lat="48.77988" lon="-0.3857">
        <ele>236.4</ele>
        <time>2025-04-26T07:27:07.913Z</time>
      </trkpt>
      <trkpt lat="48.77984" lon="-0.38579">
        <ele>237.3</ele>
        <time>2025-04-26T07:27:15.557Z</time>
      </trkpt>
      <trkpt lat="48.77979" lon="-0.38588">
        <ele>238.1</ele>
        <time>2025-04-26T07:27:23.201Z</time>
      </trkpt>
      <trkpt lat="48.77974" lon="-0.38597">
        <ele>238.9</ele>
        <time>2025-04-26T07:27:30.845Z</time>
      </trkpt>
      <trkpt lat="48.7797" lon="-0.38607">
        <ele>239.7</ele>
        <time>2025-04-26T07:27:38.489Z</time>
      </trkpt>
      <trkpt lat="48.77965" lon="-0.38616">
        <ele>240.2</ele>
        <time>2025-04-26T07:27:46.133Z</time>
      </trkpt>
      <trkpt lat="48.77961" lon="-0.38625">
        <ele>240.5</ele>
        <time>2025-04-26T07:27:53.777Z</time>
      </trkpt>
      <trkpt lat="48.77956" lon="-0.38634">
        <ele>240.8</ele>
        <time>2025-04-26T07:28:01.422Z</time>
      </trkpt>
      <trkpt lat="48.77951" lon="-0.38644">
        <ele>241.1</ele>
        <time>2025-04-26T07:28:09.067Z</time>
      </trkpt>
      <trkpt lat="48.77947" lon="-0.38653">
        <ele>241.5</ele>
        <time>2025-04-26T07:28:16.712Z</time>
      </trkpt>
      <trkpt lat="48.77942" lon="-0.38662">
        <ele>241.9</ele>
        <time>2025-04-26T07:28:24.358Z</time>
      </trkpt>
      <trkpt lat="48.77939" lon="-0.38668">
        <ele>242.2</ele>
        <time>2025-04-26T07:28:28.538Z</time>
      </trkpt>
      <trkpt lat="48.77937" lon="-0.38674">
        <ele>242.5</ele>
        <time>2025-04-26T07:28:32.718Z</time>
      </trkpt>
      <trkpt lat="48.77934" lon="-0.38679">
        <ele>242.7</ele>
        <time>2025-04-26T07:28:36.899Z</time>
      </trkpt>
      <trkpt lat="48.77931" lon="-0.38685">
        <ele>242.8</ele>
        <time>2025-04-26T07:28:41.081Z</time>
      </trkpt>
      <trkpt lat="48.77926" lon="-0.38694">
        <ele>243</ele>
        <time>2025-04-26T07:28:47.485Z</time>
      </trkpt>
      <trkpt lat="48.77922" lon="-0.38704">
        <ele>243.3</ele>
        <time>2025-04-26T07:28:53.889Z</time>
      </trkpt>
      <trkpt lat="48.77917" lon="-0.38713">
        <ele>243.7</ele>
        <time>2025-04-26T07:29:00.293Z</time>
      </trkpt>
      <trkpt lat="48.77913" lon="-0.38723">
        <ele>244.1</ele>
        <time>2025-04-26T07:29:06.697Z</time>
      </trkpt>
      <trkpt lat="48.77908" lon="-0.38732">
        <ele>244.5</ele>
        <time>2025-04-26T07:29:13.101Z</time>
      </trkpt>
      <trkpt lat="48.77904" lon="-0.38741">
        <ele>244.8</ele>
        <time>2025-04-26T07:29:19.505Z</time>
      </trkpt>
      <trkpt lat="48.77899" lon="-0.38751">
        <ele>245</ele>
        <time>2025-04-26T07:29:25.910Z</time>
      </trkpt>
      <trkpt lat="48.77895" lon="-0.3876">
        <ele>245</ele>
        <time>2025-04-26T07:29:32.315Z</time>
      </trkpt>
      <trkpt lat="48.7789" lon="-0.38769">
        <ele>245</ele>
        <time>2025-04-26T07:29:38.720Z</time>
      </trkpt>
      <trkpt lat="48.77885" lon="-0.38779">
        <ele>245.1</ele>
        <time>2025-04-26T07:29:45.125Z</time>
      </trkpt>
      <trkpt lat="48.77881" lon="-0.38788">
        <ele>245.3</ele>
        <time>2025-04-26T07:29:51.530Z</time>
      </trkpt>
      <trkpt lat="48.77876" lon="-0.38798">
        <ele>245.5</ele>
        <time>2025-04-26T07:29:57.935Z</time>
      </trkpt>
      <trkpt lat="48.77872" lon="-0.38807">
        <ele>245.6</ele>
        <time>2025-04-26T07:30:04.340Z</time>
      </trkpt>
      <trkpt lat="48.77867" lon="-0.38816">
        <ele>245.9</ele>
        <time>2025-04-26T07:30:10.745Z</time>
      </trkpt>
      <trkpt lat="48.77863" lon="-0.38826">
        <ele>246</ele>
        <time>2025-04-26T07:30:17.150Z</time>
      </trkpt>
      <trkpt lat="48.77858" lon="-0.38835">
        <ele>246.1</ele>
        <time>2025-04-26T07:30:23.556Z</time>
      </trkpt>
      <trkpt lat="48.77858" lon="-0.38836">
        <ele>246.1</ele>
        <time>2025-04-26T07:30:24.061Z</time>
        <extensions>
          <visugpx:TrkExtension xmlns:visugpx="https://www.visugpx.com/editgpx/">
            <visugpx:node>3</visugpx:node>
            </visugpx:TrkExtension>
        </extensions>
      </trkpt>
      <trkpt lat="48.77854" lon="-0.38844">
        <ele>246.3</ele>
        <time>2025-04-26T07:30:29.639Z</time>
      </trkpt>
      <trkpt lat="48.77852" lon="-0.38853">
        <ele>246.3</ele>
        <time>2025-04-26T07:30:34.461Z</time>
      </trkpt>
      <trkpt lat="48.77849" lon="-0.38861">
        <ele>246.4</ele>
        <time>2025-04-26T07:30:39.285Z</time>
      </trkpt>
      <trkpt lat="48.77846" lon="-0.38869">
        <ele>246.5</ele>
        <time>2025-04-26T07:30:44.135Z</time>
      </trkpt>
      <trkpt lat="48.77843" lon="-0.38877">
        <ele>246.7</ele>
        <time>2025-04-26T07:30:48.985Z</time>
      </trkpt>
      <trkpt lat="48.7784" lon="-0.38884">
        <ele>246.8</ele>
        <time>2025-04-26T07:30:53.835Z</time>
      </trkpt>
      <trkpt lat="48.77837" lon="-0.38892">
        <ele>246.9</ele>
        <time>2025-04-26T07:30:58.686Z</time>
      </trkpt>
      <trkpt lat="48.77834" lon="-0.38904">
        <ele>247</ele>
        <time>2025-04-26T07:31:05.054Z</time>
      </trkpt>
      <trkpt lat="48.77831" lon="-0.38915">
        <ele>247</ele>
        <time>2025-04-26T07:31:11.423Z</time>
      </trkpt>
      <trkpt lat="48.77828" lon="-0.38921">
        <ele>247</ele>
        <time>2025-04-26T07:31:15.396Z</time>
      </trkpt>
      <trkpt lat="48.77825" lon="-0.38927">
        <ele>247</ele>
        <time>2025-04-26T07:31:19.369Z</time>
      </trkpt>
      <trkpt lat="48.77821" lon="-0.38933">
        <ele>247</ele>
        <time>2025-04-26T07:31:23.342Z</time>
      </trkpt>
      <trkpt lat="48.77818" lon="-0.3894">
        <ele>247</ele>
        <time>2025-04-26T07:31:27.315Z</time>
      </trkpt>
      <trkpt lat="48.77815" lon="-0.38946">
        <ele>247</ele>
        <time>2025-04-26T07:31:31.288Z</time>
      </trkpt>
      <trkpt lat="48.77812" lon="-0.38952">
        <ele>247</ele>
        <time>2025-04-26T07:31:35.261Z</time>
      </trkpt>
      <trkpt lat="48.77808" lon="-0.38958">
        <ele>247</ele>
        <time>2025-04-26T07:31:39.234Z</time>
      </trkpt>
      <trkpt lat="48.77805" lon="-0.38964">
        <ele>247</ele>
        <time>2025-04-26T07:31:43.208Z</time>
      </trkpt>
      <trkpt lat="48.778" lon="-0.38974">
        <ele>247</ele>
        <time>2025-04-26T07:31:49.449Z</time>
      </trkpt>
      <trkpt lat="48.77795" lon="-0.38984">
        <ele>247</ele>
        <time>2025-04-26T07:31:55.691Z</time>
      </trkpt>
      <trkpt lat="48.7779" lon="-0.38993">
        <ele>247</ele>
        <time>2025-04-26T07:32:01.933Z</time>
      </trkpt>
      <trkpt lat="48.77785" lon="-0.39003">
        <ele>247</ele>
        <time>2025-04-26T07:32:08.176Z</time>
      </trkpt>
      <trkpt lat="48.77789" lon="-0.39007">
        <ele>247</ele>
        <time>2025-04-26T07:32:12.113Z</time>
      </trkpt>
      <trkpt lat="48.77794" lon="-0.39012">
        <ele>247</ele>
        <time>2025-04-26T07:32:16.050Z</time>
      </trkpt>
      <trkpt lat="48.77798" lon="-0.39016">
        <ele>247</ele>
        <time>2025-04-26T07:32:19.987Z</time>
      </trkpt>
      <trkpt lat="48.77802" lon="-0.39021">
        <ele>247</ele>
        <time>2025-04-26T07:32:23.924Z</time>
      </trkpt>
      <trkpt lat="48.77806" lon="-0.39025">
        <ele>247</ele>
        <time>2025-04-26T07:32:27.861Z</time>
      </trkpt>
      <trkpt lat="48.77811" lon="-0.39029">
        <ele>247</ele>
        <time>2025-04-26T07:32:31.799Z</time>
      </trkpt>
      <trkpt lat="48.77815" lon="-0.39034">
        <ele>247</ele>
        <time>2025-04-26T07:32:35.737Z</time>
      </trkpt>
      <trkpt lat="48.77819" lon="-0.39038">
        <ele>247</ele>
        <time>2025-04-26T07:32:39.675Z</time>
      </trkpt>
      <trkpt lat="48.77824" lon="-0.39049">
        <ele>247</ele>
        <time>2025-04-26T07:32:46.220Z</time>
      </trkpt>
      <trkpt lat="48.77829" lon="-0.39059">
        <ele>247</ele>
        <time>2025-04-26T07:32:52.766Z</time>
      </trkpt>
      <trkpt lat="48.77834" lon="-0.39068">
        <ele>247</ele>
        <time>2025-04-26T07:32:58.713Z</time>
      </trkpt>
      <trkpt lat="48.77836" lon="-0.39076">
        <ele>247</ele>
        <time>2025-04-26T07:33:02.625Z</time>
      </trkpt>
      <trkpt lat="48.77838" lon="-0.39084">
        <ele>247</ele>
        <time>2025-04-26T07:33:06.537Z</time>
      </trkpt>
      <trkpt lat="48.77839" lon="-0.39091">
        <ele>246.8</ele>
        <time>2025-04-26T07:33:10.449Z</time>
      </trkpt>
      <trkpt lat="48.77841" lon="-0.39099">
        <ele>246.6</ele>
        <time>2025-04-26T07:33:14.362Z</time>
        <extensions>
          <visugpx:TrkExtension xmlns:visugpx="https://www.visugpx.com/editgpx/">
            <visugpx:node>4</visugpx:node>
            </visugpx:TrkExtension>
        </extensions>
      </trkpt>
      <trkpt lat="48.77842" lon="-0.391">
        <ele>246.6</ele>
        <time>2025-04-26T07:33:15.280Z</time>
      </trkpt>
      <trkpt lat="48.77846" lon="-0.39113">
        <ele>246.5</ele>
        <time>2025-04-26T07:33:22.384Z</time>
      </trkpt>
      <trkpt lat="48.77849" lon="-0.39125">
        <ele>246.8</ele>
        <time>2025-04-26T07:33:29.488Z</time>
      </trkpt>
      <trkpt lat="48.7785" lon="-0.39132">
        <ele>246.9</ele>
        <time>2025-04-26T07:33:33.394Z</time>
      </trkpt>
      <trkpt lat="48.77852" lon="-0.3914">
        <ele>247</ele>
        <time>2025-04-26T07:33:37.301Z</time>
      </trkpt>
      <trkpt lat="48.77853" lon="-0.39147">
        <ele>247</ele>
        <time>2025-04-26T07:33:41.208Z</time>
      </trkpt>
      <trkpt lat="48.77854" lon="-0.39154">
        <ele>247</ele>
        <time>2025-04-26T07:33:45.115Z</time>
      </trkpt>
      <trkpt lat="48.77859" lon="-0.39161">
        <ele>247</ele>
        <time>2025-04-26T07:33:50.163Z</time>
      </trkpt>
      <trkpt lat="48.77864" lon="-0.39167">
        <ele>247</ele>
        <time>2025-04-26T07:33:55.211Z</time>
      </trkpt>
      <trkpt lat="48.77869" lon="-0.39177">
        <ele>247</ele>
        <time>2025-04-26T07:34:01.553Z</time>
      </trkpt>
      <trkpt lat="48.77872" lon="-0.39177">
        <ele>247</ele>
        <time>2025-04-26T07:34:03.853Z</time>
      </trkpt>
      <trkpt lat="48.77878" lon="-0.39187">
        <ele>247</ele>
        <time>2025-04-26T07:34:10.686Z</time>
      </trkpt>
      <trkpt lat="48.77882" lon="-0.39195">
        <ele>247</ele>
        <time>2025-04-26T07:34:15.224Z</time>
      </trkpt>
      <trkpt lat="48.77886" lon="-0.39202">
        <ele>246.7</ele>
        <time>2025-04-26T07:34:19.762Z</time>
      </trkpt>
      <trkpt lat="48.77892" lon="-0.39205">
        <ele>246.6</ele>
        <time>2025-04-26T07:34:24.380Z</time>
      </trkpt>
      <trkpt lat="48.77899" lon="-0.39207">
        <ele>246.4</ele>
        <time>2025-04-26T07:34:28.999Z</time>
      </trkpt>
      <trkpt lat="48.77905" lon="-0.3921">
        <ele>246.2</ele>
        <time>2025-04-26T07:34:33.618Z</time>
      </trkpt>
      <trkpt lat="48.77911" lon="-0.39212">
        <ele>246.1</ele>
        <time>2025-04-26T07:34:38.237Z</time>
      </trkpt>
      <trkpt lat="48.77914" lon="-0.39217">
        <ele>246</ele>
        <time>2025-04-26T07:34:41.638Z</time>
      </trkpt>
      <trkpt lat="48.77918" lon="-0.39222">
        <ele>246</ele>
        <time>2025-04-26T07:34:45.039Z</time>
      </trkpt>
      <trkpt lat="48.77921" lon="-0.39226">
        <ele>246</ele>
        <time>2025-04-26T07:34:48.440Z</time>
      </trkpt>
      <trkpt lat="48.77924" lon="-0.39231">
        <ele>246</ele>
        <time>2025-04-26T07:34:51.842Z</time>
      </trkpt>
      <trkpt lat="48.77932" lon="-0.39233">
        <ele>245.6</ele>
        <time>2025-04-26T07:34:57.446Z</time>
      </trkpt>
      <trkpt lat="48.77941" lon="-0.39235">
        <ele>245.2</ele>
        <time>2025-04-26T07:35:03.051Z</time>
      </trkpt>
      <trkpt lat="48.77949" lon="-0.39237">
        <ele>244.8</ele>
        <time>2025-04-26T07:35:08.656Z</time>
      </trkpt>
      <trkpt lat="48.77957" lon="-0.39239">
        <ele>244.5</ele>
        <time>2025-04-26T07:35:14.261Z</time>
      </trkpt>
      <trkpt lat="48.77962" lon="-0.39242">
        <ele>244.4</ele>
        <time>2025-04-26T07:35:17.944Z</time>
      </trkpt>
      <trkpt lat="48.77967" lon="-0.39246">
        <ele>244.2</ele>
        <time>2025-04-26T07:35:21.627Z</time>
      </trkpt>
      <trkpt lat="48.77972" lon="-0.39249">
        <ele>244</ele>
        <time>2025-04-26T07:35:25.311Z</time>
      </trkpt>
      <trkpt lat="48.77977" lon="-0.39252">
        <ele>243.6</ele>
        <time>2025-04-26T07:35:28.995Z</time>
      </trkpt>
      <trkpt lat="48.77985" lon="-0.39256">
        <ele>243</ele>
        <time>2025-04-26T07:35:34.580Z</time>
      </trkpt>
      <trkpt lat="48.77993" lon="-0.39259">
        <ele>242.3</ele>
        <time>2025-04-26T07:35:40.166Z</time>
      </trkpt>
      <trkpt lat="48.78001" lon="-0.39266">
        <ele>241.4</ele>
        <time>2025-04-26T07:35:45.960Z</time>
      </trkpt>
      <trkpt lat="48.78008" lon="-0.39272">
        <ele>240.6</ele>
        <time>2025-04-26T07:35:51.755Z</time>
      </trkpt>
      <trkpt lat="48.78011" lon="-0.3928">
        <ele>240.2</ele>
        <time>2025-04-26T07:35:55.852Z</time>
      </trkpt>
      <trkpt lat="48.78013" lon="-0.39289">
        <ele>240.1</ele>
        <time>2025-04-26T07:35:59.949Z</time>
      </trkpt>
      <trkpt lat="48.78016" lon="-0.39297">
        <ele>239.9</ele>
        <time>2025-04-26T07:36:04.046Z</time>
      </trkpt>
      <trkpt lat="48.78018" lon="-0.39305">
        <ele>239.7</ele>
        <time>2025-04-26T07:36:08.143Z</time>
        <extensions>
          <visugpx:TrkExtension xmlns:visugpx="https://www.visugpx.com/editgpx/">
            <visugpx:node>5</visugpx:node>
            </visugpx:TrkExtension>
        </extensions>
      </trkpt>
      <trkpt lat="48.78018" lon="-0.39305">
        <ele>239.7</ele>
        <time>2025-04-26T07:36:08.143Z</time>
      </trkpt>
      <trkpt lat="48.78026" lon="-0.3931">
        <ele>239.2</ele>
        <time>2025-04-26T07:36:13.553Z</time>
      </trkpt>
      <trkpt lat="48.78033" lon="-0.39314">
        <ele>238.8</ele>
        <time>2025-04-26T07:36:18.964Z</time>
      </trkpt>
      <trkpt lat="48.7804" lon="-0.39318">
        <ele>238.4</ele>
        <time>2025-04-26T07:36:24.022Z</time>
      </trkpt>
      <trkpt lat="48.78047" lon="-0.39323">
        <ele>237.9</ele>
        <time>2025-04-26T07:36:29.080Z</time>
      </trkpt>
      <trkpt lat="48.78054" lon="-0.39327">
        <ele>237.3</ele>
        <time>2025-04-26T07:36:34.138Z</time>
      </trkpt>
      <trkpt lat="48.78061" lon="-0.39331">
        <ele>236.9</ele>
        <time>2025-04-26T07:36:39.196Z</time>
      </trkpt>
      <trkpt lat="48.78066" lon="-0.39334">
        <ele>236.6</ele>
        <time>2025-04-26T07:36:42.763Z</time>
      </trkpt>
      <trkpt lat="48.78071" lon="-0.39337">
        <ele>236.4</ele>
        <time>2025-04-26T07:36:46.331Z</time>
      </trkpt>
      <trkpt lat="48.78076" lon="-0.39339">
        <ele>236.1</ele>
        <time>2025-04-26T07:36:49.899Z</time>
      </trkpt>
      <trkpt lat="48.78081" lon="-0.39342">
        <ele>235.8</ele>
        <time>2025-04-26T07:36:53.467Z</time>
      </trkpt>
      <trkpt lat="48.78087" lon="-0.39341">
        <ele>235.6</ele>
        <time>2025-04-26T07:36:57.911Z</time>
      </trkpt>
      <trkpt lat="48.78094" lon="-0.3934">
        <ele>235.4</ele>
        <time>2025-04-26T07:37:02.355Z</time>
      </trkpt>
      <trkpt lat="48.781" lon="-0.39338">
        <ele>235.2</ele>
        <time>2025-04-26T07:37:06.799Z</time>
      </trkpt>
      <trkpt lat="48.78106" lon="-0.39337">
        <ele>235.1</ele>
        <time>2025-04-26T07:37:11.243Z</time>
      </trkpt>
      <trkpt lat="48.78113" lon="-0.39334">
        <ele>234.9</ele>
        <time>2025-04-26T07:37:16.736Z</time>
      </trkpt>
      <trkpt lat="48.78121" lon="-0.3933">
        <ele>234.8</ele>
        <time>2025-04-26T07:37:22.229Z</time>
      </trkpt>
      <trkpt lat="48.78128" lon="-0.39327">
        <ele>234.6</ele>
        <time>2025-04-26T07:37:27.723Z</time>
      </trkpt>
      <trkpt lat="48.78135" lon="-0.39323">
        <ele>234.5</ele>
        <time>2025-04-26T07:37:33.217Z</time>
      </trkpt>
      <trkpt lat="48.78143" lon="-0.39323">
        <ele>234.1</ele>
        <time>2025-04-26T07:37:38.253Z</time>
      </trkpt>
      <trkpt lat="48.7815" lon="-0.39322">
        <ele>233.6</ele>
        <time>2025-04-26T07:37:43.290Z</time>
      </trkpt>
      <trkpt lat="48.78157" lon="-0.39325">
        <ele>233</ele>
        <time>2025-04-26T07:37:47.817Z</time>
      </trkpt>
      <trkpt lat="48.78163" lon="-0.39328">
        <ele>232.5</ele>
        <time>2025-04-26T07:37:52.344Z</time>
      </trkpt>
      <trkpt lat="48.7817" lon="-0.3933">
        <ele>232</ele>
        <time>2025-04-26T07:37:56.871Z</time>
      </trkpt>
      <trkpt lat="48.78176" lon="-0.39333">
        <ele>231.7</ele>
        <time>2025-04-26T07:38:01.398Z</time>
      </trkpt>
      <trkpt lat="48.78181" lon="-0.39341">
        <ele>231.3</ele>
        <time>2025-04-26T07:38:06.272Z</time>
      </trkpt>
      <trkpt lat="48.7818" lon="-0.39345">
        <ele>231.3</ele>
        <time>2025-04-26T07:38:08.433Z</time>
      </trkpt>
      <trkpt lat="48.78177" lon="-0.39355">
        <ele>231.3</ele>
        <time>2025-04-26T07:38:13.867Z</time>
      </trkpt>
      <trkpt lat="48.78174" lon="-0.39365">
        <ele>231.2</ele>
        <time>2025-04-26T07:38:19.303Z</time>
      </trkpt>
      <trkpt lat="48.78172" lon="-0.39372">
        <ele>230.9</ele>
        <time>2025-04-26T07:38:22.822Z</time>
      </trkpt>
      <trkpt lat="48.78169" lon="-0.39379">
        <ele>230.5</ele>
        <time>2025-04-26T07:38:26.342Z</time>
      </trkpt>
      <trkpt lat="48.78166" lon="-0.39391">
        <ele>229.9</ele>
        <time>2025-04-26T07:38:32.016Z</time>
      </trkpt>
      <trkpt lat="48.78164" lon="-0.39402">
        <ele>229.2</ele>
        <time>2025-04-26T07:38:37.060Z</time>
      </trkpt>
      <trkpt lat="48.78164" lon="-0.39413">
        <ele>228.5</ele>
        <time>2025-04-26T07:38:41.922Z</time>
      </trkpt>
      <trkpt lat="48.78164" lon="-0.39422">
        <ele>228</ele>
        <time>2025-04-26T07:38:45.901Z</time>
      </trkpt>
      <trkpt lat="48.78166" lon="-0.39435">
        <ele>227.4</ele>
        <time>2025-04-26T07:38:51.802Z</time>
      </trkpt>
      <trkpt lat="48.78167" lon="-0.39442">
        <ele>227.1</ele>
        <time>2025-04-26T07:38:54.968Z</time>
      </trkpt>
      <trkpt lat="48.78168" lon="-0.39449">
        <ele>226.7</ele>
        <time>2025-04-26T07:38:58.135Z</time>
      </trkpt>
      <trkpt lat="48.7817" lon="-0.39457">
        <ele>226.3</ele>
        <time>2025-04-26T07:39:01.711Z</time>
      </trkpt>
      <trkpt lat="48.78172" lon="-0.39464">
        <ele>225.9</ele>
        <time>2025-04-26T07:39:05.288Z</time>
      </trkpt>
      <trkpt lat="48.78173" lon="-0.39472">
        <ele>225.6</ele>
        <time>2025-04-26T07:39:08.887Z</time>
      </trkpt>
      <trkpt lat="48.78174" lon="-0.3948">
        <ele>225.2</ele>
        <time>2025-04-26T07:39:12.487Z</time>
      </trkpt>
      <trkpt lat="48.78176" lon="-0.39488">
        <ele>224.8</ele>
        <time>2025-04-26T07:39:15.951Z</time>
      </trkpt>
      <trkpt lat="48.78177" lon="-0.39495">
        <ele>224.4</ele>
        <time>2025-04-26T07:39:19.416Z</time>
      </trkpt>
      <trkpt lat="48.78178" lon="-0.39505">
        <ele>224.1</ele>
        <time>2025-04-26T07:39:23.629Z</time>
      </trkpt>
      <trkpt lat="48.78178" lon="-0.39514">
        <ele>223.7</ele>
        <time>2025-04-26T07:39:27.842Z</time>
      </trkpt>
      <trkpt lat="48.78178" lon="-0.39527">
        <ele>223.2</ele>
        <time>2025-04-26T07:39:33.589Z</time>
      </trkpt>
      <trkpt lat="48.78178" lon="-0.39539">
        <ele>222.6</ele>
        <time>2025-04-26T07:39:38.683Z</time>
      </trkpt>
      <trkpt lat="48.78177" lon="-0.3955">
        <ele>222</ele>
        <time>2025-04-26T07:39:43.778Z</time>
      </trkpt>
      <trkpt lat="48.78177" lon="-0.39562">
        <ele>221.4</ele>
        <time>2025-04-26T07:39:48.872Z</time>
      </trkpt>
      <trkpt lat="48.78176" lon="-0.39573">
        <ele>221</ele>
        <time>2025-04-26T07:39:53.968Z</time>
      </trkpt>
      <trkpt lat="48.78175" lon="-0.39586">
        <ele>220.5</ele>
        <time>2025-04-26T07:39:59.533Z</time>
      </trkpt>
      <trkpt lat="48.78174" lon="-0.39598">
        <ele>219.7</ele>
        <time>2025-04-26T07:40:05.100Z</time>
      </trkpt>
      <trkpt lat="48.78174" lon="-0.39607">
        <ele>219</ele>
        <time>2025-04-26T07:40:09.202Z</time>
      </trkpt>
      <trkpt lat="48.78173" lon="-0.39617">
        <ele>218.5</ele>
        <time>2025-04-26T07:40:13.304Z</time>
      </trkpt>
      <trkpt lat="48.78173" lon="-0.39626">
        <ele>218.2</ele>
        <time>2025-04-26T07:40:17.407Z</time>
      </trkpt>
      <trkpt lat="48.78172" lon="-0.39635">
        <ele>217.8</ele>
        <time>2025-04-26T07:40:21.511Z</time>
      </trkpt>
      <trkpt lat="48.78171" lon="-0.39645">
        <ele>217.7</ele>
        <time>2025-04-26T07:40:26.539Z</time>
      </trkpt>
      <trkpt lat="48.7817" lon="-0.39656">
        <ele>217.7</ele>
        <time>2025-04-26T07:40:31.567Z</time>
      </trkpt>
      <trkpt lat="48.78169" lon="-0.39666">
        <ele>217.8</ele>
        <time>2025-04-26T07:40:36.595Z</time>
      </trkpt>
      <trkpt lat="48.78168" lon="-0.39677">
        <ele>217.9</ele>
        <time>2025-04-26T07:40:41.623Z</time>
      </trkpt>
      <trkpt lat="48.78166" lon="-0.39687">
        <ele>218</ele>
        <time>2025-04-26T07:40:46.651Z</time>
      </trkpt>
      <trkpt lat="48.78165" lon="-0.39697">
        <ele>217.9</ele>
        <time>2025-04-26T07:40:51.679Z</time>
      </trkpt>
      <trkpt lat="48.78164" lon="-0.39708">
        <ele>217.3</ele>
        <time>2025-04-26T07:40:56.707Z</time>
      </trkpt>
      <trkpt lat="48.78163" lon="-0.39718">
        <ele>216.8</ele>
        <time>2025-04-26T07:41:01.736Z</time>
      </trkpt>
      <trkpt lat="48.78162" lon="-0.39727">
        <ele>216.5</ele>
        <time>2025-04-26T07:41:06.098Z</time>
      </trkpt>
      <trkpt lat="48.78162" lon="-0.39735">
        <ele>216.4</ele>
        <time>2025-04-26T07:41:10.460Z</time>
      </trkpt>
      <trkpt lat="48.78161" lon="-0.39744">
        <ele>216.3</ele>
        <time>2025-04-26T07:41:14.822Z</time>
      </trkpt>
      <trkpt lat="48.7816" lon="-0.39752">
        <ele>216.2</ele>
        <time>2025-04-26T07:41:19.184Z</time>
      </trkpt>
      <trkpt lat="48.78159" lon="-0.39761">
        <ele>216.3</ele>
        <time>2025-04-26T07:41:23.546Z</time>
      </trkpt>
      <trkpt lat="48.78159" lon="-0.39769">
        <ele>216.5</ele>
        <time>2025-04-26T07:41:27.908Z</time>
      </trkpt>
      <trkpt lat="48.78158" lon="-0.39778">
        <ele>216.6</ele>
        <time>2025-04-26T07:41:32.270Z</time>
      </trkpt>
      <trkpt lat="48.78157" lon="-0.39786">
        <ele>216.9</ele>
        <time>2025-04-26T07:41:36.634Z</time>
      </trkpt>
      <trkpt lat="48.78159" lon="-0.39799">
        <ele>216.9</ele>
        <time>2025-04-26T07:41:43.125Z</time>
      </trkpt>
      <trkpt lat="48.78161" lon="-0.39812">
        <ele>217</ele>
        <time>2025-04-26T07:41:49.617Z</time>
      </trkpt>
      <trkpt lat="48.78163" lon="-0.39825">
        <ele>217.1</ele>
        <time>2025-04-26T07:41:56.109Z</time>
      </trkpt>
      <trkpt lat="48.78165" lon="-0.39839">
        <ele>217.2</ele>
        <time>2025-04-26T07:42:02.601Z</time>
      </trkpt>
      <trkpt lat="48.78167" lon="-0.39852">
        <ele>217</ele>
        <time>2025-04-26T07:42:09.093Z</time>
      </trkpt>
      <trkpt lat="48.78169" lon="-0.39865">
        <ele>216.7</ele>
        <time>2025-04-26T07:42:15.585Z</time>
      </trkpt>
      <trkpt lat="48.78171" lon="-0.39878">
        <ele>216.3</ele>
        <time>2025-04-26T07:42:22.077Z</time>
      </trkpt>
      <trkpt lat="48.78173" lon="-0.39891">
        <ele>215.8</ele>
        <time>2025-04-26T07:42:28.569Z</time>
      </trkpt>
      <trkpt lat="48.78175" lon="-0.39902">
        <ele>215.2</ele>
        <time>2025-04-26T07:42:33.571Z</time>
      </trkpt>
      <trkpt lat="48.78177" lon="-0.39913">
        <ele>214.7</ele>
        <time>2025-04-26T07:42:38.573Z</time>
      </trkpt>
      <trkpt lat="48.78178" lon="-0.39924">
        <ele>214.4</ele>
        <time>2025-04-26T07:42:43.575Z</time>
      </trkpt>
      <trkpt lat="48.7818" lon="-0.39935">
        <ele>214.4</ele>
        <time>2025-04-26T07:42:48.578Z</time>
      </trkpt>
      <trkpt lat="48.78182" lon="-0.39945">
        <ele>214.4</ele>
        <time>2025-04-26T07:42:53.598Z</time>
      </trkpt>
      <trkpt lat="48.78183" lon="-0.39956">
        <ele>214.2</ele>
        <time>2025-04-26T07:42:58.619Z</time>
      </trkpt>
      <trkpt lat="48.78185" lon="-0.39966">
        <ele>214.1</ele>
        <time>2025-04-26T07:43:03.640Z</time>
      </trkpt>
      <trkpt lat="48.78186" lon="-0.39976">
        <ele>213.9</ele>
        <time>2025-04-26T07:43:08.661Z</time>
        <extensions>
          <visugpx:TrkExtension xmlns:visugpx="https://www.visugpx.com/editgpx/">
            <visugpx:node>6</visugpx:node>
            </visugpx:TrkExtension>
        </extensions>
      </trkpt>
      <trkpt lat="48.78187" lon="-0.39982">
        <ele>213.8</ele>
        <time>2025-04-26T07:43:11.563Z</time>
      </trkpt>
      <trkpt lat="48.78188" lon="-0.39991">
        <ele>213.7</ele>
        <time>2025-04-26T07:43:15.822Z</time>
      </trkpt>
      <trkpt lat="48.78189" lon="-0.4">
        <ele>213.6</ele>
        <time>2025-04-26T07:43:20.081Z</time>
      </trkpt>
      <trkpt lat="48.7819" lon="-0.40008">
        <ele>213.5</ele>
        <time>2025-04-26T07:43:24.340Z</time>
      </trkpt>
      <trkpt lat="48.78191" lon="-0.40017">
        <ele>213.4</ele>
        <time>2025-04-26T07:43:28.599Z</time>
      </trkpt>
      <trkpt lat="48.78185" lon="-0.40012">
        <ele>214</ele>
        <time>2025-04-26T07:43:35.756Z</time>
      </trkpt>
      <trkpt lat="48.78179" lon="-0.40007">
        <ele>214.7</ele>
        <time>2025-04-26T07:43:42.915Z</time>
      </trkpt>
      <trkpt lat="48.78174" lon="-0.40006">
        <ele>215.3</ele>
        <time>2025-04-26T07:43:49.017Z</time>
      </trkpt>
      <trkpt lat="48.78168" lon="-0.40004">
        <ele>215.9</ele>
        <time>2025-04-26T07:43:55.120Z</time>
      </trkpt>
      <trkpt lat="48.78161" lon="-0.40005">
        <ele>216.6</ele>
        <time>2025-04-26T07:44:02.763Z</time>
      </trkpt>
      <trkpt lat="48.78154" lon="-0.40005">
        <ele>217.4</ele>
        <time>2025-04-26T07:44:10.407Z</time>
      </trkpt>
      <trkpt lat="48.78148" lon="-0.40005">
        <ele>218.1</ele>
        <time>2025-04-26T07:44:17.513Z</time>
      </trkpt>
      <trkpt lat="48.78141" lon="-0.40005">
        <ele>218.8</ele>
        <time>2025-04-26T07:44:24.620Z</time>
      </trkpt>
      <trkpt lat="48.78135" lon="-0.40006">
        <ele>219.4</ele>
        <time>2025-04-26T07:44:31.011Z</time>
      </trkpt>
      <trkpt lat="48.78129" lon="-0.40006">
        <ele>220</ele>
        <time>2025-04-26T07:44:37.403Z</time>
      </trkpt>
      <trkpt lat="48.78121" lon="-0.40008">
        <ele>220.8</ele>
        <time>2025-04-26T07:44:45.776Z</time>
      </trkpt>
      <trkpt lat="48.78113" lon="-0.40009">
        <ele>221.5</ele>
        <time>2025-04-26T07:44:54.150Z</time>
      </trkpt>
      <trkpt lat="48.78106" lon="-0.40011">
        <ele>222.2</ele>
        <time>2025-04-26T07:45:02.177Z</time>
      </trkpt>
      <trkpt lat="48.78098" lon="-0.40012">
        <ele>223</ele>
        <time>2025-04-26T07:45:10.204Z</time>
      </trkpt>
      <trkpt lat="48.78092" lon="-0.40014">
        <ele>223.6</ele>
        <time>2025-04-26T07:45:16.508Z</time>
      </trkpt>
      <trkpt lat="48.78086" lon="-0.40016">
        <ele>224.1</ele>
        <time>2025-04-26T07:45:22.813Z</time>
      </trkpt>
      <trkpt lat="48.78082" lon="-0.40021">
        <ele>224.4</ele>
        <time>2025-04-26T07:45:27.442Z</time>
      </trkpt>
      <trkpt lat="48.78078" lon="-0.40026">
        <ele>224.6</ele>
        <time>2025-04-26T07:45:32.073Z</time>
      </trkpt>
      <trkpt lat="48.78074" lon="-0.40036">
        <ele>224.8</ele>
        <time>2025-04-26T07:45:38.353Z</time>
      </trkpt>
      <trkpt lat="48.78069" lon="-0.40045">
        <ele>224.9</ele>
        <time>2025-04-26T07:45:44.634Z</time>
      </trkpt>
      <trkpt lat="48.78065" lon="-0.40054">
        <ele>225.1</ele>
        <time>2025-04-26T07:45:50.282Z</time>
      </trkpt>
      <trkpt lat="48.78061" lon="-0.40062">
        <ele>225.2</ele>
        <time>2025-04-26T07:45:55.931Z</time>
      </trkpt>
      <trkpt lat="48.78057" lon="-0.40071">
        <ele>225.4</ele>
        <time>2025-04-26T07:46:02.008Z</time>
      </trkpt>
      <trkpt lat="48.78052" lon="-0.4008">
        <ele>225.5</ele>
        <time>2025-04-26T07:46:08.086Z</time>
      </trkpt>
      <trkpt lat="48.78047" lon="-0.4009">
        <ele>225.7</ele>
        <time>2025-04-26T07:46:14.727Z</time>
      </trkpt>
      <trkpt lat="48.78042" lon="-0.40099">
        <ele>225.9</ele>
        <time>2025-04-26T07:46:21.369Z</time>
      </trkpt>
      <trkpt lat="48.78038" lon="-0.4011">
        <ele>226</ele>
        <time>2025-04-26T07:46:27.939Z</time>
      </trkpt>
      <trkpt lat="48.78033" lon="-0.4012">
        <ele>226.1</ele>
        <time>2025-04-26T07:46:34.510Z</time>
      </trkpt>
      <trkpt lat="48.7803" lon="-0.40131">
        <ele>226.1</ele>
        <time>2025-04-26T07:46:40.574Z</time>
      </trkpt>
      <trkpt lat="48.78026" lon="-0.40141">
        <ele>226.2</ele>
        <time>2025-04-26T07:46:46.639Z</time>
      </trkpt>
      <trkpt lat="48.78023" lon="-0.4015">
        <ele>226.5</ele>
        <time>2025-04-26T07:46:52.344Z</time>
      </trkpt>
      <trkpt lat="48.78019" lon="-0.40158">
        <ele>226.7</ele>
        <time>2025-04-26T07:46:58.050Z</time>
      </trkpt>
      <trkpt lat="48.78016" lon="-0.40164">
        <ele>226.9</ele>
        <time>2025-04-26T07:47:02.233Z</time>
      </trkpt>
      <trkpt lat="48.78013" lon="-0.4017">
        <ele>227</ele>
        <time>2025-04-26T07:47:06.417Z</time>
      </trkpt>
      <trkpt lat="48.78008" lon="-0.40177">
        <ele>227.4</ele>
        <time>2025-04-26T07:47:12.990Z</time>
      </trkpt>
      <trkpt lat="48.78002" lon="-0.40184">
        <ele>227.8</ele>
        <time>2025-04-26T07:47:19.564Z</time>
      </trkpt>
      <trkpt lat="48.77997" lon="-0.4019">
        <ele>228.3</ele>
        <time>2025-04-26T07:47:25.862Z</time>
      </trkpt>
      <trkpt lat="48.77992" lon="-0.40196">
        <ele>228.8</ele>
        <time>2025-04-26T07:47:32.161Z</time>
      </trkpt>
      <trkpt lat="48.77989" lon="-0.40202">
        <ele>228.9</ele>
        <time>2025-04-26T07:47:36.213Z</time>
      </trkpt>
      <trkpt lat="48.77987" lon="-0.40204">
        <ele>229.1</ele>
        <time>2025-04-26T07:47:38.621Z</time>
      </trkpt>
      <trkpt lat="48.77979" lon="-0.40206">
        <ele>229.9</ele>
        <time>2025-04-26T07:47:46.795Z</time>
      </trkpt>
      <trkpt lat="48.77971" lon="-0.40209">
        <ele>230.6</ele>
        <time>2025-04-26T07:47:54.969Z</time>
      </trkpt>
      <trkpt lat="48.77962" lon="-0.40211">
        <ele>231.1</ele>
        <time>2025-04-26T07:48:03.143Z</time>
      </trkpt>
      <trkpt lat="48.77954" lon="-0.40213">
        <ele>231.6</ele>
        <time>2025-04-26T07:48:11.318Z</time>
      </trkpt>
      <trkpt lat="48.77946" lon="-0.40218">
        <ele>232</ele>
        <time>2025-04-26T07:48:19.295Z</time>
      </trkpt>
      <trkpt lat="48.77938" lon="-0.40223">
        <ele>232.5</ele>
        <time>2025-04-26T07:48:27.272Z</time>
      </trkpt>
      <trkpt lat="48.7793" lon="-0.40228">
        <ele>233</ele>
        <time>2025-04-26T07:48:35.249Z</time>
      </trkpt>
      <trkpt lat="48.77922" lon="-0.40233">
        <ele>233.6</ele>
        <time>2025-04-26T07:48:43.227Z</time>
      </trkpt>
      <trkpt lat="48.77916" lon="-0.40237">
        <ele>234</ele>
        <time>2025-04-26T07:48:48.791Z</time>
      </trkpt>
      <trkpt lat="48.77911" lon="-0.40241">
        <ele>234.3</ele>
        <time>2025-04-26T07:48:54.355Z</time>
      </trkpt>
      <trkpt lat="48.77905" lon="-0.40245">
        <ele>234.5</ele>
        <time>2025-04-26T07:48:59.920Z</time>
      </trkpt>
      <trkpt lat="48.77899" lon="-0.40249">
        <ele>234.7</ele>
        <time>2025-04-26T07:49:05.486Z</time>
      </trkpt>
      <trkpt lat="48.77891" lon="-0.40249">
        <ele>235</ele>
        <time>2025-04-26T07:49:12.773Z</time>
      </trkpt>
      <trkpt lat="48.77882" lon="-0.40248">
        <ele>235.3</ele>
        <time>2025-04-26T07:49:20.061Z</time>
      </trkpt>
      <trkpt lat="48.77878" lon="-0.40247">
        <ele>235.5</ele>
        <time>2025-04-26T07:49:24.185Z</time>
      </trkpt>
      <trkpt lat="48.77873" lon="-0.40245">
        <ele>235.8</ele>
        <time>2025-04-26T07:49:28.309Z</time>
      </trkpt>
      <trkpt lat="48.77869" lon="-0.40244">
        <ele>236</ele>
        <time>2025-04-26T07:49:32.434Z</time>
      </trkpt>
      <trkpt lat="48.77864" lon="-0.40242">
        <ele>236.2</ele>
        <time>2025-04-26T07:49:36.559Z</time>
      </trkpt>
      <trkpt lat="48.77857" lon="-0.4024">
        <ele>236.5</ele>
        <time>2025-04-26T07:49:42.798Z</time>
      </trkpt>
      <trkpt lat="48.77856" lon="-0.40246">
        <ele>236.3</ele>
        <time>2025-04-26T07:49:45.534Z</time>
        <extensions>
          <visugpx:TrkExtension xmlns:visugpx="https://www.visugpx.com/editgpx/">
            <visugpx:node>7</visugpx:node>
            </visugpx:TrkExtension>
        </extensions>
      </trkpt>
      <trkpt lat="48.77851" lon="-0.40246">
        <ele>236.5</ele>
        <time>2025-04-26T07:49:49.891Z</time>
      </trkpt>
      <trkpt lat="48.77846" lon="-0.40245">
        <ele>236.7</ele>
        <time>2025-04-26T07:49:54.249Z</time>
      </trkpt>
      <trkpt lat="48.77841" lon="-0.40246">
        <ele>236.9</ele>
        <time>2025-04-26T07:49:58.985Z</time>
      </trkpt>
      <trkpt lat="48.77835" lon="-0.40246">
        <ele>237.1</ele>
        <time>2025-04-26T07:50:03.721Z</time>
      </trkpt>
      <trkpt lat="48.77829" lon="-0.40247">
        <ele>237.3</ele>
        <time>2025-04-26T07:50:08.578Z</time>
      </trkpt>
      <trkpt lat="48.77824" lon="-0.40247">
        <ele>237.5</ele>
        <time>2025-04-26T07:50:13.435Z</time>
      </trkpt>
      <trkpt lat="48.77818" lon="-0.40248">
        <ele>237.7</ele>
        <time>2025-04-26T07:50:18.293Z</time>
      </trkpt>
      <trkpt lat="48.77812" lon="-0.40248">
        <ele>237.8</ele>
        <time>2025-04-26T07:50:23.151Z</time>
      </trkpt>
      <trkpt lat="48.77805" lon="-0.4025">
        <ele>238.1</ele>
        <time>2025-04-26T07:50:29.586Z</time>
      </trkpt>
      <trkpt lat="48.77797" lon="-0.40251">
        <ele>238.3</ele>
        <time>2025-04-26T07:50:36.021Z</time>
      </trkpt>
      <trkpt lat="48.7779" lon="-0.40255">
        <ele>238.4</ele>
        <time>2025-04-26T07:50:42.401Z</time>
      </trkpt>
      <trkpt lat="48.77782" lon="-0.4026">
        <ele>238.5</ele>
        <time>2025-04-26T07:50:48.781Z</time>
      </trkpt>
      <trkpt lat="48.77775" lon="-0.40264">
        <ele>238.6</ele>
        <time>2025-04-26T07:50:55.161Z</time>
      </trkpt>
      <trkpt lat="48.77767" lon="-0.40268">
        <ele>238.7</ele>
        <time>2025-04-26T07:51:01.543Z</time>
      </trkpt>
      <trkpt lat="48.7776" lon="-0.40267">
        <ele>239</ele>
        <time>2025-04-26T07:51:07.886Z</time>
      </trkpt>
      <trkpt lat="48.77753" lon="-0.40265">
        <ele>239.4</ele>
        <time>2025-04-26T07:51:14.229Z</time>
      </trkpt>
      <trkpt lat="48.77747" lon="-0.40264">
        <ele>239.5</ele>
        <time>2025-04-26T07:51:18.977Z</time>
      </trkpt>
      <trkpt lat="48.77741" lon="-0.40263">
        <ele>239.5</ele>
        <time>2025-04-26T07:51:23.725Z</time>
      </trkpt>
      <trkpt lat="48.77735" lon="-0.40262">
        <ele>239.6</ele>
        <time>2025-04-26T07:51:28.473Z</time>
      </trkpt>
      <trkpt lat="48.77729" lon="-0.40261">
        <ele>239.6</ele>
        <time>2025-04-26T07:51:33.221Z</time>
      </trkpt>
      <trkpt lat="48.77724" lon="-0.4026">
        <ele>239.6</ele>
        <time>2025-04-26T07:51:37.563Z</time>
      </trkpt>
      <trkpt lat="48.77718" lon="-0.40259">
        <ele>239.7</ele>
        <time>2025-04-26T07:51:41.905Z</time>
      </trkpt>
      <trkpt lat="48.77713" lon="-0.40258">
        <ele>239.7</ele>
        <time>2025-04-26T07:51:46.247Z</time>
      </trkpt>
      <trkpt lat="48.77708" lon="-0.40257">
        <ele>239.8</ele>
        <time>2025-04-26T07:51:50.589Z</time>
      </trkpt>
      <trkpt lat="48.77702" lon="-0.40255">
        <ele>239.8</ele>
        <time>2025-04-26T07:51:54.931Z</time>
      </trkpt>
      <trkpt lat="48.77697" lon="-0.40254">
        <ele>239.8</ele>
        <time>2025-04-26T07:51:59.274Z</time>
      </trkpt>
      <trkpt lat="48.77691" lon="-0.40253">
        <ele>240</ele>
        <time>2025-04-26T07:52:03.617Z</time>
      </trkpt>
      <trkpt lat="48.77686" lon="-0.40252">
        <ele>240.2</ele>
        <time>2025-04-26T07:52:07.961Z</time>
      </trkpt>
      <trkpt lat="48.7768" lon="-0.40251">
        <ele>240.5</ele>
        <time>2025-04-26T07:52:13.543Z</time>
      </trkpt>
      <trkpt lat="48.77673" lon="-0.4025">
        <ele>240.8</ele>
        <time>2025-04-26T07:52:19.125Z</time>
      </trkpt>
      <trkpt lat="48.77667" lon="-0.40249">
        <ele>241</ele>
        <time>2025-04-26T07:52:24.707Z</time>
      </trkpt>
      <trkpt lat="48.7766" lon="-0.40248">
        <ele>241.1</ele>
        <time>2025-04-26T07:52:30.290Z</time>
      </trkpt>
      <trkpt lat="48.77654" lon="-0.40246">
        <ele>241.1</ele>
        <time>2025-04-26T07:52:35.494Z</time>
      </trkpt>
      <trkpt lat="48.77647" lon="-0.40244">
        <ele>241.2</ele>
        <time>2025-04-26T07:52:40.700Z</time>
      </trkpt>
      <trkpt lat="48.77642" lon="-0.4024">
        <ele>241.4</ele>
        <time>2025-04-26T07:52:45.749Z</time>
      </trkpt>
      <trkpt lat="48.77636" lon="-0.40236">
        <ele>241.5</ele>
        <time>2025-04-26T07:52:50.799Z</time>
        <extensions>
          <visugpx:TrkExtension xmlns:visugpx="https://www.visugpx.com/editgpx/">
            <visugpx:node>8</visugpx:node>
            </visugpx:TrkExtension>
        </extensions>
      </trkpt>
      <trkpt lat="48.77632" lon="-0.40234">
        <ele>241.5</ele>
        <time>2025-04-26T07:52:54.028Z</time>
      </trkpt>
      <trkpt lat="48.77627" lon="-0.40231">
        <ele>241.5</ele>
        <time>2025-04-26T07:52:58.243Z</time>
      </trkpt>
      <trkpt lat="48.77622" lon="-0.40228">
        <ele>241.7</ele>
        <time>2025-04-26T07:53:02.459Z</time>
      </trkpt>
      <trkpt lat="48.77617" lon="-0.40225">
        <ele>241.8</ele>
        <time>2025-04-26T07:53:06.675Z</time>
      </trkpt>
      <trkpt lat="48.77613" lon="-0.40222">
        <ele>242</ele>
        <time>2025-04-26T07:53:10.891Z</time>
      </trkpt>
      <trkpt lat="48.77608" lon="-0.40219">
        <ele>242</ele>
        <time>2025-04-26T07:53:15.107Z</time>
      </trkpt>
      <trkpt lat="48.77603" lon="-0.40216">
        <ele>242</ele>
        <time>2025-04-26T07:53:19.323Z</time>
      </trkpt>
      <trkpt lat="48.77598" lon="-0.40213">
        <ele>242</ele>
        <time>2025-04-26T07:53:23.539Z</time>
      </trkpt>
      <trkpt lat="48.77593" lon="-0.4021">
        <ele>242.1</ele>
        <time>2025-04-26T07:53:27.756Z</time>
      </trkpt>
      <trkpt lat="48.77587" lon="-0.4021">
        <ele>242</ele>
        <time>2025-04-26T07:53:32.128Z</time>
      </trkpt>
      <trkpt lat="48.77581" lon="-0.4021">
        <ele>241.9</ele>
        <time>2025-04-26T07:53:36.501Z</time>
      </trkpt>
      <trkpt lat="48.77576" lon="-0.40212">
        <ele>241.8</ele>
        <time>2025-04-26T07:53:40.558Z</time>
      </trkpt>
      <trkpt lat="48.7757" lon="-0.40213">
        <ele>241.7</ele>
        <time>2025-04-26T07:53:44.616Z</time>
      </trkpt>
      <trkpt lat="48.77564" lon="-0.40214">
        <ele>241.6</ele>
        <time>2025-04-26T07:53:48.807Z</time>
      </trkpt>
      <trkpt lat="48.77559" lon="-0.40215">
        <ele>241.5</ele>
        <time>2025-04-26T07:53:52.998Z</time>
      </trkpt>
      <trkpt lat="48.77553" lon="-0.40216">
        <ele>241.5</ele>
        <time>2025-04-26T07:53:57.189Z</time>
      </trkpt>
      <trkpt lat="48.77548" lon="-0.40217">
        <ele>241.4</ele>
        <time>2025-04-26T07:54:01.380Z</time>
      </trkpt>
      <trkpt lat="48.77542" lon="-0.40217">
        <ele>241.3</ele>
        <time>2025-04-26T07:54:05.571Z</time>
      </trkpt>
      <trkpt lat="48.77536" lon="-0.40218">
        <ele>241.3</ele>
        <time>2025-04-26T07:54:09.762Z</time>
      </trkpt>
      <trkpt lat="48.77531" lon="-0.40219">
        <ele>241.2</ele>
        <time>2025-04-26T07:54:13.954Z</time>
      </trkpt>
      <trkpt lat="48.77525" lon="-0.4022">
        <ele>241.2</ele>
        <time>2025-04-26T07:54:18.146Z</time>
      </trkpt>
      <trkpt lat="48.77519" lon="-0.40221">
        <ele>241.1</ele>
        <time>2025-04-26T07:54:22.669Z</time>
      </trkpt>
      <trkpt lat="48.77513" lon="-0.40221">
        <ele>241.1</ele>
        <time>2025-04-26T07:54:27.192Z</time>
      </trkpt>
      <trkpt lat="48.77507" lon="-0.40222">
        <ele>241</ele>
        <time>2025-04-26T07:54:31.716Z</time>
      </trkpt>
      <trkpt lat="48.77501" lon="-0.40223">
        <ele>241</ele>
        <time>2025-04-26T07:54:36.240Z</time>
      </trkpt>
      <trkpt lat="48.77495" lon="-0.40223">
        <ele>241</ele>
        <time>2025-04-26T07:54:40.764Z</time>
      </trkpt>
      <trkpt lat="48.77489" lon="-0.40224">
        <ele>240.9</ele>
        <time>2025-04-26T07:54:45.288Z</time>
      </trkpt>
      <trkpt lat="48.77483" lon="-0.40224">
        <ele>240.9</ele>
        <time>2025-04-26T07:54:49.812Z</time>
      </trkpt>
      <trkpt lat="48.77477" lon="-0.40225">
        <ele>240.9</ele>
        <time>2025-04-26T07:54:54.336Z</time>
      </trkpt>
      <trkpt lat="48.77472" lon="-0.4022">
        <ele>241.1</ele>
        <time>2025-04-26T07:54:59.117Z</time>
      </trkpt>
      <trkpt lat="48.77467" lon="-0.40215">
        <ele>241.1</ele>
        <time>2025-04-26T07:55:03.898Z</time>
      </trkpt>
      <trkpt lat="48.77462" lon="-0.40209">
        <ele>241.1</ele>
        <time>2025-04-26T07:55:08.680Z</time>
      </trkpt>
      <trkpt lat="48.77457" lon="-0.40204">
        <ele>241.1</ele>
        <time>2025-04-26T07:55:13.463Z</time>
      </trkpt>
      <trkpt lat="48.7745" lon="-0.40199">
        <ele>241</ele>
        <time>2025-04-26T07:55:19.627Z</time>
      </trkpt>
      <trkpt lat="48.77442" lon="-0.40194">
        <ele>241</ele>
        <time>2025-04-26T07:55:25.792Z</time>
      </trkpt>
      <trkpt lat="48.77437" lon="-0.4019">
        <ele>241.2</ele>
        <time>2025-04-26T07:55:30.636Z</time>
      </trkpt>
      <trkpt lat="48.77432" lon="-0.40183">
        <ele>241.4</ele>
        <time>2025-04-26T07:55:36.941Z</time>
      </trkpt>
      <trkpt lat="48.77426" lon="-0.40175">
        <ele>241.7</ele>
        <time>2025-04-26T07:55:43.246Z</time>
      </trkpt>
      <trkpt lat="48.77421" lon="-0.40168">
        <ele>242</ele>
        <time>2025-04-26T07:55:49.551Z</time>
      </trkpt>
      <trkpt lat="48.77415" lon="-0.4016">
        <ele>242.2</ele>
        <time>2025-04-26T07:55:55.857Z</time>
        <extensions>
          <visugpx:TrkExtension xmlns:visugpx="https://www.visugpx.com/editgpx/">
            <visugpx:node>9</visugpx:node>
            </visugpx:TrkExtension>
        </extensions>
      </trkpt>
      <trkpt lat="48.77413" lon="-0.40151">
        <ele>242.4</ele>
        <time>2025-04-26T07:56:01.538Z</time>
      </trkpt>
      <trkpt lat="48.77411" lon="-0.40141">
        <ele>242.7</ele>
        <time>2025-04-26T07:56:07.220Z</time>
      </trkpt>
      <trkpt lat="48.77411" lon="-0.4013">
        <ele>243.1</ele>
        <time>2025-04-26T07:56:13.661Z</time>
      </trkpt>
      <trkpt lat="48.7741" lon="-0.4012">
        <ele>243.5</ele>
        <time>2025-04-26T07:56:20.102Z</time>
      </trkpt>
      <trkpt lat="48.7741" lon="-0.40109">
        <ele>243.8</ele>
        <time>2025-04-26T07:56:26.543Z</time>
      </trkpt>
      <trkpt lat="48.77409" lon="-0.40098">
        <ele>244.2</ele>
        <time>2025-04-26T07:56:32.986Z</time>
      </trkpt>
      <trkpt lat="48.77409" lon="-0.40089">
        <ele>244.5</ele>
        <time>2025-04-26T07:56:38.400Z</time>
      </trkpt>
      <trkpt lat="48.77409" lon="-0.4008">
        <ele>244.8</ele>
        <time>2025-04-26T07:56:43.815Z</time>
      </trkpt>
      <trkpt lat="48.77409" lon="-0.40071">
        <ele>245.2</ele>
        <time>2025-04-26T07:56:49.230Z</time>
      </trkpt>
      <trkpt lat="48.77409" lon="-0.40062">
        <ele>245.5</ele>
        <time>2025-04-26T07:56:54.645Z</time>
        <extensions>
          <visugpx:TrkExtension xmlns:visugpx="https://www.visugpx.com/editgpx/">
            <visugpx:node>10</visugpx:node>
            </visugpx:TrkExtension>
        </extensions>
      </trkpt>
      <trkpt lat="48.77409" lon="-0.40064">
        <ele>245.4</ele>
        <time>2025-04-26T07:56:55.529Z</time>
      </trkpt>
      <trkpt lat="48.77415" lon="-0.40067">
        <ele>245.5</ele>
        <time>2025-04-26T07:57:00.130Z</time>
      </trkpt>
      <trkpt lat="48.7742" lon="-0.4007">
        <ele>245.5</ele>
        <time>2025-04-26T07:57:04.732Z</time>
      </trkpt>
      <trkpt lat="48.77421" lon="-0.40062">
        <ele>245.8</ele>
        <time>2025-04-26T07:57:09.299Z</time>
      </trkpt>
      <trkpt lat="48.77421" lon="-0.40054">
        <ele>246</ele>
        <time>2025-04-26T07:57:13.866Z</time>
      </trkpt>
      <trkpt lat="48.77422" lon="-0.40046">
        <ele>246.1</ele>
        <time>2025-04-26T07:57:18.433Z</time>
      </trkpt>
      <trkpt lat="48.77422" lon="-0.40038">
        <ele>246.1</ele>
        <time>2025-04-26T07:57:23.000Z</time>
      </trkpt>
      <trkpt lat="48.77423" lon="-0.40029">
        <ele>246.2</ele>
        <time>2025-04-26T07:57:27.567Z</time>
      </trkpt>
      <trkpt lat="48.77423" lon="-0.40021">
        <ele>246.4</ele>
        <time>2025-04-26T07:57:32.134Z</time>
      </trkpt>
      <trkpt lat="48.77424" lon="-0.40013">
        <ele>246.6</ele>
        <time>2025-04-26T07:57:36.701Z</time>
      </trkpt>
      <trkpt lat="48.77424" lon="-0.40005">
        <ele>246.9</ele>
        <time>2025-04-26T07:57:41.269Z</time>
      </trkpt>
      <trkpt lat="48.77422" lon="-0.39994">
        <ele>247</ele>
        <time>2025-04-26T07:57:47.268Z</time>
      </trkpt>
      <trkpt lat="48.7742" lon="-0.39983">
        <ele>247</ele>
        <time>2025-04-26T07:57:53.267Z</time>
      </trkpt>
      <trkpt lat="48.77417" lon="-0.39971">
        <ele>247</ele>
        <time>2025-04-26T07:57:59.267Z</time>
      </trkpt>
      <trkpt lat="48.77415" lon="-0.3996">
        <ele>247</ele>
        <time>2025-04-26T07:58:05.268Z</time>
      </trkpt>
      <trkpt lat="48.77411" lon="-0.39955">
        <ele>247</ele>
        <time>2025-04-26T07:58:09.406Z</time>
      </trkpt>
      <trkpt lat="48.77407" lon="-0.39949">
        <ele>247</ele>
        <time>2025-04-26T07:58:13.544Z</time>
      </trkpt>
      <trkpt lat="48.77403" lon="-0.39944">
        <ele>247</ele>
        <time>2025-04-26T07:58:17.682Z</time>
      </trkpt>
      <trkpt lat="48.77399" lon="-0.39938">
        <ele>247</ele>
        <time>2025-04-26T07:58:21.822Z</time>
      </trkpt>
      <trkpt lat="48.77392" lon="-0.39935">
        <ele>247</ele>
        <time>2025-04-26T07:58:27.539Z</time>
      </trkpt>
      <trkpt lat="48.77384" lon="-0.39932">
        <ele>246.8</ele>
        <time>2025-04-26T07:58:33.257Z</time>
      </trkpt>
      <trkpt lat="48.7738" lon="-0.39927">
        <ele>246.7</ele>
        <time>2025-04-26T07:58:37.004Z</time>
        <extensions>
          <visugpx:TrkExtension xmlns:visugpx="https://www.visugpx.com/editgpx/">
            <visugpx:node>11</visugpx:node>
            </visugpx:TrkExtension>
        </extensions>
      </trkpt>
      <trkpt lat="48.77384" lon="-0.39932">
        <ele>246.8</ele>
        <time>2025-04-26T07:58:41.223Z</time>
      </trkpt>
      <trkpt lat="48.77381" lon="-0.39936">
        <ele>246.7</ele>
        <time>2025-04-26T07:58:44.474Z</time>
      </trkpt>
      <trkpt lat="48.77377" lon="-0.39941">
        <ele>246.6</ele>
        <time>2025-04-26T07:58:47.725Z</time>
      </trkpt>
      <trkpt lat="48.77374" lon="-0.39945">
        <ele>246.4</ele>
        <time>2025-04-26T07:58:50.976Z</time>
      </trkpt>
      <trkpt lat="48.7737" lon="-0.3995">
        <ele>246.3</ele>
        <time>2025-04-26T07:58:54.227Z</time>
      </trkpt>
      <trkpt lat="48.77367" lon="-0.39954">
        <ele>246.2</ele>
        <time>2025-04-26T07:58:57.479Z</time>
      </trkpt>
      <trkpt lat="48.77363" lon="-0.39958">
        <ele>246.1</ele>
        <time>2025-04-26T07:59:00.731Z</time>
      </trkpt>
      <trkpt lat="48.7736" lon="-0.39963">
        <ele>246</ele>
        <time>2025-04-26T07:59:03.983Z</time>
      </trkpt>
      <trkpt lat="48.77356" lon="-0.39967">
        <ele>246</ele>
        <time>2025-04-26T07:59:07.236Z</time>
      </trkpt>
      <trkpt lat="48.77351" lon="-0.39971">
        <ele>246</ele>
        <time>2025-04-26T07:59:11.512Z</time>
      </trkpt>
      <trkpt lat="48.77346" lon="-0.39975">
        <ele>246</ele>
        <time>2025-04-26T07:59:15.788Z</time>
      </trkpt>
      <trkpt lat="48.7734" lon="-0.39978">
        <ele>245.8</ele>
        <time>2025-04-26T07:59:20.065Z</time>
      </trkpt>
      <trkpt lat="48.77335" lon="-0.39982">
        <ele>245.7</ele>
        <time>2025-04-26T07:59:24.343Z</time>
      </trkpt>
      <trkpt lat="48.7733" lon="-0.39985">
        <ele>245.5</ele>
        <time>2025-04-26T07:59:28.005Z</time>
      </trkpt>
      <trkpt lat="48.77326" lon="-0.39989">
        <ele>245.3</ele>
        <time>2025-04-26T07:59:31.667Z</time>
      </trkpt>
      <trkpt lat="48.77321" lon="-0.39992">
        <ele>245.2</ele>
        <time>2025-04-26T07:59:35.329Z</time>
      </trkpt>
      <trkpt lat="48.77316" lon="-0.39996">
        <ele>245.1</ele>
        <time>2025-04-26T07:59:38.991Z</time>
      </trkpt>
      <trkpt lat="48.77311" lon="-0.39999">
        <ele>245</ele>
        <time>2025-04-26T07:59:42.653Z</time>
      </trkpt>
      <trkpt lat="48.77307" lon="-0.40002">
        <ele>244.9</ele>
        <time>2025-04-26T07:59:46.315Z</time>
      </trkpt>
      <trkpt lat="48.77302" lon="-0.40006">
        <ele>244.7</ele>
        <time>2025-04-26T07:59:49.977Z</time>
      </trkpt>
      <trkpt lat="48.77297" lon="-0.40009">
        <ele>244.4</ele>
        <time>2025-04-26T07:59:53.640Z</time>
      </trkpt>
      <trkpt lat="48.77293" lon="-0.40017">
        <ele>243.9</ele>
        <time>2025-04-26T07:59:58.124Z</time>
      </trkpt>
      <trkpt lat="48.77288" lon="-0.40024">
        <ele>243.5</ele>
        <time>2025-04-26T08:00:02.609Z</time>
      </trkpt>
      <trkpt lat="48.77286" lon="-0.4003">
        <ele>243.2</ele>
        <time>2025-04-26T08:00:05.747Z</time>
      </trkpt>
      <trkpt lat="48.77283" lon="-0.40036">
        <ele>242.9</ele>
        <time>2025-04-26T08:00:08.885Z</time>
      </trkpt>
      <trkpt lat="48.77281" lon="-0.40042">
        <ele>242.6</ele>
        <time>2025-04-26T08:00:12.023Z</time>
      </trkpt>
      <trkpt lat="48.77278" lon="-0.40048">
        <ele>242.3</ele>
        <time>2025-04-26T08:00:15.163Z</time>
      </trkpt>
      <trkpt lat="48.77273" lon="-0.40057">
        <ele>241.9</ele>
        <time>2025-04-26T08:00:20.347Z</time>
      </trkpt>
      <trkpt lat="48.77269" lon="-0.40067">
        <ele>241.6</ele>
        <time>2025-04-26T08:00:25.531Z</time>
      </trkpt>
      <trkpt lat="48.77264" lon="-0.40076">
        <ele>241.3</ele>
        <time>2025-04-26T08:00:30.715Z</time>
      </trkpt>
      <trkpt lat="48.77259" lon="-0.40085">
        <ele>240.9</ele>
        <time>2025-04-26T08:00:35.901Z</time>
      </trkpt>
      <trkpt lat="48.77253" lon="-0.40093">
        <ele>240.6</ele>
        <time>2025-04-26T08:00:41.458Z</time>
      </trkpt>
      <trkpt lat="48.77247" lon="-0.40102">
        <ele>240.2</ele>
        <time>2025-04-26T08:00:47.015Z</time>
      </trkpt>
      <trkpt lat="48.7724" lon="-0.4011">
        <ele>239.7</ele>
        <time>2025-04-26T08:00:52.572Z</time>
      </trkpt>
      <trkpt lat="48.77234" lon="-0.40118">
        <ele>239.2</ele>
        <time>2025-04-26T08:00:58.131Z</time>
      </trkpt>
      <trkpt lat="48.77229" lon="-0.40124">
        <ele>238.8</ele>
        <time>2025-04-26T08:01:02.410Z</time>
      </trkpt>
      <trkpt lat="48.77224" lon="-0.40129">
        <ele>238.4</ele>
        <time>2025-04-26T08:01:06.690Z</time>
      </trkpt>
      <trkpt lat="48.77218" lon="-0.40135">
        <ele>238.2</ele>
        <time>2025-04-26T08:01:10.970Z</time>
      </trkpt>
      <trkpt lat="48.77213" lon="-0.4014">
        <ele>237.9</ele>
        <time>2025-04-26T08:01:15.251Z</time>
      </trkpt>
      <trkpt lat="48.77209" lon="-0.40146">
        <ele>237.6</ele>
        <time>2025-04-26T08:01:18.729Z</time>
      </trkpt>
      <trkpt lat="48.77206" lon="-0.40151">
        <ele>237.3</ele>
        <time>2025-04-26T08:01:22.207Z</time>
      </trkpt>
      <trkpt lat="48.77202" lon="-0.40157">
        <ele>236.9</ele>
        <time>2025-04-26T08:01:25.685Z</time>
      </trkpt>
      <trkpt lat="48.77199" lon="-0.40163">
        <ele>236.4</ele>
        <time>2025-04-26T08:01:29.163Z</time>
      </trkpt>
      <trkpt lat="48.77195" lon="-0.40168">
        <ele>235.9</ele>
        <time>2025-04-26T08:01:32.641Z</time>
      </trkpt>
      <trkpt lat="48.77191" lon="-0.40174">
        <ele>235.5</ele>
        <time>2025-04-26T08:01:36.120Z</time>
      </trkpt>
      <trkpt lat="48.77188" lon="-0.40179">
        <ele>235.1</ele>
        <time>2025-04-26T08:01:39.599Z</time>
      </trkpt>
      <trkpt lat="48.77184" lon="-0.40185">
        <ele>234.7</ele>
        <time>2025-04-26T08:01:43.079Z</time>
      </trkpt>
      <trkpt lat="48.77178" lon="-0.40193">
        <ele>234.1</ele>
        <time>2025-04-26T08:01:48.437Z</time>
      </trkpt>
      <trkpt lat="48.77172" lon="-0.40201">
        <ele>233.3</ele>
        <time>2025-04-26T08:01:53.796Z</time>
      </trkpt>
      <trkpt lat="48.77167" lon="-0.40205">
        <ele>232.9</ele>
        <time>2025-04-26T08:01:57.587Z</time>
      </trkpt>
      <trkpt lat="48.77162" lon="-0.40209">
        <ele>232.4</ele>
        <time>2025-04-26T08:02:01.380Z</time>
      </trkpt>
      <trkpt lat="48.77164" lon="-0.40213">
        <ele>232</ele>
        <time>2025-04-26T08:02:03.600Z</time>
      </trkpt>
      <trkpt lat="48.77164" lon="-0.40212">
        <ele>232.1</ele>
        <time>2025-04-26T08:02:04.445Z</time>
        <extensions>
          <visugpx:TrkExtension xmlns:visugpx="https://www.visugpx.com/editgpx/">
            <visugpx:node>12</visugpx:node>
            </visugpx:TrkExtension>
        </extensions>
      </trkpt>
      <trkpt lat="48.7716" lon="-0.40209">
        <ele>232.5</ele>
        <time>2025-04-26T08:02:09.050Z</time>
      </trkpt>
      <trkpt lat="48.77156" lon="-0.40205">
        <ele>232.9</ele>
        <time>2025-04-26T08:02:13.655Z</time>
      </trkpt>
      <trkpt lat="48.77152" lon="-0.40202">
        <ele>233.2</ele>
        <time>2025-04-26T08:02:18.261Z</time>
      </trkpt>
      <trkpt lat="48.77148" lon="-0.40198">
        <ele>233.6</ele>
        <time>2025-04-26T08:02:22.868Z</time>
      </trkpt>
      <trkpt lat="48.77144" lon="-0.40191">
        <ele>234.3</ele>
        <time>2025-04-26T08:02:28.949Z</time>
      </trkpt>
      <trkpt lat="48.77141" lon="-0.40184">
        <ele>234.8</ele>
        <time>2025-04-26T08:02:35.030Z</time>
      </trkpt>
      <trkpt lat="48.77137" lon="-0.40176">
        <ele>235.2</ele>
        <time>2025-04-26T08:02:41.111Z</time>
      </trkpt>
      <trkpt lat="48.77133" lon="-0.40169">
        <ele>235.6</ele>
        <time>2025-04-26T08:02:47.194Z</time>
      </trkpt>
      <trkpt lat="48.7713" lon="-0.40163">
        <ele>235.9</ele>
        <time>2025-04-26T08:02:52.066Z</time>
      </trkpt>
      <trkpt lat="48.77127" lon="-0.40157">
        <ele>236.1</ele>
        <time>2025-04-26T08:02:56.938Z</time>
      </trkpt>
      <trkpt lat="48.77124" lon="-0.4015">
        <ele>236.4</ele>
        <time>2025-04-26T08:03:01.810Z</time>
      </trkpt>
      <trkpt lat="48.77121" lon="-0.40144">
        <ele>236.7</ele>
        <time>2025-04-26T08:03:06.682Z</time>
      </trkpt>
      <trkpt lat="48.77118" lon="-0.40138">
        <ele>237.1</ele>
        <time>2025-04-26T08:03:11.554Z</time>
      </trkpt>
      <trkpt lat="48.77115" lon="-0.40132">
        <ele>237.5</ele>
        <time>2025-04-26T08:03:16.426Z</time>
      </trkpt>
      <trkpt lat="48.77112" lon="-0.40125">
        <ele>238</ele>
        <time>2025-04-26T08:03:21.298Z</time>
      </trkpt>
      <trkpt lat="48.77109" lon="-0.40119">
        <ele>238.4</ele>
        <time>2025-04-26T08:03:26.171Z</time>
      </trkpt>
      <trkpt lat="48.77103" lon="-0.4011">
        <ele>239.1</ele>
        <time>2025-04-26T08:03:33.911Z</time>
      </trkpt>
      <trkpt lat="48.77097" lon="-0.40101">
        <ele>239.5</ele>
        <time>2025-04-26T08:03:41.651Z</time>
      </trkpt>
      <trkpt lat="48.77091" lon="-0.40092">
        <ele>240.2</ele>
        <time>2025-04-26T08:03:49.392Z</time>
      </trkpt>
      <trkpt lat="48.77085" lon="-0.40083">
        <ele>241</ele>
        <time>2025-04-26T08:03:57.133Z</time>
      </trkpt>
      <trkpt lat="48.77079" lon="-0.40074">
        <ele>241.3</ele>
        <time>2025-04-26T08:04:04.874Z</time>
      </trkpt>
      <trkpt lat="48.77073" lon="-0.40065">
        <ele>241.7</ele>
        <time>2025-04-26T08:04:12.615Z</time>
      </trkpt>
      <trkpt lat="48.77067" lon="-0.40056">
        <ele>242</ele>
        <time>2025-04-26T08:04:20.356Z</time>
      </trkpt>
      <trkpt lat="48.77061" lon="-0.40047">
        <ele>242.2</ele>
        <time>2025-04-26T08:04:28.098Z</time>
      </trkpt>
      <trkpt lat="48.77056" lon="-0.40038">
        <ele>242.6</ele>
        <time>2025-04-26T08:04:34.477Z</time>
      </trkpt>
      <trkpt lat="48.7705" lon="-0.40029">
        <ele>242.8</ele>
        <time>2025-04-26T08:04:40.856Z</time>
      </trkpt>
      <trkpt lat="48.77045" lon="-0.4002">
        <ele>242.7</ele>
        <time>2025-04-26T08:04:47.235Z</time>
      </trkpt>
      <trkpt lat="48.7704" lon="-0.40011">
        <ele>242.8</ele>
        <time>2025-04-26T08:04:53.615Z</time>
      </trkpt>
      <trkpt lat="48.77034" lon="-0.40002">
        <ele>242.9</ele>
        <time>2025-04-26T08:04:59.995Z</time>
      </trkpt>
      <trkpt lat="48.77029" lon="-0.39993">
        <ele>243</ele>
        <time>2025-04-26T08:05:06.375Z</time>
      </trkpt>
      <trkpt lat="48.77023" lon="-0.39984">
        <ele>243</ele>
        <time>2025-04-26T08:05:12.755Z</time>
      </trkpt>
      <trkpt lat="48.77018" lon="-0.39975">
        <ele>243</ele>
        <time>2025-04-26T08:05:19.136Z</time>
      </trkpt>
      <trkpt lat="48.77012" lon="-0.39966">
        <ele>243</ele>
        <time>2025-04-26T08:05:25.537Z</time>
      </trkpt>
      <trkpt lat="48.77006" lon="-0.39957">
        <ele>243</ele>
        <time>2025-04-26T08:05:31.938Z</time>
      </trkpt>
      <trkpt lat="48.77" lon="-0.39948">
        <ele>243</ele>
        <time>2025-04-26T08:05:38.339Z</time>
      </trkpt>
      <trkpt lat="48.76995" lon="-0.39939">
        <ele>243</ele>
        <time>2025-04-26T08:05:44.740Z</time>
      </trkpt>
      <trkpt lat="48.76989" lon="-0.3993">
        <ele>243</ele>
        <time>2025-04-26T08:05:51.141Z</time>
      </trkpt>
      <trkpt lat="48.76983" lon="-0.39921">
        <ele>243</ele>
        <time>2025-04-26T08:05:57.542Z</time>
      </trkpt>
      <trkpt lat="48.76977" lon="-0.39912">
        <ele>243</ele>
        <time>2025-04-26T08:06:03.943Z</time>
      </trkpt>
      <trkpt lat="48.76971" lon="-0.39903">
        <ele>243</ele>
        <time>2025-04-26T08:06:10.345Z</time>
      </trkpt>
      <trkpt lat="48.76972" lon="-0.39896">
        <ele>243</ele>
        <time>2025-04-26T08:06:14.590Z</time>
      </trkpt>
      <trkpt lat="48.76974" lon="-0.39888">
        <ele>243.1</ele>
        <time>2025-04-26T08:06:18.835Z</time>
      </trkpt>
      <trkpt lat="48.76975" lon="-0.39881">
        <ele>243.4</ele>
        <time>2025-04-26T08:06:23.080Z</time>
      </trkpt>
      <trkpt lat="48.76977" lon="-0.39873">
        <ele>243.6</ele>
        <time>2025-04-26T08:06:27.325Z</time>
      </trkpt>
      <trkpt lat="48.76978" lon="-0.39866">
        <ele>243.9</ele>
        <time>2025-04-26T08:06:31.570Z</time>
      </trkpt>
      <trkpt lat="48.76979" lon="-0.39858">
        <ele>244</ele>
        <time>2025-04-26T08:06:35.815Z</time>
      </trkpt>
      <trkpt lat="48.76981" lon="-0.39851">
        <ele>244</ele>
        <time>2025-04-26T08:06:40.060Z</time>
      </trkpt>
      <trkpt lat="48.76982" lon="-0.39843">
        <ele>244</ele>
        <time>2025-04-26T08:06:44.305Z</time>
      </trkpt>
      <trkpt lat="48.76983" lon="-0.39836">
        <ele>244</ele>
        <time>2025-04-26T08:06:48.109Z</time>
      </trkpt>
      <trkpt lat="48.76984" lon="-0.39828">
        <ele>244</ele>
        <time>2025-04-26T08:06:51.914Z</time>
      </trkpt>
      <trkpt lat="48.76985" lon="-0.39821">
        <ele>244</ele>
        <time>2025-04-26T08:06:55.719Z</time>
      </trkpt>
      <trkpt lat="48.76986" lon="-0.39814">
        <ele>244</ele>
        <time>2025-04-26T08:06:59.524Z</time>
      </trkpt>
      <trkpt lat="48.76987" lon="-0.39806">
        <ele>244</ele>
        <time>2025-04-26T08:07:03.329Z</time>
      </trkpt>
      <trkpt lat="48.76988" lon="-0.39799">
        <ele>244</ele>
        <time>2025-04-26T08:07:07.134Z</time>
      </trkpt>
      <trkpt lat="48.76989" lon="-0.39791">
        <ele>244</ele>
        <time>2025-04-26T08:07:10.939Z</time>
      </trkpt>
      <trkpt lat="48.7699" lon="-0.39784">
        <ele>244</ele>
        <time>2025-04-26T08:07:14.744Z</time>
      </trkpt>
      <trkpt lat="48.76986" lon="-0.39779">
        <ele>244</ele>
        <time>2025-04-26T08:07:18.717Z</time>
      </trkpt>
      <trkpt lat="48.76982" lon="-0.39774">
        <ele>244</ele>
        <time>2025-04-26T08:07:22.690Z</time>
      </trkpt>
      <trkpt lat="48.76978" lon="-0.39769">
        <ele>244.1</ele>
        <time>2025-04-26T08:07:26.663Z</time>
      </trkpt>
      <trkpt lat="48.76974" lon="-0.39764">
        <ele>244</ele>
        <time>2025-04-26T08:07:30.638Z</time>
      </trkpt>
      <trkpt lat="48.76969" lon="-0.39756">
        <ele>244</ele>
        <time>2025-04-26T08:07:36.657Z</time>
      </trkpt>
      <trkpt lat="48.76963" lon="-0.39747">
        <ele>244</ele>
        <time>2025-04-26T08:07:42.676Z</time>
      </trkpt>
      <trkpt lat="48.76958" lon="-0.39739">
        <ele>244</ele>
        <time>2025-04-26T08:07:48.695Z</time>
      </trkpt>
      <trkpt lat="48.76952" lon="-0.3973">
        <ele>244</ele>
        <time>2025-04-26T08:07:54.715Z</time>
      </trkpt>
      <trkpt lat="48.76947" lon="-0.39724">
        <ele>244</ele>
        <time>2025-04-26T08:07:59.872Z</time>
      </trkpt>
      <trkpt lat="48.76941" lon="-0.39717">
        <ele>244</ele>
        <time>2025-04-26T08:08:05.029Z</time>
      </trkpt>
      <trkpt lat="48.76936" lon="-0.39711">
        <ele>244</ele>
        <time>2025-04-26T08:08:10.186Z</time>
      </trkpt>
      <trkpt lat="48.7693" lon="-0.39704">
        <ele>244</ele>
        <time>2025-04-26T08:08:15.343Z</time>
      </trkpt>
      <trkpt lat="48.76925" lon="-0.39698">
        <ele>244</ele>
        <time>2025-04-26T08:08:20.500Z</time>
      </trkpt>
      <trkpt lat="48.76919" lon="-0.39691">
        <ele>244</ele>
        <time>2025-04-26T08:08:25.657Z</time>
      </trkpt>
      <trkpt lat="48.76914" lon="-0.39685">
        <ele>243.9</ele>
        <time>2025-04-26T08:08:30.814Z</time>
      </trkpt>
      <trkpt lat="48.76909" lon="-0.39679">
        <ele>243.7</ele>
        <time>2025-04-26T08:08:35.971Z</time>
      </trkpt>
      <trkpt lat="48.76903" lon="-0.39672">
        <ele>243.5</ele>
        <time>2025-04-26T08:08:41.128Z</time>
      </trkpt>
      <trkpt lat="48.76898" lon="-0.39666">
        <ele>243.3</ele>
        <time>2025-04-26T08:08:46.286Z</time>
      </trkpt>
      <trkpt lat="48.76892" lon="-0.39659">
        <ele>243.4</ele>
        <time>2025-04-26T08:08:51.444Z</time>
      </trkpt>
      <trkpt lat="48.76887" lon="-0.39653">
        <ele>243.5</ele>
        <time>2025-04-26T08:08:56.602Z</time>
      </trkpt>
      <trkpt lat="48.76881" lon="-0.39646">
        <ele>243.5</ele>
        <time>2025-04-26T08:09:01.760Z</time>
      </trkpt>
      <trkpt lat="48.76876" lon="-0.3964">
        <ele>243.5</ele>
        <time>2025-04-26T08:09:06.918Z</time>
      </trkpt>
      <trkpt lat="48.7687" lon="-0.39633">
        <ele>243.3</ele>
        <time>2025-04-26T08:09:12.076Z</time>
      </trkpt>
      <trkpt lat="48.76865" lon="-0.39627">
        <ele>243.1</ele>
        <time>2025-04-26T08:09:17.235Z</time>
        <extensions>
          <visugpx:TrkExtension xmlns:visugpx="https://www.visugpx.com/editgpx/">
            <visugpx:node>13</visugpx:node>
            </visugpx:TrkExtension>
        </extensions>
      </trkpt>
      <trkpt lat="48.76862" lon="-0.39633">
        <ele>243</ele>
        <time>2025-04-26T08:09:20.871Z</time>
      </trkpt>
      <trkpt lat="48.76859" lon="-0.39639">
        <ele>243</ele>
        <time>2025-04-26T08:09:24.507Z</time>
      </trkpt>
      <trkpt lat="48.76856" lon="-0.39645">
        <ele>243</ele>
        <time>2025-04-26T08:09:28.143Z</time>
      </trkpt>
      <trkpt lat="48.76854" lon="-0.39651">
        <ele>243</ele>
        <time>2025-04-26T08:09:31.779Z</time>
      </trkpt>
      <trkpt lat="48.76851" lon="-0.39657">
        <ele>243</ele>
        <time>2025-04-26T08:09:35.415Z</time>
      </trkpt>
      <trkpt lat="48.76848" lon="-0.39663">
        <ele>243</ele>
        <time>2025-04-26T08:09:39.051Z</time>
      </trkpt>
      <trkpt lat="48.76845" lon="-0.39669">
        <ele>243</ele>
        <time>2025-04-26T08:09:42.687Z</time>
      </trkpt>
      <trkpt lat="48.76842" lon="-0.39675">
        <ele>243</ele>
        <time>2025-04-26T08:09:46.323Z</time>
      </trkpt>
      <trkpt lat="48.76839" lon="-0.3968">
        <ele>243</ele>
        <time>2025-04-26T08:09:49.959Z</time>
      </trkpt>
      <trkpt lat="48.76836" lon="-0.39686">
        <ele>243</ele>
        <time>2025-04-26T08:09:53.595Z</time>
      </trkpt>
      <trkpt lat="48.76833" lon="-0.39692">
        <ele>243</ele>
        <time>2025-04-26T08:09:57.231Z</time>
      </trkpt>
      <trkpt lat="48.76831" lon="-0.39698">
        <ele>243</ele>
        <time>2025-04-26T08:10:00.867Z</time>
      </trkpt>
      <trkpt lat="48.76828" lon="-0.39704">
        <ele>242.9</ele>
        <time>2025-04-26T08:10:04.503Z</time>
      </trkpt>
      <trkpt lat="48.76825" lon="-0.3971">
        <ele>242.8</ele>
        <time>2025-04-26T08:10:08.139Z</time>
      </trkpt>
      <trkpt lat="48.76822" lon="-0.39716">
        <ele>242.7</ele>
        <time>2025-04-26T08:10:11.775Z</time>
      </trkpt>
      <trkpt lat="48.76819" lon="-0.39722">
        <ele>242.5</ele>
        <time>2025-04-26T08:10:15.412Z</time>
      </trkpt>
      <trkpt lat="48.76817" lon="-0.39728">
        <ele>242.3</ele>
        <time>2025-04-26T08:10:18.668Z</time>
      </trkpt>
      <trkpt lat="48.76814" lon="-0.39734">
        <ele>242.2</ele>
        <time>2025-04-26T08:10:21.925Z</time>
      </trkpt>
      <trkpt lat="48.76814" lon="-0.39744">
        <ele>242.1</ele>
        <time>2025-04-26T08:10:26.520Z</time>
      </trkpt>
      <trkpt lat="48.76813" lon="-0.39753">
        <ele>242</ele>
        <time>2025-04-26T08:10:31.116Z</time>
      </trkpt>
      <trkpt lat="48.76813" lon="-0.39763">
        <ele>242</ele>
        <time>2025-04-26T08:10:35.712Z</time>
      </trkpt>
      <trkpt lat="48.76812" lon="-0.39773">
        <ele>242</ele>
        <time>2025-04-26T08:10:40.308Z</time>
      </trkpt>
      <trkpt lat="48.76812" lon="-0.39782">
        <ele>241.9</ele>
        <time>2025-04-26T08:10:44.904Z</time>
      </trkpt>
      <trkpt lat="48.76811" lon="-0.39792">
        <ele>241.6</ele>
        <time>2025-04-26T08:10:49.500Z</time>
      </trkpt>
      <trkpt lat="48.76811" lon="-0.39801">
        <ele>241.3</ele>
        <time>2025-04-26T08:10:54.096Z</time>
      </trkpt>
      <trkpt lat="48.7681" lon="-0.39811">
        <ele>241.2</ele>
        <time>2025-04-26T08:10:58.693Z</time>
      </trkpt>
      <trkpt lat="48.76803" lon="-0.39814">
        <ele>241</ele>
        <time>2025-04-26T08:11:03.931Z</time>
      </trkpt>
      <trkpt lat="48.76796" lon="-0.39817">
        <ele>240.9</ele>
        <time>2025-04-26T08:11:09.170Z</time>
      </trkpt>
      <trkpt lat="48.7679" lon="-0.3982">
        <ele>240.7</ele>
        <time>2025-04-26T08:11:13.900Z</time>
      </trkpt>
      <trkpt lat="48.76783" lon="-0.39823">
        <ele>240.5</ele>
        <time>2025-04-26T08:11:18.630Z</time>
      </trkpt>
      <trkpt lat="48.76777" lon="-0.39825">
        <ele>240.3</ele>
        <time>2025-04-26T08:11:23.360Z</time>
      </trkpt>
      <trkpt lat="48.7677" lon="-0.39828">
        <ele>240.1</ele>
        <time>2025-04-26T08:11:28.091Z</time>
      </trkpt>
      <trkpt lat="48.76763" lon="-0.39833">
        <ele>240</ele>
        <time>2025-04-26T08:11:33.419Z</time>
      </trkpt>
      <trkpt lat="48.76756" lon="-0.39838">
        <ele>239.9</ele>
        <time>2025-04-26T08:11:38.747Z</time>
      </trkpt>
      <trkpt lat="48.76749" lon="-0.39842">
        <ele>239.6</ele>
        <time>2025-04-26T08:11:44.075Z</time>
      </trkpt>
      <trkpt lat="48.76742" lon="-0.39847">
        <ele>239.1</ele>
        <time>2025-04-26T08:11:49.405Z</time>
      </trkpt>
      <trkpt lat="48.76735" lon="-0.39851">
        <ele>238.6</ele>
        <time>2025-04-26T08:11:54.463Z</time>
      </trkpt>
      <trkpt lat="48.76728" lon="-0.39856">
        <ele>238.3</ele>
        <time>2025-04-26T08:11:59.521Z</time>
      </trkpt>
      <trkpt lat="48.76721" lon="-0.3986">
        <ele>237.9</ele>
        <time>2025-04-26T08:12:04.579Z</time>
      </trkpt>
      <trkpt lat="48.76714" lon="-0.39864">
        <ele>237.2</ele>
        <time>2025-04-26T08:12:09.638Z</time>
      </trkpt>
      <trkpt lat="48.76709" lon="-0.39867">
        <ele>236.7</ele>
        <time>2025-04-26T08:12:13.597Z</time>
      </trkpt>
      <trkpt lat="48.76703" lon="-0.39871">
        <ele>236.2</ele>
        <time>2025-04-26T08:12:17.556Z</time>
      </trkpt>
      <trkpt lat="48.76698" lon="-0.39874">
        <ele>235.7</ele>
        <time>2025-04-26T08:12:21.515Z</time>
      </trkpt>
      <trkpt lat="48.76692" lon="-0.39877">
        <ele>235.3</ele>
        <time>2025-04-26T08:12:25.475Z</time>
      </trkpt>
      <trkpt lat="48.76687" lon="-0.3988">
        <ele>234.7</ele>
        <time>2025-04-26T08:12:29.435Z</time>
      </trkpt>
      <trkpt lat="48.76681" lon="-0.39884">
        <ele>234.2</ele>
        <time>2025-04-26T08:12:33.395Z</time>
      </trkpt>
      <trkpt lat="48.76676" lon="-0.39887">
        <ele>233.7</ele>
        <time>2025-04-26T08:12:37.355Z</time>
      </trkpt>
      <trkpt lat="48.7667" lon="-0.3989">
        <ele>233.2</ele>
        <time>2025-04-26T08:12:41.316Z</time>
      </trkpt>
      <trkpt lat="48.76664" lon="-0.39898">
        <ele>232.6</ele>
        <time>2025-04-26T08:12:46.475Z</time>
      </trkpt>
      <trkpt lat="48.76659" lon="-0.39906">
        <ele>232.1</ele>
        <time>2025-04-26T08:12:51.634Z</time>
      </trkpt>
      <trkpt lat="48.76653" lon="-0.39913">
        <ele>231.6</ele>
        <time>2025-04-26T08:12:56.794Z</time>
      </trkpt>
      <trkpt lat="48.76647" lon="-0.39921">
        <ele>231</ele>
        <time>2025-04-26T08:13:01.955Z</time>
      </trkpt>
      <trkpt lat="48.76643" lon="-0.39929">
        <ele>230.3</ele>
        <time>2025-04-26T08:13:06.307Z</time>
      </trkpt>
      <trkpt lat="48.76639" lon="-0.39937">
        <ele>229.6</ele>
        <time>2025-04-26T08:13:10.659Z</time>
      </trkpt>
      <trkpt lat="48.76635" lon="-0.39944">
        <ele>229</ele>
        <time>2025-04-26T08:13:15.012Z</time>
      </trkpt>
      <trkpt lat="48.76631" lon="-0.39952">
        <ele>228.7</ele>
        <time>2025-04-26T08:13:19.366Z</time>
        <extensions>
          <visugpx:TrkExtension xmlns:visugpx="https://www.visugpx.com/editgpx/">
            <visugpx:node>14</visugpx:node>
            </visugpx:TrkExtension>
        </extensions>
      </trkpt>
      <trkpt lat="48.76633" lon="-0.39955">
        <ele>228.5</ele>
        <time>2025-04-26T08:13:21.252Z</time>
      </trkpt>
      <trkpt lat="48.7663" lon="-0.39958">
        <ele>228.4</ele>
        <time>2025-04-26T08:13:23.785Z</time>
      </trkpt>
      <trkpt lat="48.76622" lon="-0.39964">
        <ele>227.9</ele>
        <time>2025-04-26T08:13:29.772Z</time>
      </trkpt>
      <trkpt lat="48.76616" lon="-0.39971">
        <ele>227.3</ele>
        <time>2025-04-26T08:13:34.918Z</time>
      </trkpt>
      <trkpt lat="48.7661" lon="-0.39978">
        <ele>226.1</ele>
        <time>2025-04-26T08:13:40.064Z</time>
      </trkpt>
      <trkpt lat="48.76603" lon="-0.39984">
        <ele>224.6</ele>
        <time>2025-04-26T08:13:45.211Z</time>
      </trkpt>
      <trkpt lat="48.76597" lon="-0.39991">
        <ele>223.1</ele>
        <time>2025-04-26T08:13:50.359Z</time>
      </trkpt>
      <trkpt lat="48.76593" lon="-0.39996">
        <ele>222.2</ele>
        <time>2025-04-26T08:13:53.835Z</time>
      </trkpt>
      <trkpt lat="48.76589" lon="-0.40001">
        <ele>221.3</ele>
        <time>2025-04-26T08:13:57.312Z</time>
      </trkpt>
      <trkpt lat="48.76585" lon="-0.40006">
        <ele>220.5</ele>
        <time>2025-04-26T08:14:00.789Z</time>
      </trkpt>
      <trkpt lat="48.76581" lon="-0.40011">
        <ele>219.6</ele>
        <time>2025-04-26T08:14:04.267Z</time>
      </trkpt>
      <trkpt lat="48.76578" lon="-0.4002">
        <ele>218.3</ele>
        <time>2025-04-26T08:14:08.726Z</time>
      </trkpt>
      <trkpt lat="48.76575" lon="-0.40029">
        <ele>217</ele>
        <time>2025-04-26T08:14:13.186Z</time>
      </trkpt>
      <trkpt lat="48.76575" lon="-0.40038">
        <ele>215.9</ele>
        <time>2025-04-26T08:14:17.169Z</time>
      </trkpt>
      <trkpt lat="48.76576" lon="-0.40047">
        <ele>214.8</ele>
        <time>2025-04-26T08:14:21.152Z</time>
      </trkpt>
      <trkpt lat="48.76576" lon="-0.40056">
        <ele>213.7</ele>
        <time>2025-04-26T08:14:25.135Z</time>
      </trkpt>
      <trkpt lat="48.76576" lon="-0.40065">
        <ele>212.6</ele>
        <time>2025-04-26T08:14:29.119Z</time>
      </trkpt>
      <trkpt lat="48.76577" lon="-0.40072">
        <ele>211.9</ele>
        <time>2025-04-26T08:14:32.286Z</time>
      </trkpt>
      <trkpt lat="48.76578" lon="-0.40079">
        <ele>211.1</ele>
        <time>2025-04-26T08:14:35.453Z</time>
      </trkpt>
      <trkpt lat="48.76579" lon="-0.40086">
        <ele>210.2</ele>
        <time>2025-04-26T08:14:38.620Z</time>
      </trkpt>
      <trkpt lat="48.7658" lon="-0.40093">
        <ele>209.1</ele>
        <time>2025-04-26T08:14:41.788Z</time>
      </trkpt>
      <trkpt lat="48.7658" lon="-0.40104">
        <ele>207.2</ele>
        <time>2025-04-26T08:14:46.431Z</time>
      </trkpt>
      <trkpt lat="48.7658" lon="-0.40114">
        <ele>205.5</ele>
        <time>2025-04-26T08:14:51.074Z</time>
      </trkpt>
      <trkpt lat="48.76578" lon="-0.40121">
        <ele>204.4</ele>
        <time>2025-04-26T08:14:54.447Z</time>
      </trkpt>
      <trkpt lat="48.76576" lon="-0.40128">
        <ele>203.3</ele>
        <time>2025-04-26T08:14:57.822Z</time>
      </trkpt>
      <trkpt lat="48.76571" lon="-0.40134">
        <ele>202.3</ele>
        <time>2025-04-26T08:15:02.098Z</time>
        <extensions>
          <visugpx:TrkExtension xmlns:visugpx="https://www.visugpx.com/editgpx/">
            <visugpx:node>15</visugpx:node>
            </visugpx:TrkExtension>
        </extensions>
      </trkpt>
      <trkpt lat="48.76566" lon="-0.40138">
        <ele>201.5</ele>
        <time>2025-04-26T08:15:05.891Z</time>
      </trkpt>
      <trkpt lat="48.76561" lon="-0.4014">
        <ele>201</ele>
        <time>2025-04-26T08:15:09.359Z</time>
      </trkpt>
      <trkpt lat="48.76556" lon="-0.40142">
        <ele>200.6</ele>
        <time>2025-04-26T08:15:12.827Z</time>
      </trkpt>
      <trkpt lat="48.76551" lon="-0.40144">
        <ele>200.3</ele>
        <time>2025-04-26T08:15:16.296Z</time>
      </trkpt>
      <trkpt lat="48.76546" lon="-0.40146">
        <ele>200</ele>
        <time>2025-04-26T08:15:19.766Z</time>
      </trkpt>
      <trkpt lat="48.7654" lon="-0.40147">
        <ele>199.8</ele>
        <time>2025-04-26T08:15:24.316Z</time>
      </trkpt>
      <trkpt lat="48.76534" lon="-0.40149">
        <ele>199.6</ele>
        <time>2025-04-26T08:15:28.867Z</time>
      </trkpt>
      <trkpt lat="48.76527" lon="-0.4015">
        <ele>199.5</ele>
        <time>2025-04-26T08:15:33.418Z</time>
      </trkpt>
      <trkpt lat="48.76521" lon="-0.40151">
        <ele>199.5</ele>
        <time>2025-04-26T08:15:37.969Z</time>
      </trkpt>
      <trkpt lat="48.76513" lon="-0.40154">
        <ele>199.4</ele>
        <time>2025-04-26T08:15:44.114Z</time>
      </trkpt>
      <trkpt lat="48.76505" lon="-0.40156">
        <ele>199.4</ele>
        <time>2025-04-26T08:15:50.261Z</time>
      </trkpt>
      <trkpt lat="48.76501" lon="-0.40162">
        <ele>198.7</ele>
        <time>2025-04-26T08:15:54.279Z</time>
      </trkpt>
      <trkpt lat="48.76496" lon="-0.40168">
        <ele>198.1</ele>
        <time>2025-04-26T08:15:58.299Z</time>
      </trkpt>
      <trkpt lat="48.76494" lon="-0.40179">
        <ele>197.1</ele>
        <time>2025-04-26T08:16:03.443Z</time>
      </trkpt>
      <trkpt lat="48.76491" lon="-0.4019">
        <ele>196.1</ele>
        <time>2025-04-26T08:16:08.589Z</time>
      </trkpt>
      <trkpt lat="48.76489" lon="-0.40202">
        <ele>194.9</ele>
        <time>2025-04-26T08:16:14.062Z</time>
      </trkpt>
      <trkpt lat="48.76487" lon="-0.40214">
        <ele>193.5</ele>
        <time>2025-04-26T08:16:19.536Z</time>
      </trkpt>
      <trkpt lat="48.76486" lon="-0.40224">
        <ele>192.3</ele>
        <time>2025-04-26T08:16:24.008Z</time>
      </trkpt>
      <trkpt lat="48.76485" lon="-0.40234">
        <ele>191.5</ele>
        <time>2025-04-26T08:16:28.480Z</time>
      </trkpt>
      <trkpt lat="48.76484" lon="-0.40244">
        <ele>190.6</ele>
        <time>2025-04-26T08:16:32.953Z</time>
      </trkpt>
      <trkpt lat="48.76483" lon="-0.40254">
        <ele>189.7</ele>
        <time>2025-04-26T08:16:37.427Z</time>
      </trkpt>
      <trkpt lat="48.76481" lon="-0.40263">
        <ele>189.1</ele>
        <time>2025-04-26T08:16:41.470Z</time>
      </trkpt>
      <trkpt lat="48.7648" lon="-0.40272">
        <ele>188.5</ele>
        <time>2025-04-26T08:16:45.513Z</time>
      </trkpt>
      <trkpt lat="48.76478" lon="-0.4028">
        <ele>187.8</ele>
        <time>2025-04-26T08:16:49.556Z</time>
      </trkpt>
      <trkpt lat="48.76476" lon="-0.40289">
        <ele>187.2</ele>
        <time>2025-04-26T08:16:53.600Z</time>
      </trkpt>
      <trkpt lat="48.76474" lon="-0.40296">
        <ele>186.7</ele>
        <time>2025-04-26T08:16:57.075Z</time>
      </trkpt>
      <trkpt lat="48.76472" lon="-0.40304">
        <ele>186.1</ele>
        <time>2025-04-26T08:17:00.550Z</time>
      </trkpt>
      <trkpt lat="48.7647" lon="-0.40311">
        <ele>185.7</ele>
        <time>2025-04-26T08:17:04.025Z</time>
      </trkpt>
      <trkpt lat="48.76468" lon="-0.40318">
        <ele>185.3</ele>
        <time>2025-04-26T08:17:07.502Z</time>
      </trkpt>
      <trkpt lat="48.76467" lon="-0.40331">
        <ele>184.7</ele>
        <time>2025-04-26T08:17:13.120Z</time>
      </trkpt>
      <trkpt lat="48.76465" lon="-0.40343">
        <ele>183.2</ele>
        <time>2025-04-26T08:17:18.739Z</time>
      </trkpt>
      <trkpt lat="48.76462" lon="-0.40353">
        <ele>181.7</ele>
        <time>2025-04-26T08:17:23.551Z</time>
      </trkpt>
      <trkpt lat="48.76458" lon="-0.40362">
        <ele>180.3</ele>
        <time>2025-04-26T08:17:28.364Z</time>
      </trkpt>
      <trkpt lat="48.76453" lon="-0.40365">
        <ele>179.6</ele>
        <time>2025-04-26T08:17:31.970Z</time>
      </trkpt>
      <trkpt lat="48.76448" lon="-0.40368">
        <ele>178.9</ele>
        <time>2025-04-26T08:17:35.578Z</time>
      </trkpt>
      <trkpt lat="48.76442" lon="-0.40369">
        <ele>178.4</ele>
        <time>2025-04-26T08:17:39.460Z</time>
      </trkpt>
      <trkpt lat="48.76437" lon="-0.4037">
        <ele>177.8</ele>
        <time>2025-04-26T08:17:43.343Z</time>
      </trkpt>
      <trkpt lat="48.76431" lon="-0.40371">
        <ele>177.2</ele>
        <time>2025-04-26T08:17:47.226Z</time>
      </trkpt>
      <trkpt lat="48.76425" lon="-0.40372">
        <ele>176.6</ele>
        <time>2025-04-26T08:17:51.109Z</time>
      </trkpt>
      <trkpt lat="48.76417" lon="-0.40374">
        <ele>175.7</ele>
        <time>2025-04-26T08:17:56.474Z</time>
      </trkpt>
      <trkpt lat="48.76409" lon="-0.40376">
        <ele>175</ele>
        <time>2025-04-26T08:18:01.840Z</time>
      </trkpt>
      <trkpt lat="48.76401" lon="-0.40378">
        <ele>174.3</ele>
        <time>2025-04-26T08:18:07.206Z</time>
      </trkpt>
      <trkpt lat="48.76394" lon="-0.40381">
        <ele>173.7</ele>
        <time>2025-04-26T08:18:12.572Z</time>
      </trkpt>
      <trkpt lat="48.76386" lon="-0.40383">
        <ele>173.2</ele>
        <time>2025-04-26T08:18:17.938Z</time>
      </trkpt>
      <trkpt lat="48.76378" lon="-0.40385">
        <ele>173</ele>
        <time>2025-04-26T08:18:23.304Z</time>
      </trkpt>
      <trkpt lat="48.7637" lon="-0.40387">
        <ele>172.9</ele>
        <time>2025-04-26T08:18:28.670Z</time>
      </trkpt>
      <trkpt lat="48.76362" lon="-0.40389">
        <ele>172.9</ele>
        <time>2025-04-26T08:18:34.037Z</time>
      </trkpt>
      <trkpt lat="48.76355" lon="-0.40395">
        <ele>171.4</ele>
        <time>2025-04-26T08:18:39.725Z</time>
      </trkpt>
      <trkpt lat="48.76347" lon="-0.40401">
        <ele>169.9</ele>
        <time>2025-04-26T08:18:45.414Z</time>
      </trkpt>
      <trkpt lat="48.76339" lon="-0.40403">
        <ele>169.3</ele>
        <time>2025-04-26T08:18:50.821Z</time>
      </trkpt>
      <trkpt lat="48.76331" lon="-0.40404">
        <ele>168.6</ele>
        <time>2025-04-26T08:18:56.229Z</time>
      </trkpt>
      <trkpt lat="48.76323" lon="-0.40404">
        <ele>168</ele>
        <time>2025-04-26T08:19:01.931Z</time>
      </trkpt>
      <trkpt lat="48.76314" lon="-0.40404">
        <ele>167.3</ele>
        <time>2025-04-26T08:19:07.634Z</time>
      </trkpt>
      <trkpt lat="48.76308" lon="-0.40406">
        <ele>166.4</ele>
        <time>2025-04-26T08:19:11.780Z</time>
      </trkpt>
      <trkpt lat="48.76302" lon="-0.40409">
        <ele>165.6</ele>
        <time>2025-04-26T08:19:15.926Z</time>
      </trkpt>
      <trkpt lat="48.76296" lon="-0.40411">
        <ele>164.7</ele>
        <time>2025-04-26T08:19:20.072Z</time>
      </trkpt>
      <trkpt lat="48.7629" lon="-0.40413">
        <ele>163.8</ele>
        <time>2025-04-26T08:19:24.220Z</time>
      </trkpt>
      <trkpt lat="48.76283" lon="-0.40414">
        <ele>163.3</ele>
        <time>2025-04-26T08:19:28.753Z</time>
      </trkpt>
      <trkpt lat="48.76277" lon="-0.40414">
        <ele>162.8</ele>
        <time>2025-04-26T08:19:33.287Z</time>
      </trkpt>
      <trkpt lat="48.7627" lon="-0.40415">
        <ele>162.6</ele>
        <time>2025-04-26T08:19:37.821Z</time>
      </trkpt>
      <trkpt lat="48.76263" lon="-0.40415">
        <ele>162.4</ele>
        <time>2025-04-26T08:19:42.355Z</time>
      </trkpt>
      <trkpt lat="48.76258" lon="-0.40416">
        <ele>162.2</ele>
        <time>2025-04-26T08:19:45.599Z</time>
      </trkpt>
      <trkpt lat="48.76254" lon="-0.40417">
        <ele>162</ele>
        <time>2025-04-26T08:19:48.843Z</time>
      </trkpt>
      <trkpt lat="48.76249" lon="-0.40418">
        <ele>161.9</ele>
        <time>2025-04-26T08:19:52.087Z</time>
      </trkpt>
      <trkpt lat="48.76244" lon="-0.40419">
        <ele>161.6</ele>
        <time>2025-04-26T08:19:55.332Z</time>
      </trkpt>
      <trkpt lat="48.76238" lon="-0.40417">
        <ele>161.6</ele>
        <time>2025-04-26T08:20:00.410Z</time>
      </trkpt>
      <trkpt lat="48.76232" lon="-0.40414">
        <ele>161.8</ele>
        <time>2025-04-26T08:20:05.488Z</time>
      </trkpt>
      <trkpt lat="48.76226" lon="-0.40412">
        <ele>161.9</ele>
        <time>2025-04-26T08:20:10.567Z</time>
      </trkpt>
      <trkpt lat="48.7622" lon="-0.40409">
        <ele>162.1</ele>
        <time>2025-04-26T08:20:15.647Z</time>
      </trkpt>
      <trkpt lat="48.76215" lon="-0.40403">
        <ele>162.7</ele>
        <time>2025-04-26T08:20:21.991Z</time>
      </trkpt>
      <trkpt lat="48.76209" lon="-0.40397">
        <ele>163.2</ele>
        <time>2025-04-26T08:20:28.336Z</time>
      </trkpt>
      <trkpt lat="48.76204" lon="-0.4039">
        <ele>163.5</ele>
        <time>2025-04-26T08:20:34.681Z</time>
      </trkpt>
      <trkpt lat="48.76198" lon="-0.40384">
        <ele>163.7</ele>
        <time>2025-04-26T08:20:41.027Z</time>
      </trkpt>
      <trkpt lat="48.76195" lon="-0.40378">
        <ele>163.8</ele>
        <time>2025-04-26T08:20:44.866Z</time>
      </trkpt>
      <trkpt lat="48.76191" lon="-0.40373">
        <ele>163.8</ele>
        <time>2025-04-26T08:20:48.706Z</time>
      </trkpt>
      <trkpt lat="48.76188" lon="-0.40367">
        <ele>163.7</ele>
        <time>2025-04-26T08:20:52.546Z</time>
      </trkpt>
      <trkpt lat="48.76184" lon="-0.40361">
        <ele>163.5</ele>
        <time>2025-04-26T08:20:56.387Z</time>
      </trkpt>
      <trkpt lat="48.76182" lon="-0.40355">
        <ele>163.3</ele>
        <time>2025-04-26T08:20:59.633Z</time>
      </trkpt>
      <trkpt lat="48.7618" lon="-0.40348">
        <ele>163</ele>
        <time>2025-04-26T08:21:02.879Z</time>
      </trkpt>
      <trkpt lat="48.76177" lon="-0.40342">
        <ele>162.6</ele>
        <time>2025-04-26T08:21:06.125Z</time>
      </trkpt>
      <trkpt lat="48.76175" lon="-0.40335">
        <ele>162.1</ele>
        <time>2025-04-26T08:21:09.373Z</time>
      </trkpt>
      <trkpt lat="48.76177" lon="-0.40327">
        <ele>162.6</ele>
        <time>2025-04-26T08:21:15.560Z</time>
      </trkpt>
      <trkpt lat="48.76179" lon="-0.40319">
        <ele>163.2</ele>
        <time>2025-04-26T08:21:21.748Z</time>
      </trkpt>
      <trkpt lat="48.7618" lon="-0.4031">
        <ele>163.8</ele>
        <time>2025-04-26T08:21:27.936Z</time>
      </trkpt>
      <trkpt lat="48.76182" lon="-0.40302">
        <ele>164.5</ele>
        <time>2025-04-26T08:21:34.124Z</time>
      </trkpt>
      <trkpt lat="48.76186" lon="-0.40298">
        <ele>165.9</ele>
        <time>2025-04-26T08:21:44.353Z</time>
      </trkpt>
      <trkpt lat="48.7619" lon="-0.40293">
        <ele>167.2</ele>
        <time>2025-04-26T08:21:54.582Z</time>
      </trkpt>
      <trkpt lat="48.76192" lon="-0.40297">
        <ele>167.6</ele>
        <time>2025-04-26T08:21:58.373Z</time>
        <extensions>
          <visugpx:TrkExtension xmlns:visugpx="https://www.visugpx.com/editgpx/">
            <visugpx:node>16</visugpx:node>
            </visugpx:TrkExtension>
        </extensions>
      </trkpt>
      <trkpt lat="48.76195" lon="-0.40284">
        <ele>168.8</ele>
        <time>2025-04-26T08:22:09.004Z</time>
      </trkpt>
      <trkpt lat="48.76197" lon="-0.40271">
        <ele>170</ele>
        <time>2025-04-26T08:22:19.635Z</time>
      </trkpt>
      <trkpt lat="48.762" lon="-0.40258">
        <ele>171.2</ele>
        <time>2025-04-26T08:22:30.266Z</time>
      </trkpt>
      <trkpt lat="48.76202" lon="-0.40245">
        <ele>172.3</ele>
        <time>2025-04-26T08:22:40.897Z</time>
      </trkpt>
      <trkpt lat="48.76205" lon="-0.40239">
        <ele>173.3</ele>
        <time>2025-04-26T08:22:48.135Z</time>
      </trkpt>
      <trkpt lat="48.76208" lon="-0.40232">
        <ele>174.2</ele>
        <time>2025-04-26T08:22:55.373Z</time>
      </trkpt>
      <trkpt lat="48.76211" lon="-0.40226">
        <ele>175.1</ele>
        <time>2025-04-26T08:23:02.611Z</time>
      </trkpt>
      <trkpt lat="48.76214" lon="-0.40219">
        <ele>175.9</ele>
        <time>2025-04-26T08:23:09.850Z</time>
      </trkpt>
      <trkpt lat="48.76216" lon="-0.40213">
        <ele>176.4</ele>
        <time>2025-04-26T08:23:14.728Z</time>
      </trkpt>
      <trkpt lat="48.76218" lon="-0.40206">
        <ele>176.8</ele>
        <time>2025-04-26T08:23:19.606Z</time>
      </trkpt>
      <trkpt lat="48.76219" lon="-0.402">
        <ele>177.2</ele>
        <time>2025-04-26T08:23:24.484Z</time>
      </trkpt>
      <trkpt lat="48.76221" lon="-0.40193">
        <ele>177.7</ele>
        <time>2025-04-26T08:23:29.363Z</time>
      </trkpt>
      <trkpt lat="48.76221" lon="-0.40192">
        <ele>177.7</ele>
        <time>2025-04-26T08:23:29.869Z</time>
        <extensions>
          <visugpx:TrkExtension xmlns:visugpx="https://www.visugpx.com/editgpx/">
            <visugpx:node>17</visugpx:node>
            </visugpx:TrkExtension>
        </extensions>
      </trkpt>
      <trkpt lat="48.7622" lon="-0.40183">
        <ele>177.4</ele>
        <time>2025-04-26T08:23:34.181Z</time>
      </trkpt>
      <trkpt lat="48.76219" lon="-0.40174">
        <ele>177.2</ele>
        <time>2025-04-26T08:23:38.493Z</time>
      </trkpt>
      <trkpt lat="48.76218" lon="-0.40165">
        <ele>177</ele>
        <time>2025-04-26T08:23:42.805Z</time>
      </trkpt>
      <trkpt lat="48.76217" lon="-0.40157">
        <ele>177.1</ele>
        <time>2025-04-26T08:23:47.117Z</time>
      </trkpt>
      <trkpt lat="48.76215" lon="-0.40148">
        <ele>177.2</ele>
        <time>2025-04-26T08:23:51.429Z</time>
      </trkpt>
      <trkpt lat="48.76214" lon="-0.40139">
        <ele>177.3</ele>
        <time>2025-04-26T08:23:55.742Z</time>
      </trkpt>
      <trkpt lat="48.76213" lon="-0.4013">
        <ele>177</ele>
        <time>2025-04-26T08:24:00.055Z</time>
      </trkpt>
      <trkpt lat="48.76212" lon="-0.40121">
        <ele>176.8</ele>
        <time>2025-04-26T08:24:04.369Z</time>
      </trkpt>
      <trkpt lat="48.76213" lon="-0.40113">
        <ele>177.1</ele>
        <time>2025-04-26T08:24:10.085Z</time>
      </trkpt>
      <trkpt lat="48.76215" lon="-0.40105">
        <ele>177.5</ele>
        <time>2025-04-26T08:24:15.801Z</time>
      </trkpt>
      <trkpt lat="48.76216" lon="-0.40097">
        <ele>178.1</ele>
        <time>2025-04-26T08:24:21.518Z</time>
      </trkpt>
      <trkpt lat="48.76218" lon="-0.4009">
        <ele>178.6</ele>
        <time>2025-04-26T08:24:27.235Z</time>
      </trkpt>
      <trkpt lat="48.76219" lon="-0.40082">
        <ele>179.2</ele>
        <time>2025-04-26T08:24:32.952Z</time>
      </trkpt>
      <trkpt lat="48.7622" lon="-0.40074">
        <ele>179.8</ele>
        <time>2025-04-26T08:24:38.669Z</time>
      </trkpt>
      <trkpt lat="48.76222" lon="-0.40066">
        <ele>180.5</ele>
        <time>2025-04-26T08:24:44.386Z</time>
      </trkpt>
      <trkpt lat="48.76223" lon="-0.40058">
        <ele>181.1</ele>
        <time>2025-04-26T08:24:50.103Z</time>
      </trkpt>
      <trkpt lat="48.76222" lon="-0.40049">
        <ele>180.8</ele>
        <time>2025-04-26T08:24:54.208Z</time>
      </trkpt>
      <trkpt lat="48.7622" lon="-0.4004">
        <ele>180.4</ele>
        <time>2025-04-26T08:24:58.313Z</time>
      </trkpt>
      <trkpt lat="48.76219" lon="-0.40031">
        <ele>179.9</ele>
        <time>2025-04-26T08:25:02.418Z</time>
      </trkpt>
      <trkpt lat="48.76217" lon="-0.40022">
        <ele>179.5</ele>
        <time>2025-04-26T08:25:06.523Z</time>
      </trkpt>
      <trkpt lat="48.76216" lon="-0.40013">
        <ele>179.1</ele>
        <time>2025-04-26T08:25:10.628Z</time>
      </trkpt>
      <trkpt lat="48.76214" lon="-0.40004">
        <ele>178.6</ele>
        <time>2025-04-26T08:25:14.733Z</time>
      </trkpt>
      <trkpt lat="48.76213" lon="-0.39995">
        <ele>178.3</ele>
        <time>2025-04-26T08:25:18.839Z</time>
      </trkpt>
      <trkpt lat="48.76211" lon="-0.39986">
        <ele>178.1</ele>
        <time>2025-04-26T08:25:22.946Z</time>
      </trkpt>
      <trkpt lat="48.76212" lon="-0.39979">
        <ele>178.4</ele>
        <time>2025-04-26T08:25:28.232Z</time>
      </trkpt>
      <trkpt lat="48.76212" lon="-0.39972">
        <ele>178.8</ele>
        <time>2025-04-26T08:25:33.518Z</time>
      </trkpt>
      <trkpt lat="48.76213" lon="-0.39965">
        <ele>179.3</ele>
        <time>2025-04-26T08:25:38.804Z</time>
      </trkpt>
      <trkpt lat="48.76214" lon="-0.39958">
        <ele>179.9</ele>
        <time>2025-04-26T08:25:44.090Z</time>
      </trkpt>
      <trkpt lat="48.76214" lon="-0.3995">
        <ele>180.4</ele>
        <time>2025-04-26T08:25:49.376Z</time>
      </trkpt>
      <trkpt lat="48.76215" lon="-0.39943">
        <ele>180.9</ele>
        <time>2025-04-26T08:25:54.663Z</time>
      </trkpt>
      <trkpt lat="48.76215" lon="-0.39936">
        <ele>181.7</ele>
        <time>2025-04-26T08:25:59.950Z</time>
      </trkpt>
      <trkpt lat="48.76216" lon="-0.39929">
        <ele>182.4</ele>
        <time>2025-04-26T08:26:05.237Z</time>
      </trkpt>
      <trkpt lat="48.76214" lon="-0.3992">
        <ele>182.7</ele>
        <time>2025-04-26T08:26:10.594Z</time>
      </trkpt>
      <trkpt lat="48.76213" lon="-0.3991">
        <ele>182.9</ele>
        <time>2025-04-26T08:26:15.951Z</time>
      </trkpt>
      <trkpt lat="48.76211" lon="-0.39901">
        <ele>182.9</ele>
        <time>2025-04-26T08:26:21.309Z</time>
      </trkpt>
      <trkpt lat="48.76209" lon="-0.39891">
        <ele>183</ele>
        <time>2025-04-26T08:26:26.668Z</time>
      </trkpt>
      <trkpt lat="48.7621" lon="-0.39882">
        <ele>183.9</ele>
        <time>2025-04-26T08:26:33.461Z</time>
      </trkpt>
      <trkpt lat="48.76211" lon="-0.39874">
        <ele>184.7</ele>
        <time>2025-04-26T08:26:40.254Z</time>
      </trkpt>
      <trkpt lat="48.76212" lon="-0.39865">
        <ele>185.6</ele>
        <time>2025-04-26T08:26:47.047Z</time>
      </trkpt>
      <trkpt lat="48.76214" lon="-0.39856">
        <ele>186.4</ele>
        <time>2025-04-26T08:26:53.840Z</time>
      </trkpt>
      <trkpt lat="48.76215" lon="-0.39847">
        <ele>187.1</ele>
        <time>2025-04-26T08:27:00.633Z</time>
      </trkpt>
      <trkpt lat="48.76216" lon="-0.39839">
        <ele>187.8</ele>
        <time>2025-04-26T08:27:07.426Z</time>
      </trkpt>
      <trkpt lat="48.76217" lon="-0.3983">
        <ele>188.4</ele>
        <time>2025-04-26T08:27:14.219Z</time>
      </trkpt>
      <trkpt lat="48.76218" lon="-0.39821">
        <ele>188.8</ele>
        <time>2025-04-26T08:27:21.013Z</time>
      </trkpt>
      <trkpt lat="48.76219" lon="-0.39813">
        <ele>189.3</ele>
        <time>2025-04-26T08:27:26.205Z</time>
      </trkpt>
      <trkpt lat="48.76221" lon="-0.39805">
        <ele>189.8</ele>
        <time>2025-04-26T08:27:31.397Z</time>
      </trkpt>
      <trkpt lat="48.76222" lon="-0.39797">
        <ele>190</ele>
        <time>2025-04-26T08:27:36.589Z</time>
      </trkpt>
      <trkpt lat="48.76224" lon="-0.39789">
        <ele>190.2</ele>
        <time>2025-04-26T08:27:41.781Z</time>
      </trkpt>
      <trkpt lat="48.76225" lon="-0.3978">
        <ele>190.4</ele>
        <time>2025-04-26T08:27:46.973Z</time>
      </trkpt>
      <trkpt lat="48.76226" lon="-0.39772">
        <ele>190.8</ele>
        <time>2025-04-26T08:27:52.166Z</time>
      </trkpt>
      <trkpt lat="48.76228" lon="-0.39764">
        <ele>191.2</ele>
        <time>2025-04-26T08:27:57.359Z</time>
      </trkpt>
      <trkpt lat="48.76229" lon="-0.39756">
        <ele>191.6</ele>
        <time>2025-04-26T08:28:02.552Z</time>
      </trkpt>
      <trkpt lat="48.76229" lon="-0.39756">
        <ele>191.6</ele>
        <time>2025-04-26T08:28:02.552Z</time>
        <extensions>
          <visugpx:TrkExtension xmlns:visugpx="https://www.visugpx.com/editgpx/">
            <visugpx:node>18</visugpx:node>
            </visugpx:TrkExtension>
        </extensions>
      </trkpt>
      <trkpt lat="48.76229" lon="-0.39756">
        <ele>191.6</ele>
        <time>2025-04-26T08:28:02.552Z</time>
      </trkpt>
      <trkpt lat="48.7623" lon="-0.39749">
        <ele>191.9</ele>
        <time>2025-04-26T08:28:07.208Z</time>
      </trkpt>
      <trkpt lat="48.76231" lon="-0.39742">
        <ele>192</ele>
        <time>2025-04-26T08:28:11.864Z</time>
      </trkpt>
      <trkpt lat="48.76232" lon="-0.39735">
        <ele>192.3</ele>
        <time>2025-04-26T08:28:16.520Z</time>
      </trkpt>
      <trkpt lat="48.76233" lon="-0.39728">
        <ele>192.5</ele>
        <time>2025-04-26T08:28:21.176Z</time>
      </trkpt>
      <trkpt lat="48.76234" lon="-0.3972">
        <ele>192.8</ele>
        <time>2025-04-26T08:28:25.833Z</time>
      </trkpt>
      <trkpt lat="48.76235" lon="-0.39713">
        <ele>193.3</ele>
        <time>2025-04-26T08:28:30.490Z</time>
      </trkpt>
      <trkpt lat="48.76236" lon="-0.39706">
        <ele>193.9</ele>
        <time>2025-04-26T08:28:35.147Z</time>
      </trkpt>
      <trkpt lat="48.76237" lon="-0.39699">
        <ele>194.4</ele>
        <time>2025-04-26T08:28:39.804Z</time>
      </trkpt>
      <trkpt lat="48.7624" lon="-0.39687">
        <ele>195</ele>
        <time>2025-04-26T08:28:47.600Z</time>
      </trkpt>
      <trkpt lat="48.76242" lon="-0.39674">
        <ele>195.3</ele>
        <time>2025-04-26T08:28:55.396Z</time>
      </trkpt>
      <trkpt lat="48.76244" lon="-0.39667">
        <ele>195.6</ele>
        <time>2025-04-26T08:29:00.472Z</time>
      </trkpt>
      <trkpt lat="48.76247" lon="-0.3966">
        <ele>196</ele>
        <time>2025-04-26T08:29:05.548Z</time>
      </trkpt>
      <trkpt lat="48.76249" lon="-0.39653">
        <ele>196.4</ele>
        <time>2025-04-26T08:29:10.624Z</time>
      </trkpt>
      <trkpt lat="48.76251" lon="-0.39646">
        <ele>196.9</ele>
        <time>2025-04-26T08:29:15.700Z</time>
      </trkpt>
      <trkpt lat="48.76253" lon="-0.39638">
        <ele>197.5</ele>
        <time>2025-04-26T08:29:20.776Z</time>
      </trkpt>
      <trkpt lat="48.76256" lon="-0.39631">
        <ele>197.8</ele>
        <time>2025-04-26T08:29:25.852Z</time>
      </trkpt>
      <trkpt lat="48.76258" lon="-0.39624">
        <ele>198.1</ele>
        <time>2025-04-26T08:29:30.928Z</time>
      </trkpt>
      <trkpt lat="48.7626" lon="-0.39617">
        <ele>198.4</ele>
        <time>2025-04-26T08:29:36.004Z</time>
      </trkpt>
      <trkpt lat="48.76265" lon="-0.39613">
        <ele>199.1</ele>
        <time>2025-04-26T08:29:41.680Z</time>
      </trkpt>
      <trkpt lat="48.76269" lon="-0.3961">
        <ele>199.8</ele>
        <time>2025-04-26T08:29:47.356Z</time>
      </trkpt>
      <trkpt lat="48.76274" lon="-0.39606">
        <ele>200.5</ele>
        <time>2025-04-26T08:29:53.032Z</time>
      </trkpt>
      <trkpt lat="48.76279" lon="-0.39603">
        <ele>201.1</ele>
        <time>2025-04-26T08:29:58.708Z</time>
      </trkpt>
      <trkpt lat="48.76283" lon="-0.39599">
        <ele>201.6</ele>
        <time>2025-04-26T08:30:04.384Z</time>
      </trkpt>
      <trkpt lat="48.76288" lon="-0.39596">
        <ele>202.1</ele>
        <time>2025-04-26T08:30:10.060Z</time>
      </trkpt>
      <trkpt lat="48.76293" lon="-0.39592">
        <ele>202.6</ele>
        <time>2025-04-26T08:30:15.736Z</time>
      </trkpt>
      <trkpt lat="48.76298" lon="-0.39589">
        <ele>203.1</ele>
        <time>2025-04-26T08:30:21.412Z</time>
      </trkpt>
      <trkpt lat="48.76302" lon="-0.39585">
        <ele>203.6</ele>
        <time>2025-04-26T08:30:27.088Z</time>
      </trkpt>
      <trkpt lat="48.76307" lon="-0.39581">
        <ele>204.1</ele>
        <time>2025-04-26T08:30:32.764Z</time>
      </trkpt>
      <trkpt lat="48.76312" lon="-0.39578">
        <ele>204.7</ele>
        <time>2025-04-26T08:30:38.440Z</time>
      </trkpt>
      <trkpt lat="48.76316" lon="-0.39574">
        <ele>205.1</ele>
        <time>2025-04-26T08:30:44.116Z</time>
      </trkpt>
      <trkpt lat="48.76321" lon="-0.39571">
        <ele>205.7</ele>
        <time>2025-04-26T08:30:49.792Z</time>
      </trkpt>
      <trkpt lat="48.76326" lon="-0.39567">
        <ele>206.2</ele>
        <time>2025-04-26T08:30:55.468Z</time>
      </trkpt>
      <trkpt lat="48.7633" lon="-0.39564">
        <ele>206.7</ele>
        <time>2025-04-26T08:31:01.144Z</time>
      </trkpt>
      <trkpt lat="48.76335" lon="-0.3956">
        <ele>207.2</ele>
        <time>2025-04-26T08:31:06.821Z</time>
      </trkpt>
      <trkpt lat="48.76341" lon="-0.39555">
        <ele>207.8</ele>
        <time>2025-04-26T08:31:13.690Z</time>
      </trkpt>
      <trkpt lat="48.76347" lon="-0.39551">
        <ele>208.4</ele>
        <time>2025-04-26T08:31:20.559Z</time>
      </trkpt>
      <trkpt lat="48.76353" lon="-0.39546">
        <ele>208.9</ele>
        <time>2025-04-26T08:31:27.428Z</time>
      </trkpt>
      <trkpt lat="48.7636" lon="-0.39542">
        <ele>209.3</ele>
        <time>2025-04-26T08:31:34.297Z</time>
      </trkpt>
      <trkpt lat="48.76366" lon="-0.39537">
        <ele>209.9</ele>
        <time>2025-04-26T08:31:41.166Z</time>
      </trkpt>
      <trkpt lat="48.76372" lon="-0.39532">
        <ele>210.6</ele>
        <time>2025-04-26T08:31:48.035Z</time>
      </trkpt>
      <trkpt lat="48.76378" lon="-0.39528">
        <ele>211.4</ele>
        <time>2025-04-26T08:31:54.904Z</time>
      </trkpt>
      <trkpt lat="48.76384" lon="-0.39523">
        <ele>212</ele>
        <time>2025-04-26T08:32:01.773Z</time>
      </trkpt>
      <trkpt lat="48.7639" lon="-0.39518">
        <ele>212.5</ele>
        <time>2025-04-26T08:32:08.642Z</time>
      </trkpt>
      <trkpt lat="48.76396" lon="-0.39514">
        <ele>212.9</ele>
        <time>2025-04-26T08:32:15.511Z</time>
      </trkpt>
      <trkpt lat="48.76402" lon="-0.39509">
        <ele>213.4</ele>
        <time>2025-04-26T08:32:22.380Z</time>
      </trkpt>
      <trkpt lat="48.76409" lon="-0.39505">
        <ele>214</ele>
        <time>2025-04-26T08:32:29.249Z</time>
      </trkpt>
      <trkpt lat="48.76415" lon="-0.395">
        <ele>214.7</ele>
        <time>2025-04-26T08:32:36.119Z</time>
      </trkpt>
      <trkpt lat="48.76421" lon="-0.39495">
        <ele>215.3</ele>
        <time>2025-04-26T08:32:42.989Z</time>
      </trkpt>
      <trkpt lat="48.76427" lon="-0.39491">
        <ele>215.8</ele>
        <time>2025-04-26T08:32:49.859Z</time>
      </trkpt>
      <trkpt lat="48.76433" lon="-0.39486">
        <ele>216.3</ele>
        <time>2025-04-26T08:32:56.729Z</time>
      </trkpt>
      <trkpt lat="48.76438" lon="-0.39482">
        <ele>216.7</ele>
        <time>2025-04-26T08:33:02.362Z</time>
      </trkpt>
      <trkpt lat="48.76444" lon="-0.39479">
        <ele>217.1</ele>
        <time>2025-04-26T08:33:07.996Z</time>
      </trkpt>
      <trkpt lat="48.76449" lon="-0.39475">
        <ele>217.6</ele>
        <time>2025-04-26T08:33:13.630Z</time>
      </trkpt>
      <trkpt lat="48.76454" lon="-0.39471">
        <ele>218</ele>
        <time>2025-04-26T08:33:19.264Z</time>
      </trkpt>
      <trkpt lat="48.76462" lon="-0.39468">
        <ele>218.6</ele>
        <time>2025-04-26T08:33:27.253Z</time>
      </trkpt>
      <trkpt lat="48.76469" lon="-0.3947">
        <ele>219.5</ele>
        <time>2025-04-26T08:33:34.975Z</time>
      </trkpt>
      <trkpt lat="48.76476" lon="-0.39472">
        <ele>220.1</ele>
        <time>2025-04-26T08:33:42.697Z</time>
      </trkpt>
      <trkpt lat="48.76482" lon="-0.39473">
        <ele>220.4</ele>
        <time>2025-04-26T08:33:48.577Z</time>
      </trkpt>
      <trkpt lat="48.76488" lon="-0.39473">
        <ele>220.7</ele>
        <time>2025-04-26T08:33:54.457Z</time>
      </trkpt>
      <trkpt lat="48.76494" lon="-0.39474">
        <ele>221</ele>
        <time>2025-04-26T08:34:00.337Z</time>
      </trkpt>
      <trkpt lat="48.76501" lon="-0.39475">
        <ele>221.3</ele>
        <time>2025-04-26T08:34:06.217Z</time>
      </trkpt>
      <trkpt lat="48.76507" lon="-0.39475">
        <ele>221.8</ele>
        <time>2025-04-26T08:34:12.097Z</time>
      </trkpt>
      <trkpt lat="48.76513" lon="-0.39476">
        <ele>222.4</ele>
        <time>2025-04-26T08:34:17.977Z</time>
      </trkpt>
      <trkpt lat="48.76519" lon="-0.39476">
        <ele>222.9</ele>
        <time>2025-04-26T08:34:23.857Z</time>
      </trkpt>
      <trkpt lat="48.76525" lon="-0.39477">
        <ele>223.5</ele>
        <time>2025-04-26T08:34:29.738Z</time>
      </trkpt>
      <trkpt lat="48.76532" lon="-0.39476">
        <ele>224.2</ele>
        <time>2025-04-26T08:34:37.476Z</time>
      </trkpt>
      <trkpt lat="48.76538" lon="-0.39475">
        <ele>225.2</ele>
        <time>2025-04-26T08:34:45.214Z</time>
      </trkpt>
      <trkpt lat="48.76544" lon="-0.39473">
        <ele>226</ele>
        <time>2025-04-26T08:34:52.939Z</time>
      </trkpt>
      <trkpt lat="48.7655" lon="-0.39471">
        <ele>227</ele>
        <time>2025-04-26T08:35:00.664Z</time>
      </trkpt>
      <trkpt lat="48.76557" lon="-0.3947">
        <ele>228.1</ele>
        <time>2025-04-26T08:35:08.952Z</time>
      </trkpt>
      <trkpt lat="48.76564" lon="-0.39468">
        <ele>228.8</ele>
        <time>2025-04-26T08:35:17.241Z</time>
      </trkpt>
      <trkpt lat="48.76569" lon="-0.39467">
        <ele>229.4</ele>
        <time>2025-04-26T08:35:22.781Z</time>
      </trkpt>
      <trkpt lat="48.76574" lon="-0.39466">
        <ele>229.9</ele>
        <time>2025-04-26T08:35:28.322Z</time>
      </trkpt>
      <trkpt lat="48.76579" lon="-0.39467">
        <ele>230.5</ele>
        <time>2025-04-26T08:35:34.039Z</time>
      </trkpt>
      <trkpt lat="48.76584" lon="-0.39467">
        <ele>231.1</ele>
        <time>2025-04-26T08:35:39.757Z</time>
      </trkpt>
      <trkpt lat="48.7659" lon="-0.39469">
        <ele>231.7</ele>
        <time>2025-04-26T08:35:45.859Z</time>
      </trkpt>
      <trkpt lat="48.76595" lon="-0.3947">
        <ele>232.3</ele>
        <time>2025-04-26T08:35:51.962Z</time>
      </trkpt>
      <trkpt lat="48.76602" lon="-0.39472">
        <ele>233</ele>
        <time>2025-04-26T08:35:59.119Z</time>
      </trkpt>
      <trkpt lat="48.76608" lon="-0.39473">
        <ele>233.7</ele>
        <time>2025-04-26T08:36:06.276Z</time>
      </trkpt>
      <trkpt lat="48.76615" lon="-0.39475">
        <ele>234.4</ele>
        <time>2025-04-26T08:36:13.630Z</time>
      </trkpt>
      <trkpt lat="48.76622" lon="-0.39477">
        <ele>235</ele>
        <time>2025-04-26T08:36:20.984Z</time>
      </trkpt>
      <trkpt lat="48.7663" lon="-0.39479">
        <ele>235.6</ele>
        <time>2025-04-26T08:36:28.841Z</time>
      </trkpt>
      <trkpt lat="48.76638" lon="-0.3948">
        <ele>236.2</ele>
        <time>2025-04-26T08:36:36.699Z</time>
      </trkpt>
      <trkpt lat="48.76638" lon="-0.39469">
        <ele>235.9</ele>
        <time>2025-04-26T08:36:41.609Z</time>
      </trkpt>
      <trkpt lat="48.76638" lon="-0.3946">
        <ele>235.9</ele>
        <time>2025-04-26T08:36:46.173Z</time>
      </trkpt>
      <trkpt lat="48.76637" lon="-0.39451">
        <ele>235.9</ele>
        <time>2025-04-26T08:36:50.738Z</time>
      </trkpt>
      <trkpt lat="48.76637" lon="-0.39444">
        <ele>235.8</ele>
        <time>2025-04-26T08:36:54.609Z</time>
      </trkpt>
      <trkpt lat="48.76636" lon="-0.39437">
        <ele>236</ele>
        <time>2025-04-26T08:36:58.480Z</time>
      </trkpt>
      <trkpt lat="48.76636" lon="-0.3943">
        <ele>236.2</ele>
        <time>2025-04-26T08:37:02.351Z</time>
      </trkpt>
      <trkpt lat="48.76635" lon="-0.39423">
        <ele>236.4</ele>
        <time>2025-04-26T08:37:06.223Z</time>
      </trkpt>
      <trkpt lat="48.76634" lon="-0.39414">
        <ele>236.6</ele>
        <time>2025-04-26T08:37:11.482Z</time>
      </trkpt>
      <trkpt lat="48.76633" lon="-0.39405">
        <ele>236.9</ele>
        <time>2025-04-26T08:37:16.742Z</time>
      </trkpt>
      <trkpt lat="48.76632" lon="-0.39397">
        <ele>237.1</ele>
        <time>2025-04-26T08:37:21.659Z</time>
      </trkpt>
      <trkpt lat="48.76631" lon="-0.39389">
        <ele>237.4</ele>
        <time>2025-04-26T08:37:26.576Z</time>
      </trkpt>
      <trkpt lat="48.7663" lon="-0.39381">
        <ele>237.7</ele>
        <time>2025-04-26T08:37:31.494Z</time>
      </trkpt>
      <trkpt lat="48.76629" lon="-0.39373">
        <ele>238.1</ele>
        <time>2025-04-26T08:37:36.413Z</time>
      </trkpt>
      <trkpt lat="48.76627" lon="-0.39363">
        <ele>238.5</ele>
        <time>2025-04-26T08:37:42.972Z</time>
      </trkpt>
      <trkpt lat="48.76624" lon="-0.39352">
        <ele>238.8</ele>
        <time>2025-04-26T08:37:49.533Z</time>
      </trkpt>
      <trkpt lat="48.76621" lon="-0.39342">
        <ele>239</ele>
        <time>2025-04-26T08:37:55.722Z</time>
      </trkpt>
      <trkpt lat="48.76618" lon="-0.39332">
        <ele>239.3</ele>
        <time>2025-04-26T08:38:01.912Z</time>
      </trkpt>
      <trkpt lat="48.76616" lon="-0.39325">
        <ele>239.5</ele>
        <time>2025-04-26T08:38:06.513Z</time>
      </trkpt>
      <trkpt lat="48.76614" lon="-0.39317">
        <ele>239.7</ele>
        <time>2025-04-26T08:38:11.115Z</time>
      </trkpt>
      <trkpt lat="48.7661" lon="-0.39306">
        <ele>239.9</ele>
        <time>2025-04-26T08:38:17.962Z</time>
      </trkpt>
      <trkpt lat="48.76607" lon="-0.393">
        <ele>239.7</ele>
        <time>2025-04-26T08:38:21.663Z</time>
      </trkpt>
      <trkpt lat="48.76603" lon="-0.39294">
        <ele>239.4</ele>
        <time>2025-04-26T08:38:25.364Z</time>
      </trkpt>
      <trkpt lat="48.766" lon="-0.39288">
        <ele>239.2</ele>
        <time>2025-04-26T08:38:29.065Z</time>
      </trkpt>
      <trkpt lat="48.76597" lon="-0.39282">
        <ele>238.9</ele>
        <time>2025-04-26T08:38:32.766Z</time>
      </trkpt>
      <trkpt lat="48.76593" lon="-0.39275">
        <ele>238.8</ele>
        <time>2025-04-26T08:38:36.467Z</time>
      </trkpt>
      <trkpt lat="48.7659" lon="-0.39269">
        <ele>238.8</ele>
        <time>2025-04-26T08:38:40.168Z</time>
      </trkpt>
      <trkpt lat="48.76586" lon="-0.39263">
        <ele>238.7</ele>
        <time>2025-04-26T08:38:43.869Z</time>
      </trkpt>
      <trkpt lat="48.76583" lon="-0.39257">
        <ele>238.7</ele>
        <time>2025-04-26T08:38:47.571Z</time>
      </trkpt>
      <trkpt lat="48.7659" lon="-0.39257">
        <ele>239.2</ele>
        <time>2025-04-26T08:38:53.606Z</time>
      </trkpt>
      <trkpt lat="48.76596" lon="-0.39256">
        <ele>239.7</ele>
        <time>2025-04-26T08:38:59.641Z</time>
      </trkpt>
      <trkpt lat="48.76603" lon="-0.39256">
        <ele>240.2</ele>
        <time>2025-04-26T08:39:05.677Z</time>
      </trkpt>
      <trkpt lat="48.76609" lon="-0.39255">
        <ele>240.7</ele>
        <time>2025-04-26T08:39:11.713Z</time>
      </trkpt>
      <trkpt lat="48.76616" lon="-0.39255">
        <ele>241</ele>
        <time>2025-04-26T08:39:17.749Z</time>
      </trkpt>
      <trkpt lat="48.76622" lon="-0.39254">
        <ele>241.2</ele>
        <time>2025-04-26T08:39:23.785Z</time>
      </trkpt>
      <trkpt lat="48.76629" lon="-0.39254">
        <ele>241.5</ele>
        <time>2025-04-26T08:39:29.821Z</time>
      </trkpt>
      <trkpt lat="48.76635" lon="-0.39253">
        <ele>241.8</ele>
        <time>2025-04-26T08:39:35.857Z</time>
      </trkpt>
      <trkpt lat="48.76638" lon="-0.3926">
        <ele>241.6</ele>
        <time>2025-04-26T08:39:40.154Z</time>
      </trkpt>
      <trkpt lat="48.76642" lon="-0.39267">
        <ele>241.4</ele>
        <time>2025-04-26T08:39:44.451Z</time>
      </trkpt>
      <trkpt lat="48.76645" lon="-0.39274">
        <ele>241.3</ele>
        <time>2025-04-26T08:39:48.748Z</time>
      </trkpt>
      <trkpt lat="48.76648" lon="-0.39281">
        <ele>241.3</ele>
        <time>2025-04-26T08:39:53.046Z</time>
      </trkpt>
      <trkpt lat="48.76651" lon="-0.39288">
        <ele>241.4</ele>
        <time>2025-04-26T08:39:57.344Z</time>
      </trkpt>
      <trkpt lat="48.76655" lon="-0.39295">
        <ele>241.6</ele>
        <time>2025-04-26T08:40:01.642Z</time>
      </trkpt>
      <trkpt lat="48.76658" lon="-0.39302">
        <ele>241.7</ele>
        <time>2025-04-26T08:40:05.940Z</time>
      </trkpt>
      <trkpt lat="48.76661" lon="-0.39309">
        <ele>241.7</ele>
        <time>2025-04-26T08:40:10.238Z</time>
      </trkpt>
      <trkpt lat="48.76665" lon="-0.39314">
        <ele>241.6</ele>
        <time>2025-04-26T08:40:13.752Z</time>
      </trkpt>
      <trkpt lat="48.76668" lon="-0.39319">
        <ele>241.5</ele>
        <time>2025-04-26T08:40:17.267Z</time>
      </trkpt>
      <trkpt lat="48.76672" lon="-0.39324">
        <ele>241.5</ele>
        <time>2025-04-26T08:40:20.782Z</time>
      </trkpt>
      <trkpt lat="48.76675" lon="-0.39329">
        <ele>241.4</ele>
        <time>2025-04-26T08:40:24.297Z</time>
      </trkpt>
      <trkpt lat="48.76678" lon="-0.39334">
        <ele>241.4</ele>
        <time>2025-04-26T08:40:27.730Z</time>
      </trkpt>
      <trkpt lat="48.76682" lon="-0.39339">
        <ele>241.3</ele>
        <time>2025-04-26T08:40:31.163Z</time>
      </trkpt>
      <trkpt lat="48.76685" lon="-0.39344">
        <ele>241.3</ele>
        <time>2025-04-26T08:40:34.597Z</time>
      </trkpt>
      <trkpt lat="48.76688" lon="-0.39349">
        <ele>241.2</ele>
        <time>2025-04-26T08:40:38.031Z</time>
      </trkpt>
      <trkpt lat="48.76692" lon="-0.39357">
        <ele>241.1</ele>
        <time>2025-04-26T08:40:42.560Z</time>
      </trkpt>
      <trkpt lat="48.76696" lon="-0.39364">
        <ele>240.9</ele>
        <time>2025-04-26T08:40:47.089Z</time>
      </trkpt>
      <trkpt lat="48.76699" lon="-0.39372">
        <ele>240.8</ele>
        <time>2025-04-26T08:40:51.618Z</time>
      </trkpt>
      <trkpt lat="48.76703" lon="-0.39379">
        <ele>240.8</ele>
        <time>2025-04-26T08:40:56.148Z</time>
      </trkpt>
      <trkpt lat="48.76707" lon="-0.39389">
        <ele>240.9</ele>
        <time>2025-04-26T08:41:01.767Z</time>
      </trkpt>
      <trkpt lat="48.7671" lon="-0.39398">
        <ele>240.9</ele>
        <time>2025-04-26T08:41:07.387Z</time>
      </trkpt>
      <trkpt lat="48.76713" lon="-0.39406">
        <ele>240.9</ele>
        <time>2025-04-26T08:41:11.407Z</time>
      </trkpt>
      <trkpt lat="48.76715" lon="-0.39413">
        <ele>240.8</ele>
        <time>2025-04-26T08:41:15.427Z</time>
      </trkpt>
      <trkpt lat="48.76718" lon="-0.39421">
        <ele>240.7</ele>
        <time>2025-04-26T08:41:19.447Z</time>
      </trkpt>
      <trkpt lat="48.7672" lon="-0.39428">
        <ele>240.5</ele>
        <time>2025-04-26T08:41:23.468Z</time>
      </trkpt>
      <trkpt lat="48.76725" lon="-0.39439">
        <ele>240.3</ele>
        <time>2025-04-26T08:41:30.130Z</time>
      </trkpt>
      <trkpt lat="48.76729" lon="-0.3945">
        <ele>240.6</ele>
        <time>2025-04-26T08:41:36.792Z</time>
      </trkpt>
      <trkpt lat="48.76731" lon="-0.39442">
        <ele>240.7</ele>
        <time>2025-04-26T08:41:41.348Z</time>
      </trkpt>
      <trkpt lat="48.76733" lon="-0.39435">
        <ele>241</ele>
        <time>2025-04-26T08:41:45.904Z</time>
      </trkpt>
      <trkpt lat="48.76735" lon="-0.39427">
        <ele>241.2</ele>
        <time>2025-04-26T08:41:50.460Z</time>
      </trkpt>
      <trkpt lat="48.76737" lon="-0.3942">
        <ele>241.5</ele>
        <time>2025-04-26T08:41:55.017Z</time>
      </trkpt>
      <trkpt lat="48.76738" lon="-0.39412">
        <ele>241.7</ele>
        <time>2025-04-26T08:41:59.574Z</time>
      </trkpt>
      <trkpt lat="48.7674" lon="-0.39404">
        <ele>241.8</ele>
        <time>2025-04-26T08:42:04.131Z</time>
      </trkpt>
      <trkpt lat="48.76742" lon="-0.39397">
        <ele>241.9</ele>
        <time>2025-04-26T08:42:08.688Z</time>
      </trkpt>
      <trkpt lat="48.76744" lon="-0.39389">
        <ele>242</ele>
        <time>2025-04-26T08:42:13.245Z</time>
      </trkpt>
      <trkpt lat="48.76743" lon="-0.39376">
        <ele>241.9</ele>
        <time>2025-04-26T08:42:20.049Z</time>
      </trkpt>
      <trkpt lat="48.76743" lon="-0.39363">
        <ele>241.8</ele>
        <time>2025-04-26T08:42:26.853Z</time>
      </trkpt>
      <trkpt lat="48.76742" lon="-0.3935">
        <ele>241.8</ele>
        <time>2025-04-26T08:42:33.658Z</time>
      </trkpt>
      <trkpt lat="48.76741" lon="-0.39338">
        <ele>242</ele>
        <time>2025-04-26T08:42:40.463Z</time>
      </trkpt>
      <trkpt lat="48.7674" lon="-0.39325">
        <ele>242.2</ele>
        <time>2025-04-26T08:42:47.268Z</time>
      </trkpt>
      <trkpt lat="48.7674" lon="-0.39312">
        <ele>242.5</ele>
        <time>2025-04-26T08:42:54.073Z</time>
      </trkpt>
      <trkpt lat="48.76739" lon="-0.39299">
        <ele>242.7</ele>
        <time>2025-04-26T08:43:00.878Z</time>
      </trkpt>
      <trkpt lat="48.76738" lon="-0.39286">
        <ele>242.9</ele>
        <time>2025-04-26T08:43:07.684Z</time>
        <extensions>
          <visugpx:TrkExtension xmlns:visugpx="https://www.visugpx.com/editgpx/">
            <visugpx:node>19</visugpx:node>
            </visugpx:TrkExtension>
        </extensions>
      </trkpt>
      <trkpt lat="48.76741" lon="-0.39279">
        <ele>243</ele>
        <time>2025-04-26T08:43:12.117Z</time>
      </trkpt>
      <trkpt lat="48.76743" lon="-0.39272">
        <ele>243.2</ele>
        <time>2025-04-26T08:43:16.550Z</time>
      </trkpt>
      <trkpt lat="48.76746" lon="-0.39264">
        <ele>243.4</ele>
        <time>2025-04-26T08:43:20.983Z</time>
      </trkpt>
      <trkpt lat="48.76748" lon="-0.39257">
        <ele>243.7</ele>
        <time>2025-04-26T08:43:25.417Z</time>
      </trkpt>
      <trkpt lat="48.76751" lon="-0.3925">
        <ele>244</ele>
        <time>2025-04-26T08:43:29.851Z</time>
      </trkpt>
      <trkpt lat="48.76753" lon="-0.39243">
        <ele>244</ele>
        <time>2025-04-26T08:43:34.285Z</time>
      </trkpt>
      <trkpt lat="48.76756" lon="-0.39236">
        <ele>244.1</ele>
        <time>2025-04-26T08:43:38.719Z</time>
      </trkpt>
      <trkpt lat="48.76758" lon="-0.39229">
        <ele>244.2</ele>
        <time>2025-04-26T08:43:43.153Z</time>
      </trkpt>
      <trkpt lat="48.76761" lon="-0.39221">
        <ele>244.4</ele>
        <time>2025-04-26T08:43:47.587Z</time>
      </trkpt>
      <trkpt lat="48.76763" lon="-0.39214">
        <ele>244.6</ele>
        <time>2025-04-26T08:43:52.021Z</time>
      </trkpt>
      <trkpt lat="48.76766" lon="-0.39207">
        <ele>244.8</ele>
        <time>2025-04-26T08:43:56.455Z</time>
      </trkpt>
      <trkpt lat="48.76768" lon="-0.392">
        <ele>244.9</ele>
        <time>2025-04-26T08:44:00.889Z</time>
      </trkpt>
      <trkpt lat="48.76771" lon="-0.39193">
        <ele>245</ele>
        <time>2025-04-26T08:44:05.323Z</time>
      </trkpt>
      <trkpt lat="48.76773" lon="-0.39185">
        <ele>245</ele>
        <time>2025-04-26T08:44:09.757Z</time>
      </trkpt>
      <trkpt lat="48.76776" lon="-0.39178">
        <ele>245</ele>
        <time>2025-04-26T08:44:14.191Z</time>
      </trkpt>
      <trkpt lat="48.76778" lon="-0.39171">
        <ele>245</ele>
        <time>2025-04-26T08:44:18.625Z</time>
      </trkpt>
      <trkpt lat="48.76782" lon="-0.39161">
        <ele>245.1</ele>
        <time>2025-04-26T08:44:24.716Z</time>
      </trkpt>
      <trkpt lat="48.76786" lon="-0.39152">
        <ele>245.3</ele>
        <time>2025-04-26T08:44:30.807Z</time>
      </trkpt>
      <trkpt lat="48.7679" lon="-0.39142">
        <ele>245.4</ele>
        <time>2025-04-26T08:44:36.898Z</time>
      </trkpt>
      <trkpt lat="48.76794" lon="-0.39132">
        <ele>245.7</ele>
        <time>2025-04-26T08:44:42.989Z</time>
      </trkpt>
      <trkpt lat="48.76797" lon="-0.39122">
        <ele>245.9</ele>
        <time>2025-04-26T08:44:49.080Z</time>
      </trkpt>
      <trkpt lat="48.76801" lon="-0.39113">
        <ele>246</ele>
        <time>2025-04-26T08:44:55.172Z</time>
      </trkpt>
      <trkpt lat="48.76805" lon="-0.39103">
        <ele>246</ele>
        <time>2025-04-26T08:45:01.264Z</time>
      </trkpt>
      <trkpt lat="48.76809" lon="-0.39093">
        <ele>246.1</ele>
        <time>2025-04-26T08:45:07.356Z</time>
      </trkpt>
      <trkpt lat="48.76812" lon="-0.39084">
        <ele>246.2</ele>
        <time>2025-04-26T08:45:12.357Z</time>
      </trkpt>
      <trkpt lat="48.76814" lon="-0.39075">
        <ele>246.3</ele>
        <time>2025-04-26T08:45:17.359Z</time>
      </trkpt>
      <trkpt lat="48.76817" lon="-0.39066">
        <ele>246.4</ele>
        <time>2025-04-26T08:45:22.361Z</time>
      </trkpt>
      <trkpt lat="48.7682" lon="-0.39057">
        <ele>246.5</ele>
        <time>2025-04-26T08:45:27.363Z</time>
      </trkpt>
      <trkpt lat="48.76822" lon="-0.39047">
        <ele>246.4</ele>
        <time>2025-04-26T08:45:32.365Z</time>
      </trkpt>
      <trkpt lat="48.76825" lon="-0.39038">
        <ele>246.3</ele>
        <time>2025-04-26T08:45:37.367Z</time>
      </trkpt>
      <trkpt lat="48.76827" lon="-0.39029">
        <ele>246</ele>
        <time>2025-04-26T08:45:42.369Z</time>
      </trkpt>
      <trkpt lat="48.7683" lon="-0.3902">
        <ele>246</ele>
        <time>2025-04-26T08:45:47.371Z</time>
      </trkpt>
      <trkpt lat="48.76833" lon="-0.39011">
        <ele>246</ele>
        <time>2025-04-26T08:45:52.428Z</time>
      </trkpt>
      <trkpt lat="48.76835" lon="-0.39002">
        <ele>246.1</ele>
        <time>2025-04-26T08:45:57.485Z</time>
      </trkpt>
      <trkpt lat="48.76838" lon="-0.38993">
        <ele>246.1</ele>
        <time>2025-04-26T08:46:02.542Z</time>
      </trkpt>
      <trkpt lat="48.7684" lon="-0.38984">
        <ele>246.2</ele>
        <time>2025-04-26T08:46:07.599Z</time>
      </trkpt>
      <trkpt lat="48.76843" lon="-0.38975">
        <ele>246.3</ele>
        <time>2025-04-26T08:46:12.656Z</time>
      </trkpt>
      <trkpt lat="48.76845" lon="-0.38966">
        <ele>246.4</ele>
        <time>2025-04-26T08:46:17.713Z</time>
      </trkpt>
      <trkpt lat="48.76848" lon="-0.38957">
        <ele>246.5</ele>
        <time>2025-04-26T08:46:22.770Z</time>
      </trkpt>
      <trkpt lat="48.7685" lon="-0.38949">
        <ele>246.6</ele>
        <time>2025-04-26T08:46:27.827Z</time>
      </trkpt>
      <trkpt lat="48.76853" lon="-0.3894">
        <ele>246.7</ele>
        <time>2025-04-26T08:46:32.884Z</time>
      </trkpt>
      <trkpt lat="48.76855" lon="-0.38931">
        <ele>246.8</ele>
        <time>2025-04-26T08:46:37.941Z</time>
      </trkpt>
      <trkpt lat="48.76858" lon="-0.38922">
        <ele>246.9</ele>
        <time>2025-04-26T08:46:42.998Z</time>
      </trkpt>
      <trkpt lat="48.7686" lon="-0.38913">
        <ele>247</ele>
        <time>2025-04-26T08:46:48.055Z</time>
      </trkpt>
      <trkpt lat="48.76863" lon="-0.38904">
        <ele>247</ele>
        <time>2025-04-26T08:46:53.112Z</time>
      </trkpt>
      <trkpt lat="48.76865" lon="-0.38895">
        <ele>247</ele>
        <time>2025-04-26T08:46:58.169Z</time>
      </trkpt>
      <trkpt lat="48.76868" lon="-0.38886">
        <ele>247</ele>
        <time>2025-04-26T08:47:03.226Z</time>
      </trkpt>
      <trkpt lat="48.7687" lon="-0.38877">
        <ele>247</ele>
        <time>2025-04-26T08:47:08.284Z</time>
      </trkpt>
      <trkpt lat="48.76873" lon="-0.38866">
        <ele>247</ele>
        <time>2025-04-26T08:47:14.299Z</time>
      </trkpt>
      <trkpt lat="48.76876" lon="-0.38855">
        <ele>247</ele>
        <time>2025-04-26T08:47:20.314Z</time>
      </trkpt>
      <trkpt lat="48.76879" lon="-0.38844">
        <ele>247</ele>
        <time>2025-04-26T08:47:26.330Z</time>
      </trkpt>
      <trkpt lat="48.76882" lon="-0.38833">
        <ele>247</ele>
        <time>2025-04-26T08:47:32.346Z</time>
      </trkpt>
      <trkpt lat="48.76885" lon="-0.38822">
        <ele>247</ele>
        <time>2025-04-26T08:47:38.362Z</time>
      </trkpt>
      <trkpt lat="48.76888" lon="-0.38811">
        <ele>247</ele>
        <time>2025-04-26T08:47:44.378Z</time>
      </trkpt>
      <trkpt lat="48.76891" lon="-0.388">
        <ele>247</ele>
        <time>2025-04-26T08:47:50.394Z</time>
      </trkpt>
      <trkpt lat="48.76894" lon="-0.38789">
        <ele>247</ele>
        <time>2025-04-26T08:47:56.410Z</time>
      </trkpt>
      <trkpt lat="48.76895" lon="-0.38779">
        <ele>247</ele>
        <time>2025-04-26T08:48:01.843Z</time>
      </trkpt>
      <trkpt lat="48.76896" lon="-0.38769">
        <ele>247.1</ele>
        <time>2025-04-26T08:48:07.276Z</time>
      </trkpt>
      <trkpt lat="48.76897" lon="-0.38759">
        <ele>247.2</ele>
        <time>2025-04-26T08:48:12.710Z</time>
      </trkpt>
      <trkpt lat="48.76899" lon="-0.38749">
        <ele>247.4</ele>
        <time>2025-04-26T08:48:18.144Z</time>
      </trkpt>
      <trkpt lat="48.769" lon="-0.38739">
        <ele>247.6</ele>
        <time>2025-04-26T08:48:23.578Z</time>
      </trkpt>
      <trkpt lat="48.76901" lon="-0.38729">
        <ele>247.9</ele>
        <time>2025-04-26T08:48:29.012Z</time>
      </trkpt>
      <trkpt lat="48.76902" lon="-0.38719">
        <ele>248</ele>
        <time>2025-04-26T08:48:34.446Z</time>
      </trkpt>
      <trkpt lat="48.76903" lon="-0.38709">
        <ele>248</ele>
        <time>2025-04-26T08:48:39.880Z</time>
      </trkpt>
      <trkpt lat="48.76904" lon="-0.38696">
        <ele>248</ele>
        <time>2025-04-26T08:48:46.393Z</time>
      </trkpt>
      <trkpt lat="48.76906" lon="-0.38684">
        <ele>248</ele>
        <time>2025-04-26T08:48:52.907Z</time>
      </trkpt>
      <trkpt lat="48.76907" lon="-0.38671">
        <ele>248</ele>
        <time>2025-04-26T08:48:59.421Z</time>
      </trkpt>
      <trkpt lat="48.76908" lon="-0.38658">
        <ele>248</ele>
        <time>2025-04-26T08:49:05.935Z</time>
        <extensions>
          <visugpx:TrkExtension xmlns:visugpx="https://www.visugpx.com/editgpx/">
            <visugpx:node>20</visugpx:node>
            </visugpx:TrkExtension>
        </extensions>
      </trkpt>
      <trkpt lat="48.76903" lon="-0.38656">
        <ele>248</ele>
        <time>2025-04-26T08:49:10.271Z</time>
      </trkpt>
      <trkpt lat="48.76897" lon="-0.38654">
        <ele>248</ele>
        <time>2025-04-26T08:49:14.608Z</time>
      </trkpt>
      <trkpt lat="48.76889" lon="-0.38651">
        <ele>248</ele>
        <time>2025-04-26T08:49:20.926Z</time>
      </trkpt>
      <trkpt lat="48.76885" lon="-0.3864">
        <ele>248</ele>
        <time>2025-04-26T08:49:27.548Z</time>
      </trkpt>
      <trkpt lat="48.76881" lon="-0.38629">
        <ele>248.3</ele>
        <time>2025-04-26T08:49:34.170Z</time>
      </trkpt>
      <trkpt lat="48.76877" lon="-0.38618">
        <ele>248.4</ele>
        <time>2025-04-26T08:49:40.792Z</time>
      </trkpt>
      <trkpt lat="48.76873" lon="-0.38607">
        <ele>248.5</ele>
        <time>2025-04-26T08:49:47.414Z</time>
      </trkpt>
      <trkpt lat="48.76869" lon="-0.38596">
        <ele>248.7</ele>
        <time>2025-04-26T08:49:54.036Z</time>
      </trkpt>
      <trkpt lat="48.76865" lon="-0.38585">
        <ele>248.9</ele>
        <time>2025-04-26T08:50:00.658Z</time>
      </trkpt>
      <trkpt lat="48.76861" lon="-0.38574">
        <ele>249</ele>
        <time>2025-04-26T08:50:07.280Z</time>
      </trkpt>
      <trkpt lat="48.76857" lon="-0.38563">
        <ele>248.9</ele>
        <time>2025-04-26T08:50:13.903Z</time>
      </trkpt>
      <trkpt lat="48.76855" lon="-0.38557">
        <ele>248.8</ele>
        <time>2025-04-26T08:50:17.542Z</time>
      </trkpt>
      <trkpt lat="48.76853" lon="-0.3855">
        <ele>248.8</ele>
        <time>2025-04-26T08:50:21.181Z</time>
      </trkpt>
      <trkpt lat="48.76851" lon="-0.38544">
        <ele>248.8</ele>
        <time>2025-04-26T08:50:24.820Z</time>
      </trkpt>
      <trkpt lat="48.76849" lon="-0.38538">
        <ele>248.8</ele>
        <time>2025-04-26T08:50:28.460Z</time>
      </trkpt>
      <trkpt lat="48.76846" lon="-0.38531">
        <ele>248.9</ele>
        <time>2025-04-26T08:50:32.100Z</time>
      </trkpt>
      <trkpt lat="48.76844" lon="-0.38525">
        <ele>249</ele>
        <time>2025-04-26T08:50:35.740Z</time>
      </trkpt>
      <trkpt lat="48.76842" lon="-0.38518">
        <ele>249</ele>
        <time>2025-04-26T08:50:39.380Z</time>
      </trkpt>
      <trkpt lat="48.7684" lon="-0.38512">
        <ele>249</ele>
        <time>2025-04-26T08:50:43.021Z</time>
      </trkpt>
      <trkpt lat="48.76837" lon="-0.38505">
        <ele>249</ele>
        <time>2025-04-26T08:50:46.944Z</time>
      </trkpt>
      <trkpt lat="48.76835" lon="-0.38499">
        <ele>249</ele>
        <time>2025-04-26T08:50:50.867Z</time>
      </trkpt>
      <trkpt lat="48.76832" lon="-0.38492">
        <ele>248.9</ele>
        <time>2025-04-26T08:50:54.790Z</time>
      </trkpt>
      <trkpt lat="48.76829" lon="-0.38485">
        <ele>248.8</ele>
        <time>2025-04-26T08:50:58.713Z</time>
      </trkpt>
      <trkpt lat="48.76826" lon="-0.38478">
        <ele>248.7</ele>
        <time>2025-04-26T08:51:02.636Z</time>
      </trkpt>
      <trkpt lat="48.76824" lon="-0.38472">
        <ele>248.6</ele>
        <time>2025-04-26T08:51:06.559Z</time>
      </trkpt>
      <trkpt lat="48.76821" lon="-0.38465">
        <ele>248.5</ele>
        <time>2025-04-26T08:51:10.483Z</time>
      </trkpt>
      <trkpt lat="48.76818" lon="-0.38458">
        <ele>248.4</ele>
        <time>2025-04-26T08:51:14.407Z</time>
      </trkpt>
      <trkpt lat="48.76815" lon="-0.38452">
        <ele>248.3</ele>
        <time>2025-04-26T08:51:18.331Z</time>
      </trkpt>
      <trkpt lat="48.76813" lon="-0.38445">
        <ele>248.2</ele>
        <time>2025-04-26T08:51:22.255Z</time>
      </trkpt>
      <trkpt lat="48.7681" lon="-0.38438">
        <ele>248.1</ele>
        <time>2025-04-26T08:51:26.179Z</time>
      </trkpt>
      <trkpt lat="48.76807" lon="-0.38431">
        <ele>248</ele>
        <time>2025-04-26T08:51:30.103Z</time>
      </trkpt>
      <trkpt lat="48.76804" lon="-0.38425">
        <ele>248</ele>
        <time>2025-04-26T08:51:34.027Z</time>
      </trkpt>
      <trkpt lat="48.76802" lon="-0.38418">
        <ele>248</ele>
        <time>2025-04-26T08:51:37.951Z</time>
      </trkpt>
      <trkpt lat="48.76799" lon="-0.38411">
        <ele>248</ele>
        <time>2025-04-26T08:51:41.875Z</time>
      </trkpt>
      <trkpt lat="48.76796" lon="-0.38405">
        <ele>248</ele>
        <time>2025-04-26T08:51:45.799Z</time>
      </trkpt>
      <trkpt lat="48.76793" lon="-0.38398">
        <ele>248</ele>
        <time>2025-04-26T08:51:49.723Z</time>
      </trkpt>
      <trkpt lat="48.76791" lon="-0.38391">
        <ele>248</ele>
        <time>2025-04-26T08:51:53.647Z</time>
      </trkpt>
      <trkpt lat="48.76788" lon="-0.38384">
        <ele>248</ele>
        <time>2025-04-26T08:51:57.571Z</time>
      </trkpt>
      <trkpt lat="48.76785" lon="-0.38378">
        <ele>248</ele>
        <time>2025-04-26T08:52:01.495Z</time>
      </trkpt>
      <trkpt lat="48.76782" lon="-0.38371">
        <ele>248</ele>
        <time>2025-04-26T08:52:05.419Z</time>
      </trkpt>
      <trkpt lat="48.7678" lon="-0.38364">
        <ele>248</ele>
        <time>2025-04-26T08:52:09.343Z</time>
      </trkpt>
      <trkpt lat="48.76777" lon="-0.38358">
        <ele>248</ele>
        <time>2025-04-26T08:52:13.267Z</time>
      </trkpt>
      <trkpt lat="48.76774" lon="-0.38351">
        <ele>248</ele>
        <time>2025-04-26T08:52:17.191Z</time>
      </trkpt>
      <trkpt lat="48.76771" lon="-0.38344">
        <ele>248</ele>
        <time>2025-04-26T08:52:21.115Z</time>
      </trkpt>
      <trkpt lat="48.76769" lon="-0.38337">
        <ele>248</ele>
        <time>2025-04-26T08:52:25.039Z</time>
      </trkpt>
      <trkpt lat="48.76766" lon="-0.38331">
        <ele>248</ele>
        <time>2025-04-26T08:52:28.963Z</time>
      </trkpt>
      <trkpt lat="48.76763" lon="-0.38324">
        <ele>248</ele>
        <time>2025-04-26T08:52:32.887Z</time>
      </trkpt>
      <trkpt lat="48.7676" lon="-0.38317">
        <ele>248</ele>
        <time>2025-04-26T08:52:36.811Z</time>
      </trkpt>
      <trkpt lat="48.76758" lon="-0.3831">
        <ele>248</ele>
        <time>2025-04-26T08:52:40.735Z</time>
      </trkpt>
      <trkpt lat="48.76755" lon="-0.38304">
        <ele>248</ele>
        <time>2025-04-26T08:52:44.659Z</time>
      </trkpt>
      <trkpt lat="48.76752" lon="-0.38297">
        <ele>248</ele>
        <time>2025-04-26T08:52:48.584Z</time>
      </trkpt>
      <trkpt lat="48.76751" lon="-0.3829">
        <ele>248</ele>
        <time>2025-04-26T08:52:52.554Z</time>
      </trkpt>
      <trkpt lat="48.7675" lon="-0.38283">
        <ele>248</ele>
        <time>2025-04-26T08:52:56.524Z</time>
      </trkpt>
      <trkpt lat="48.76748" lon="-0.38275">
        <ele>248.1</ele>
        <time>2025-04-26T08:53:00.494Z</time>
      </trkpt>
      <trkpt lat="48.76747" lon="-0.38268">
        <ele>248.3</ele>
        <time>2025-04-26T08:53:04.465Z</time>
      </trkpt>
      <trkpt lat="48.76744" lon="-0.38258">
        <ele>248.6</ele>
        <time>2025-04-26T08:53:10.518Z</time>
      </trkpt>
      <trkpt lat="48.76741" lon="-0.38248">
        <ele>248.7</ele>
        <time>2025-04-26T08:53:16.572Z</time>
      </trkpt>
      <trkpt lat="48.76739" lon="-0.38242">
        <ele>248.7</ele>
        <time>2025-04-26T08:53:20.266Z</time>
      </trkpt>
      <trkpt lat="48.76737" lon="-0.38236">
        <ele>248.8</ele>
        <time>2025-04-26T08:53:23.960Z</time>
      </trkpt>
      <trkpt lat="48.76735" lon="-0.38229">
        <ele>248.9</ele>
        <time>2025-04-26T08:53:27.654Z</time>
      </trkpt>
      <trkpt lat="48.76733" lon="-0.38223">
        <ele>249</ele>
        <time>2025-04-26T08:53:31.350Z</time>
      </trkpt>
      <trkpt lat="48.76729" lon="-0.38216">
        <ele>249</ele>
        <time>2025-04-26T08:53:35.695Z</time>
      </trkpt>
      <trkpt lat="48.76726" lon="-0.3821">
        <ele>249</ele>
        <time>2025-04-26T08:53:40.040Z</time>
      </trkpt>
      <trkpt lat="48.76722" lon="-0.38203">
        <ele>249</ele>
        <time>2025-04-26T08:53:44.385Z</time>
      </trkpt>
      <trkpt lat="48.76718" lon="-0.38196">
        <ele>248.8</ele>
        <time>2025-04-26T08:53:48.731Z</time>
      </trkpt>
      <trkpt lat="48.76712" lon="-0.38187">
        <ele>248.7</ele>
        <time>2025-04-26T08:53:55.537Z</time>
      </trkpt>
      <trkpt lat="48.76705" lon="-0.38178">
        <ele>248.7</ele>
        <time>2025-04-26T08:54:02.343Z</time>
      </trkpt>
      <trkpt lat="48.76699" lon="-0.38169">
        <ele>248.9</ele>
        <time>2025-04-26T08:54:09.149Z</time>
      </trkpt>
      <trkpt lat="48.76692" lon="-0.3816">
        <ele>248.9</ele>
        <time>2025-04-26T08:54:15.957Z</time>
      </trkpt>
      <trkpt lat="48.76688" lon="-0.38155">
        <ele>248.8</ele>
        <time>2025-04-26T08:54:19.867Z</time>
      </trkpt>
      <trkpt lat="48.76684" lon="-0.38149">
        <ele>248.6</ele>
        <time>2025-04-26T08:54:23.777Z</time>
      </trkpt>
      <trkpt lat="48.7668" lon="-0.38144">
        <ele>248.5</ele>
        <time>2025-04-26T08:54:27.687Z</time>
      </trkpt>
      <trkpt lat="48.76676" lon="-0.38139">
        <ele>248.3</ele>
        <time>2025-04-26T08:54:31.597Z</time>
      </trkpt>
      <trkpt lat="48.76672" lon="-0.38133">
        <ele>248.4</ele>
        <time>2025-04-26T08:54:35.507Z</time>
      </trkpt>
      <trkpt lat="48.76668" lon="-0.38128">
        <ele>248.4</ele>
        <time>2025-04-26T08:54:39.417Z</time>
      </trkpt>
      <trkpt lat="48.76664" lon="-0.38123">
        <ele>248.5</ele>
        <time>2025-04-26T08:54:43.327Z</time>
      </trkpt>
      <trkpt lat="48.76661" lon="-0.38118">
        <ele>248.6</ele>
        <time>2025-04-26T08:54:47.237Z</time>
      </trkpt>
      <trkpt lat="48.76657" lon="-0.38112">
        <ele>248.6</ele>
        <time>2025-04-26T08:54:51.147Z</time>
      </trkpt>
      <trkpt lat="48.76653" lon="-0.38107">
        <ele>248.5</ele>
        <time>2025-04-26T08:54:55.057Z</time>
      </trkpt>
      <trkpt lat="48.76649" lon="-0.38102">
        <ele>248.4</ele>
        <time>2025-04-26T08:54:58.967Z</time>
      </trkpt>
      <trkpt lat="48.76645" lon="-0.38096">
        <ele>248.2</ele>
        <time>2025-04-26T08:55:02.877Z</time>
      </trkpt>
      <trkpt lat="48.76641" lon="-0.38091">
        <ele>248.1</ele>
        <time>2025-04-26T08:55:06.787Z</time>
      </trkpt>
      <trkpt lat="48.76637" lon="-0.38086">
        <ele>248</ele>
        <time>2025-04-26T08:55:10.698Z</time>
      </trkpt>
      <trkpt lat="48.76633" lon="-0.3808">
        <ele>248</ele>
        <time>2025-04-26T08:55:14.609Z</time>
      </trkpt>
      <trkpt lat="48.76629" lon="-0.38075">
        <ele>248</ele>
        <time>2025-04-26T08:55:18.521Z</time>
      </trkpt>
      <trkpt lat="48.76625" lon="-0.3807">
        <ele>248</ele>
        <time>2025-04-26T08:55:22.205Z</time>
      </trkpt>
      <trkpt lat="48.76622" lon="-0.38065">
        <ele>248</ele>
        <time>2025-04-26T08:55:25.889Z</time>
      </trkpt>
      <trkpt lat="48.76618" lon="-0.3806">
        <ele>248</ele>
        <time>2025-04-26T08:55:29.573Z</time>
      </trkpt>
      <trkpt lat="48.76615" lon="-0.38056">
        <ele>248</ele>
        <time>2025-04-26T08:55:33.257Z</time>
      </trkpt>
      <trkpt lat="48.76611" lon="-0.38051">
        <ele>248</ele>
        <time>2025-04-26T08:55:36.942Z</time>
      </trkpt>
      <trkpt lat="48.76607" lon="-0.38046">
        <ele>247.9</ele>
        <time>2025-04-26T08:55:40.627Z</time>
      </trkpt>
      <trkpt lat="48.76604" lon="-0.38041">
        <ele>247.9</ele>
        <time>2025-04-26T08:55:44.312Z</time>
      </trkpt>
      <trkpt lat="48.766" lon="-0.38036">
        <ele>247.9</ele>
        <time>2025-04-26T08:55:47.998Z</time>
      </trkpt>
      <trkpt lat="48.76596" lon="-0.38031">
        <ele>247.9</ele>
        <time>2025-04-26T08:55:52.196Z</time>
      </trkpt>
      <trkpt lat="48.76592" lon="-0.38025">
        <ele>248</ele>
        <time>2025-04-26T08:55:56.394Z</time>
      </trkpt>
      <trkpt lat="48.76588" lon="-0.3802">
        <ele>248</ele>
        <time>2025-04-26T08:56:00.592Z</time>
      </trkpt>
      <trkpt lat="48.76584" lon="-0.38014">
        <ele>248</ele>
        <time>2025-04-26T08:56:04.792Z</time>
      </trkpt>
      <trkpt lat="48.76587" lon="-0.38009">
        <ele>248</ele>
        <time>2025-04-26T08:56:08.270Z</time>
      </trkpt>
      <trkpt lat="48.7659" lon="-0.38003">
        <ele>248</ele>
        <time>2025-04-26T08:56:11.748Z</time>
      </trkpt>
      <trkpt lat="48.76594" lon="-0.37998">
        <ele>248</ele>
        <time>2025-04-26T08:56:15.226Z</time>
      </trkpt>
      <trkpt lat="48.76597" lon="-0.37992">
        <ele>248</ele>
        <time>2025-04-26T08:56:18.704Z</time>
      </trkpt>
      <trkpt lat="48.766" lon="-0.37987">
        <ele>248</ele>
        <time>2025-04-26T08:56:22.182Z</time>
      </trkpt>
      <trkpt lat="48.76603" lon="-0.37981">
        <ele>248</ele>
        <time>2025-04-26T08:56:25.660Z</time>
      </trkpt>
      <trkpt lat="48.76606" lon="-0.37976">
        <ele>248</ele>
        <time>2025-04-26T08:56:29.139Z</time>
      </trkpt>
      <trkpt lat="48.7661" lon="-0.37971">
        <ele>247.9</ele>
        <time>2025-04-26T08:56:32.618Z</time>
      </trkpt>
      <trkpt lat="48.76613" lon="-0.37965">
        <ele>247.8</ele>
        <time>2025-04-26T08:56:36.097Z</time>
      </trkpt>
      <trkpt lat="48.76616" lon="-0.3796">
        <ele>247.6</ele>
        <time>2025-04-26T08:56:39.576Z</time>
      </trkpt>
      <trkpt lat="48.76619" lon="-0.37954">
        <ele>247.5</ele>
        <time>2025-04-26T08:56:43.055Z</time>
      </trkpt>
      <trkpt lat="48.76622" lon="-0.37949">
        <ele>247.5</ele>
        <time>2025-04-26T08:56:46.534Z</time>
      </trkpt>
      <trkpt lat="48.76625" lon="-0.37943">
        <ele>247.5</ele>
        <time>2025-04-26T08:56:50.013Z</time>
      </trkpt>
      <trkpt lat="48.76629" lon="-0.37938">
        <ele>247.5</ele>
        <time>2025-04-26T08:56:53.492Z</time>
      </trkpt>
      <trkpt lat="48.76632" lon="-0.37932">
        <ele>247.4</ele>
        <time>2025-04-26T08:56:56.971Z</time>
      </trkpt>
      <trkpt lat="48.76635" lon="-0.37927">
        <ele>247.3</ele>
        <time>2025-04-26T08:57:00.450Z</time>
      </trkpt>
      <trkpt lat="48.76638" lon="-0.37922">
        <ele>247.2</ele>
        <time>2025-04-26T08:57:03.929Z</time>
      </trkpt>
      <trkpt lat="48.76641" lon="-0.37916">
        <ele>247</ele>
        <time>2025-04-26T08:57:07.408Z</time>
      </trkpt>
      <trkpt lat="48.76645" lon="-0.37911">
        <ele>247</ele>
        <time>2025-04-26T08:57:10.887Z</time>
      </trkpt>
      <trkpt lat="48.76648" lon="-0.37905">
        <ele>247</ele>
        <time>2025-04-26T08:57:14.366Z</time>
      </trkpt>
      <trkpt lat="48.76651" lon="-0.379">
        <ele>247</ele>
        <time>2025-04-26T08:57:17.845Z</time>
      </trkpt>
      <trkpt lat="48.76654" lon="-0.37894">
        <ele>247</ele>
        <time>2025-04-26T08:57:21.324Z</time>
      </trkpt>
      <trkpt lat="48.76657" lon="-0.37889">
        <ele>247</ele>
        <time>2025-04-26T08:57:24.803Z</time>
      </trkpt>
      <trkpt lat="48.76661" lon="-0.37884">
        <ele>246.8</ele>
        <time>2025-04-26T08:57:28.282Z</time>
      </trkpt>
      <trkpt lat="48.76664" lon="-0.37878">
        <ele>246.6</ele>
        <time>2025-04-26T08:57:31.761Z</time>
      </trkpt>
      <trkpt lat="48.76667" lon="-0.37873">
        <ele>246.4</ele>
        <time>2025-04-26T08:57:35.240Z</time>
      </trkpt>
      <trkpt lat="48.7667" lon="-0.37867">
        <ele>246.2</ele>
        <time>2025-04-26T08:57:38.719Z</time>
      </trkpt>
      <trkpt lat="48.76673" lon="-0.37862">
        <ele>246</ele>
        <time>2025-04-26T08:57:42.198Z</time>
      </trkpt>
      <trkpt lat="48.76676" lon="-0.37856">
        <ele>245.8</ele>
        <time>2025-04-26T08:57:45.677Z</time>
      </trkpt>
      <trkpt lat="48.7668" lon="-0.37851">
        <ele>245.6</ele>
        <time>2025-04-26T08:57:49.156Z</time>
      </trkpt>
      <trkpt lat="48.76683" lon="-0.37845">
        <ele>245.4</ele>
        <time>2025-04-26T08:57:52.635Z</time>
      </trkpt>
      <trkpt lat="48.76686" lon="-0.3784">
        <ele>245.2</ele>
        <time>2025-04-26T08:57:56.114Z</time>
      </trkpt>
      <trkpt lat="48.76693" lon="-0.3784">
        <ele>245.2</ele>
        <time>2025-04-26T08:58:01.290Z</time>
      </trkpt>
      <trkpt lat="48.767" lon="-0.3784">
        <ele>245.2</ele>
        <time>2025-04-26T08:58:06.467Z</time>
      </trkpt>
      <trkpt lat="48.76706" lon="-0.37839">
        <ele>245.2</ele>
        <time>2025-04-26T08:58:11.644Z</time>
      </trkpt>
      <trkpt lat="48.76713" lon="-0.37839">
        <ele>245.2</ele>
        <time>2025-04-26T08:58:16.821Z</time>
      </trkpt>
      <trkpt lat="48.76719" lon="-0.37839">
        <ele>245.2</ele>
        <time>2025-04-26T08:58:20.987Z</time>
      </trkpt>
      <trkpt lat="48.76724" lon="-0.37838">
        <ele>245.2</ele>
        <time>2025-04-26T08:58:25.153Z</time>
      </trkpt>
      <trkpt lat="48.7673" lon="-0.37838">
        <ele>245.1</ele>
        <time>2025-04-26T08:58:29.319Z</time>
      </trkpt>
      <trkpt lat="48.76735" lon="-0.37837">
        <ele>245.1</ele>
        <time>2025-04-26T08:58:33.485Z</time>
      </trkpt>
      <trkpt lat="48.7674" lon="-0.37837">
        <ele>245</ele>
        <time>2025-04-26T08:58:37.100Z</time>
      </trkpt>
      <trkpt lat="48.76745" lon="-0.37836">
        <ele>245</ele>
        <time>2025-04-26T08:58:40.716Z</time>
      </trkpt>
      <trkpt lat="48.7675" lon="-0.37836">
        <ele>245</ele>
        <time>2025-04-26T08:58:44.332Z</time>
      </trkpt>
      <trkpt lat="48.76755" lon="-0.37835">
        <ele>244.7</ele>
        <time>2025-04-26T08:58:47.948Z</time>
      </trkpt>
      <trkpt lat="48.76761" lon="-0.37834">
        <ele>244.3</ele>
        <time>2025-04-26T08:58:51.710Z</time>
      </trkpt>
      <trkpt lat="48.76766" lon="-0.37834">
        <ele>243.8</ele>
        <time>2025-04-26T08:58:55.472Z</time>
      </trkpt>
      <trkpt lat="48.76772" lon="-0.37833">
        <ele>243.4</ele>
        <time>2025-04-26T08:58:59.234Z</time>
      </trkpt>
      <trkpt lat="48.76777" lon="-0.37833">
        <ele>243</ele>
        <time>2025-04-26T08:59:02.996Z</time>
      </trkpt>
      <trkpt lat="48.76783" lon="-0.37832">
        <ele>242.6</ele>
        <time>2025-04-26T08:59:06.758Z</time>
      </trkpt>
      <trkpt lat="48.76789" lon="-0.37831">
        <ele>242.2</ele>
        <time>2025-04-26T08:59:10.520Z</time>
      </trkpt>
      <trkpt lat="48.76794" lon="-0.37831">
        <ele>241.8</ele>
        <time>2025-04-26T08:59:14.283Z</time>
      </trkpt>
      <trkpt lat="48.768" lon="-0.3783">
        <ele>241.4</ele>
        <time>2025-04-26T08:59:18.046Z</time>
      </trkpt>
      <trkpt lat="48.76805" lon="-0.37829">
        <ele>241</ele>
        <time>2025-04-26T08:59:21.809Z</time>
      </trkpt>
      <trkpt lat="48.76811" lon="-0.37829">
        <ele>240.2</ele>
        <time>2025-04-26T08:59:25.572Z</time>
      </trkpt>
      <trkpt lat="48.76817" lon="-0.37828">
        <ele>239.4</ele>
        <time>2025-04-26T08:59:29.335Z</time>
      </trkpt>
      <trkpt lat="48.76822" lon="-0.37828">
        <ele>238.6</ele>
        <time>2025-04-26T08:59:33.098Z</time>
      </trkpt>
      <trkpt lat="48.76828" lon="-0.37827">
        <ele>237.8</ele>
        <time>2025-04-26T08:59:36.861Z</time>
      </trkpt>
      <trkpt lat="48.76833" lon="-0.37826">
        <ele>237</ele>
        <time>2025-04-26T08:59:40.624Z</time>
      </trkpt>
      <trkpt lat="48.76839" lon="-0.37826">
        <ele>236.4</ele>
        <time>2025-04-26T08:59:44.387Z</time>
      </trkpt>
      <trkpt lat="48.76845" lon="-0.37825">
        <ele>235.8</ele>
        <time>2025-04-26T08:59:48.150Z</time>
      </trkpt>
      <trkpt lat="48.7685" lon="-0.37824">
        <ele>235.2</ele>
        <time>2025-04-26T08:59:51.913Z</time>
      </trkpt>
      <trkpt lat="48.76856" lon="-0.37824">
        <ele>234.6</ele>
        <time>2025-04-26T08:59:55.676Z</time>
      </trkpt>
      <trkpt lat="48.76861" lon="-0.37823">
        <ele>234</ele>
        <time>2025-04-26T08:59:59.439Z</time>
      </trkpt>
      <trkpt lat="48.76867" lon="-0.37823">
        <ele>233.5</ele>
        <time>2025-04-26T09:00:03.202Z</time>
      </trkpt>
      <trkpt lat="48.76873" lon="-0.37822">
        <ele>233</ele>
        <time>2025-04-26T09:00:06.965Z</time>
      </trkpt>
      <trkpt lat="48.76878" lon="-0.37821">
        <ele>232.5</ele>
        <time>2025-04-26T09:00:10.728Z</time>
      </trkpt>
      <trkpt lat="48.76884" lon="-0.37821">
        <ele>232</ele>
        <time>2025-04-26T09:00:14.491Z</time>
      </trkpt>
      <trkpt lat="48.76889" lon="-0.3782">
        <ele>231.5</ele>
        <time>2025-04-26T09:00:18.254Z</time>
      </trkpt>
      <trkpt lat="48.76895" lon="-0.37819">
        <ele>231.2</ele>
        <time>2025-04-26T09:00:22.017Z</time>
      </trkpt>
      <trkpt lat="48.769" lon="-0.37819">
        <ele>230.9</ele>
        <time>2025-04-26T09:00:25.780Z</time>
      </trkpt>
      <trkpt lat="48.76906" lon="-0.37818">
        <ele>230.6</ele>
        <time>2025-04-26T09:00:29.543Z</time>
      </trkpt>
      <trkpt lat="48.76912" lon="-0.37818">
        <ele>230.3</ele>
        <time>2025-04-26T09:00:33.306Z</time>
      </trkpt>
      <trkpt lat="48.76917" lon="-0.37817">
        <ele>230</ele>
        <time>2025-04-26T09:00:37.069Z</time>
      </trkpt>
      <trkpt lat="48.76923" lon="-0.37816">
        <ele>229.6</ele>
        <time>2025-04-26T09:00:40.832Z</time>
      </trkpt>
      <trkpt lat="48.76928" lon="-0.37816">
        <ele>229.2</ele>
        <time>2025-04-26T09:00:44.595Z</time>
      </trkpt>
      <trkpt lat="48.76934" lon="-0.37815">
        <ele>228.8</ele>
        <time>2025-04-26T09:00:48.358Z</time>
      </trkpt>
      <trkpt lat="48.76942" lon="-0.37814">
        <ele>228.1</ele>
        <time>2025-04-26T09:00:53.993Z</time>
      </trkpt>
      <trkpt lat="48.76951" lon="-0.37813">
        <ele>227.8</ele>
        <time>2025-04-26T09:00:59.629Z</time>
      </trkpt>
      <trkpt lat="48.76959" lon="-0.37812">
        <ele>227.5</ele>
        <time>2025-04-26T09:01:05.265Z</time>
      </trkpt>
      <trkpt lat="48.76968" lon="-0.37811">
        <ele>227.2</ele>
        <time>2025-04-26T09:01:10.901Z</time>
      </trkpt>
      <trkpt lat="48.76976" lon="-0.3781">
        <ele>226.8</ele>
        <time>2025-04-26T09:01:16.537Z</time>
      </trkpt>
      <trkpt lat="48.76984" lon="-0.37809">
        <ele>226.2</ele>
        <time>2025-04-26T09:01:22.173Z</time>
      </trkpt>
      <trkpt lat="48.76993" lon="-0.37808">
        <ele>225.6</ele>
        <time>2025-04-26T09:01:27.809Z</time>
      </trkpt>
      <trkpt lat="48.77001" lon="-0.37807">
        <ele>225.1</ele>
        <time>2025-04-26T09:01:33.445Z</time>
      </trkpt>
      <trkpt lat="48.77003" lon="-0.37801">
        <ele>225</ele>
        <time>2025-04-26T09:01:36.618Z</time>
      </trkpt>
      <trkpt lat="48.77005" lon="-0.37795">
        <ele>224.9</ele>
        <time>2025-04-26T09:01:39.790Z</time>
      </trkpt>
      <trkpt lat="48.7701" lon="-0.37785">
        <ele>224.7</ele>
        <time>2025-04-26T09:01:45.685Z</time>
      </trkpt>
      <trkpt lat="48.77014" lon="-0.37778">
        <ele>224.5</ele>
        <time>2025-04-26T09:01:50.017Z</time>
      </trkpt>
      <trkpt lat="48.77018" lon="-0.3777">
        <ele>224.2</ele>
        <time>2025-04-26T09:01:54.349Z</time>
      </trkpt>
      <trkpt lat="48.77023" lon="-0.37767">
        <ele>223.9</ele>
        <time>2025-04-26T09:01:57.741Z</time>
      </trkpt>
      <trkpt lat="48.77027" lon="-0.37763">
        <ele>223.5</ele>
        <time>2025-04-26T09:02:01.133Z</time>
      </trkpt>
      <trkpt lat="48.77032" lon="-0.3776">
        <ele>223.2</ele>
        <time>2025-04-26T09:02:04.526Z</time>
      </trkpt>
      <trkpt lat="48.77036" lon="-0.37756">
        <ele>222.9</ele>
        <time>2025-04-26T09:02:07.919Z</time>
      </trkpt>
      <trkpt lat="48.77041" lon="-0.37754">
        <ele>222.7</ele>
        <time>2025-04-26T09:02:11.064Z</time>
      </trkpt>
      <trkpt lat="48.77045" lon="-0.37752">
        <ele>222.5</ele>
        <time>2025-04-26T09:02:14.210Z</time>
      </trkpt>
      <trkpt lat="48.7705" lon="-0.3775">
        <ele>222.2</ele>
        <time>2025-04-26T09:02:17.356Z</time>
      </trkpt>
      <trkpt lat="48.77054" lon="-0.37748">
        <ele>222</ele>
        <time>2025-04-26T09:02:20.502Z</time>
      </trkpt>
      <trkpt lat="48.77061" lon="-0.37745">
        <ele>221.6</ele>
        <time>2025-04-26T09:02:25.129Z</time>
      </trkpt>
      <trkpt lat="48.77067" lon="-0.37741">
        <ele>221.3</ele>
        <time>2025-04-26T09:02:29.756Z</time>
      </trkpt>
      <trkpt lat="48.77074" lon="-0.37741">
        <ele>221</ele>
        <time>2025-04-26T09:02:34.195Z</time>
      </trkpt>
      <trkpt lat="48.7708" lon="-0.37741">
        <ele>220.8</ele>
        <time>2025-04-26T09:02:38.635Z</time>
      </trkpt>
      <trkpt lat="48.77086" lon="-0.3774">
        <ele>220.5</ele>
        <time>2025-04-26T09:02:42.684Z</time>
      </trkpt>
      <trkpt lat="48.7709" lon="-0.37737">
        <ele>220.3</ele>
        <time>2025-04-26T09:02:45.877Z</time>
      </trkpt>
      <trkpt lat="48.77095" lon="-0.37734">
        <ele>220</ele>
        <time>2025-04-26T09:02:49.070Z</time>
      </trkpt>
      <trkpt lat="48.77099" lon="-0.3773">
        <ele>219.7</ele>
        <time>2025-04-26T09:02:52.263Z</time>
      </trkpt>
      <trkpt lat="48.77103" lon="-0.37727">
        <ele>219.5</ele>
        <time>2025-04-26T09:02:55.456Z</time>
      </trkpt>
      <trkpt lat="48.77111" lon="-0.3773">
        <ele>219.3</ele>
        <time>2025-04-26T09:03:01.113Z</time>
      </trkpt>
      <trkpt lat="48.77118" lon="-0.37732">
        <ele>219.3</ele>
        <time>2025-04-26T09:03:06.771Z</time>
      </trkpt>
      <trkpt lat="48.77124" lon="-0.37735">
        <ele>219.2</ele>
        <time>2025-04-26T09:03:11.313Z</time>
      </trkpt>
      <trkpt lat="48.7713" lon="-0.37737">
        <ele>219.2</ele>
        <time>2025-04-26T09:03:15.855Z</time>
      </trkpt>
      <trkpt lat="48.77136" lon="-0.3774">
        <ele>219.1</ele>
        <time>2025-04-26T09:03:20.398Z</time>
      </trkpt>
      <trkpt lat="48.77142" lon="-0.37742">
        <ele>218.9</ele>
        <time>2025-04-26T09:03:24.941Z</time>
      </trkpt>
      <trkpt lat="48.77151" lon="-0.37746">
        <ele>218.6</ele>
        <time>2025-04-26T09:03:31.035Z</time>
      </trkpt>
      <trkpt lat="48.77159" lon="-0.37749">
        <ele>218.3</ele>
        <time>2025-04-26T09:03:37.129Z</time>
      </trkpt>
      <trkpt lat="48.77167" lon="-0.37752">
        <ele>218</ele>
        <time>2025-04-26T09:03:42.423Z</time>
      </trkpt>
      <trkpt lat="48.77174" lon="-0.37755">
        <ele>217.7</ele>
        <time>2025-04-26T09:03:47.717Z</time>
      </trkpt>
      <trkpt lat="48.77179" lon="-0.37757">
        <ele>217.5</ele>
        <time>2025-04-26T09:03:51.513Z</time>
      </trkpt>
      <trkpt lat="48.77185" lon="-0.3776">
        <ele>217.4</ele>
        <time>2025-04-26T09:03:55.310Z</time>
      </trkpt>
      <trkpt lat="48.7719" lon="-0.37762">
        <ele>217.2</ele>
        <time>2025-04-26T09:03:59.107Z</time>
      </trkpt>
      <trkpt lat="48.77195" lon="-0.37764">
        <ele>217</ele>
        <time>2025-04-26T09:04:02.904Z</time>
      </trkpt>
      <trkpt lat="48.77199" lon="-0.37766">
        <ele>216.8</ele>
        <time>2025-04-26T09:04:06.346Z</time>
      </trkpt>
      <trkpt lat="48.77204" lon="-0.37768">
        <ele>216.7</ele>
        <time>2025-04-26T09:04:09.788Z</time>
      </trkpt>
      <trkpt lat="48.77208" lon="-0.37769">
        <ele>216.5</ele>
        <time>2025-04-26T09:04:13.230Z</time>
      </trkpt>
      <trkpt lat="48.77213" lon="-0.37771">
        <ele>216.3</ele>
        <time>2025-04-26T09:04:16.672Z</time>
      </trkpt>
      <trkpt lat="48.77217" lon="-0.37773">
        <ele>216.2</ele>
        <time>2025-04-26T09:04:20.114Z</time>
      </trkpt>
      <trkpt lat="48.77222" lon="-0.37775">
        <ele>216</ele>
        <time>2025-04-26T09:04:23.556Z</time>
      </trkpt>
      <trkpt lat="48.77226" lon="-0.37776">
        <ele>216</ele>
        <time>2025-04-26T09:04:26.999Z</time>
      </trkpt>
      <trkpt lat="48.77231" lon="-0.37778">
        <ele>216</ele>
        <time>2025-04-26T09:04:30.442Z</time>
      </trkpt>
      <trkpt lat="48.77235" lon="-0.3778">
        <ele>216.1</ele>
        <time>2025-04-26T09:04:33.885Z</time>
      </trkpt>
      <trkpt lat="48.77239" lon="-0.37782">
        <ele>216.1</ele>
        <time>2025-04-26T09:04:37.328Z</time>
      </trkpt>
      <trkpt lat="48.77244" lon="-0.37783">
        <ele>216.2</ele>
        <time>2025-04-26T09:04:40.771Z</time>
      </trkpt>
      <trkpt lat="48.77248" lon="-0.37785">
        <ele>216.3</ele>
        <time>2025-04-26T09:04:44.214Z</time>
      </trkpt>
      <trkpt lat="48.77253" lon="-0.37787">
        <ele>216.3</ele>
        <time>2025-04-26T09:04:47.657Z</time>
      </trkpt>
      <trkpt lat="48.77257" lon="-0.37789">
        <ele>216.4</ele>
        <time>2025-04-26T09:04:51.100Z</time>
      </trkpt>
      <trkpt lat="48.77262" lon="-0.3779">
        <ele>216.5</ele>
        <time>2025-04-26T09:04:54.543Z</time>
      </trkpt>
      <trkpt lat="48.77266" lon="-0.37792">
        <ele>216.5</ele>
        <time>2025-04-26T09:04:57.986Z</time>
      </trkpt>
      <trkpt lat="48.77274" lon="-0.37792">
        <ele>216.5</ele>
        <time>2025-04-26T09:05:04.124Z</time>
      </trkpt>
      <trkpt lat="48.77282" lon="-0.37791">
        <ele>216.5</ele>
        <time>2025-04-26T09:05:10.263Z</time>
      </trkpt>
      <trkpt lat="48.77288" lon="-0.37786">
        <ele>216.3</ele>
        <time>2025-04-26T09:05:15.068Z</time>
        <extensions>
          <visugpx:TrkExtension xmlns:visugpx="https://www.visugpx.com/editgpx/">
            <visugpx:node>21</visugpx:node>
            </visugpx:TrkExtension>
        </extensions>
      </trkpt>
      <trkpt lat="48.77293" lon="-0.37787">
        <ele>216.3</ele>
        <time>2025-04-26T09:05:18.614Z</time>
      </trkpt>
      <trkpt lat="48.77297" lon="-0.37788">
        <ele>216.4</ele>
        <time>2025-04-26T09:05:22.161Z</time>
      </trkpt>
      <trkpt lat="48.77302" lon="-0.37789">
        <ele>216.4</ele>
        <time>2025-04-26T09:05:25.708Z</time>
      </trkpt>
      <trkpt lat="48.77306" lon="-0.3779">
        <ele>216.4</ele>
        <time>2025-04-26T09:05:29.255Z</time>
      </trkpt>
      <trkpt lat="48.77312" lon="-0.37788">
        <ele>216.4</ele>
        <time>2025-04-26T09:05:33.651Z</time>
      </trkpt>
      <trkpt lat="48.77318" lon="-0.37785">
        <ele>216.3</ele>
        <time>2025-04-26T09:05:38.047Z</time>
      </trkpt>
      <trkpt lat="48.77323" lon="-0.37783">
        <ele>216.2</ele>
        <time>2025-04-26T09:05:42.443Z</time>
      </trkpt>
      <trkpt lat="48.77329" lon="-0.37781">
        <ele>216.1</ele>
        <time>2025-04-26T09:05:46.840Z</time>
      </trkpt>
      <trkpt lat="48.77335" lon="-0.37778">
        <ele>216</ele>
        <time>2025-04-26T09:05:51.237Z</time>
      </trkpt>
      <trkpt lat="48.77341" lon="-0.37776">
        <ele>215.9</ele>
        <time>2025-04-26T09:05:55.634Z</time>
      </trkpt>
      <trkpt lat="48.77346" lon="-0.37773">
        <ele>215.8</ele>
        <time>2025-04-26T09:06:00.031Z</time>
      </trkpt>
      <trkpt lat="48.77352" lon="-0.37771">
        <ele>215.8</ele>
        <time>2025-04-26T09:06:04.428Z</time>
      </trkpt>
      <trkpt lat="48.77357" lon="-0.37769">
        <ele>215.7</ele>
        <time>2025-04-26T09:06:08.313Z</time>
      </trkpt>
      <trkpt lat="48.77362" lon="-0.37767">
        <ele>215.6</ele>
        <time>2025-04-26T09:06:12.198Z</time>
      </trkpt>
      <trkpt lat="48.77367" lon="-0.37765">
        <ele>215.5</ele>
        <time>2025-04-26T09:06:16.083Z</time>
      </trkpt>
      <trkpt lat="48.77373" lon="-0.37763">
        <ele>215.5</ele>
        <time>2025-04-26T09:06:19.968Z</time>
      </trkpt>
      <trkpt lat="48.77378" lon="-0.37761">
        <ele>215.4</ele>
        <time>2025-04-26T09:06:23.854Z</time>
      </trkpt>
      <trkpt lat="48.77383" lon="-0.37759">
        <ele>215.3</ele>
        <time>2025-04-26T09:06:27.740Z</time>
      </trkpt>
      <trkpt lat="48.77388" lon="-0.37757">
        <ele>215.3</ele>
        <time>2025-04-26T09:06:31.626Z</time>
      </trkpt>
      <trkpt lat="48.77393" lon="-0.37755">
        <ele>215.2</ele>
        <time>2025-04-26T09:06:35.512Z</time>
      </trkpt>
      <trkpt lat="48.77401" lon="-0.37753">
        <ele>215.1</ele>
        <time>2025-04-26T09:06:41.144Z</time>
      </trkpt>
      <trkpt lat="48.77408" lon="-0.37751">
        <ele>215</ele>
        <time>2025-04-26T09:06:46.776Z</time>
      </trkpt>
      <trkpt lat="48.77416" lon="-0.37748">
        <ele>214.9</ele>
        <time>2025-04-26T09:06:52.408Z</time>
      </trkpt>
      <trkpt lat="48.77423" lon="-0.37746">
        <ele>214.8</ele>
        <time>2025-04-26T09:06:58.041Z</time>
      </trkpt>
      <trkpt lat="48.7743" lon="-0.37743">
        <ele>214.6</ele>
        <time>2025-04-26T09:07:03.091Z</time>
      </trkpt>
      <trkpt lat="48.77437" lon="-0.37739">
        <ele>214.3</ele>
        <time>2025-04-26T09:07:08.142Z</time>
      </trkpt>
      <trkpt lat="48.77444" lon="-0.37736">
        <ele>214</ele>
        <time>2025-04-26T09:07:13.193Z</time>
      </trkpt>
      <trkpt lat="48.77451" lon="-0.37732">
        <ele>213.7</ele>
        <time>2025-04-26T09:07:18.244Z</time>
        <extensions>
          <visugpx:TrkExtension xmlns:visugpx="https://www.visugpx.com/editgpx/">
            <visugpx:node>22</visugpx:node>
            </visugpx:TrkExtension>
        </extensions>
      </trkpt>
      <trkpt lat="48.77454" lon="-0.37721">
        <ele>213</ele>
        <time>2025-04-26T09:07:24.495Z</time>
      </trkpt>
      <trkpt lat="48.77456" lon="-0.3771">
        <ele>212.6</ele>
        <time>2025-04-26T09:07:30.746Z</time>
      </trkpt>
      <trkpt lat="48.77459" lon="-0.37699">
        <ele>212.2</ele>
        <time>2025-04-26T09:07:36.997Z</time>
      </trkpt>
      <trkpt lat="48.77462" lon="-0.37688">
        <ele>211.8</ele>
        <time>2025-04-26T09:07:43.248Z</time>
      </trkpt>
      <trkpt lat="48.77464" lon="-0.37677">
        <ele>211.4</ele>
        <time>2025-04-26T09:07:49.499Z</time>
      </trkpt>
      <trkpt lat="48.77467" lon="-0.37666">
        <ele>211</ele>
        <time>2025-04-26T09:07:55.750Z</time>
      </trkpt>
      <trkpt lat="48.7747" lon="-0.37655">
        <ele>210.6</ele>
        <time>2025-04-26T09:08:02.001Z</time>
      </trkpt>
      <trkpt lat="48.77473" lon="-0.37645">
        <ele>210.2</ele>
        <time>2025-04-26T09:08:08.252Z</time>
      </trkpt>
      <trkpt lat="48.77475" lon="-0.37634">
        <ele>210.2</ele>
        <time>2025-04-26T09:08:14.504Z</time>
      </trkpt>
      <trkpt lat="48.77478" lon="-0.37623">
        <ele>210.7</ele>
        <time>2025-04-26T09:08:20.756Z</time>
      </trkpt>
      <trkpt lat="48.77481" lon="-0.37612">
        <ele>211.3</ele>
        <time>2025-04-26T09:08:27.008Z</time>
      </trkpt>
      <trkpt lat="48.77483" lon="-0.37601">
        <ele>211.7</ele>
        <time>2025-04-26T09:08:33.260Z</time>
      </trkpt>
      <trkpt lat="48.77486" lon="-0.3759">
        <ele>212.2</ele>
        <time>2025-04-26T09:08:39.512Z</time>
      </trkpt>
      <trkpt lat="48.77489" lon="-0.37579">
        <ele>213.2</ele>
        <time>2025-04-26T09:08:45.764Z</time>
      </trkpt>
      <trkpt lat="48.77491" lon="-0.37568">
        <ele>214.6</ele>
        <time>2025-04-26T09:08:52.016Z</time>
      </trkpt>
      <trkpt lat="48.77494" lon="-0.37557">
        <ele>216</ele>
        <time>2025-04-26T09:08:58.268Z</time>
      </trkpt>
      <trkpt lat="48.77491" lon="-0.37549">
        <ele>216.3</ele>
        <time>2025-04-26T09:09:03.214Z</time>
      </trkpt>
      <trkpt lat="48.77487" lon="-0.37541">
        <ele>216.5</ele>
        <time>2025-04-26T09:09:08.160Z</time>
      </trkpt>
      <trkpt lat="48.77484" lon="-0.37532">
        <ele>216.7</ele>
        <time>2025-04-26T09:09:13.106Z</time>
      </trkpt>
      <trkpt lat="48.7748" lon="-0.37524">
        <ele>216.8</ele>
        <time>2025-04-26T09:09:18.052Z</time>
      </trkpt>
      <trkpt lat="48.77477" lon="-0.37516">
        <ele>216.8</ele>
        <time>2025-04-26T09:09:22.998Z</time>
      </trkpt>
      <trkpt lat="48.77473" lon="-0.37508">
        <ele>216.7</ele>
        <time>2025-04-26T09:09:27.944Z</time>
      </trkpt>
      <trkpt lat="48.7747" lon="-0.37499">
        <ele>216.7</ele>
        <time>2025-04-26T09:09:32.890Z</time>
      </trkpt>
      <trkpt lat="48.77467" lon="-0.37491">
        <ele>216.9</ele>
        <time>2025-04-26T09:09:37.836Z</time>
      </trkpt>
      <trkpt lat="48.77463" lon="-0.37483">
        <ele>217</ele>
        <time>2025-04-26T09:09:42.783Z</time>
      </trkpt>
      <trkpt lat="48.7746" lon="-0.37475">
        <ele>217.1</ele>
        <time>2025-04-26T09:09:47.730Z</time>
      </trkpt>
      <trkpt lat="48.77456" lon="-0.37466">
        <ele>217</ele>
        <time>2025-04-26T09:09:52.677Z</time>
      </trkpt>
      <trkpt lat="48.77453" lon="-0.37458">
        <ele>216.8</ele>
        <time>2025-04-26T09:09:57.624Z</time>
      </trkpt>
      <trkpt lat="48.77449" lon="-0.3745">
        <ele>216.7</ele>
        <time>2025-04-26T09:10:02.571Z</time>
      </trkpt>
      <trkpt lat="48.77446" lon="-0.37442">
        <ele>216.4</ele>
        <time>2025-04-26T09:10:07.518Z</time>
      </trkpt>
      <trkpt lat="48.77442" lon="-0.37433">
        <ele>216.1</ele>
        <time>2025-04-26T09:10:12.465Z</time>
      </trkpt>
      <trkpt lat="48.77439" lon="-0.37425">
        <ele>216.1</ele>
        <time>2025-04-26T09:10:17.413Z</time>
      </trkpt>
      <trkpt lat="48.77439" lon="-0.37416">
        <ele>216.4</ele>
        <time>2025-04-26T09:10:22.045Z</time>
      </trkpt>
      <trkpt lat="48.77439" lon="-0.37406">
        <ele>216.8</ele>
        <time>2025-04-26T09:10:26.677Z</time>
      </trkpt>
      <trkpt lat="48.77439" lon="-0.37397">
        <ele>217.1</ele>
        <time>2025-04-26T09:10:31.309Z</time>
      </trkpt>
      <trkpt lat="48.77439" lon="-0.37388">
        <ele>217.4</ele>
        <time>2025-04-26T09:10:35.941Z</time>
      </trkpt>
      <trkpt lat="48.77439" lon="-0.37378">
        <ele>217.4</ele>
        <time>2025-04-26T09:10:40.573Z</time>
      </trkpt>
      <trkpt lat="48.77439" lon="-0.37369">
        <ele>217.4</ele>
        <time>2025-04-26T09:10:45.205Z</time>
      </trkpt>
      <trkpt lat="48.77439" lon="-0.3736">
        <ele>217.4</ele>
        <time>2025-04-26T09:10:49.837Z</time>
      </trkpt>
      <trkpt lat="48.77439" lon="-0.37351">
        <ele>217.4</ele>
        <time>2025-04-26T09:10:54.469Z</time>
      </trkpt>
      <trkpt lat="48.77439" lon="-0.37341">
        <ele>217.4</ele>
        <time>2025-04-26T09:10:59.102Z</time>
      </trkpt>
      <trkpt lat="48.77439" lon="-0.37332">
        <ele>217.4</ele>
        <time>2025-04-26T09:11:03.735Z</time>
      </trkpt>
      <trkpt lat="48.77439" lon="-0.37323">
        <ele>217.1</ele>
        <time>2025-04-26T09:11:08.368Z</time>
      </trkpt>
      <trkpt lat="48.77439" lon="-0.37313">
        <ele>216.8</ele>
        <time>2025-04-26T09:11:13.001Z</time>
      </trkpt>
      <trkpt lat="48.77439" lon="-0.37304">
        <ele>216.5</ele>
        <time>2025-04-26T09:11:17.634Z</time>
      </trkpt>
      <trkpt lat="48.77439" lon="-0.37295">
        <ele>216.2</ele>
        <time>2025-04-26T09:11:22.267Z</time>
      </trkpt>
      <trkpt lat="48.77439" lon="-0.37285">
        <ele>215.9</ele>
        <time>2025-04-26T09:11:26.900Z</time>
      </trkpt>
      <trkpt lat="48.77439" lon="-0.37276">
        <ele>215.6</ele>
        <time>2025-04-26T09:11:31.533Z</time>
      </trkpt>
      <trkpt lat="48.77442" lon="-0.37271">
        <ele>215.6</ele>
        <time>2025-04-26T09:11:35.593Z</time>
      </trkpt>
      <trkpt lat="48.77445" lon="-0.37265">
        <ele>215.6</ele>
        <time>2025-04-26T09:11:39.653Z</time>
      </trkpt>
      <trkpt lat="48.77448" lon="-0.3726">
        <ele>215.8</ele>
        <time>2025-04-26T09:11:43.713Z</time>
      </trkpt>
      <trkpt lat="48.77451" lon="-0.37255">
        <ele>215.9</ele>
        <time>2025-04-26T09:11:47.773Z</time>
      </trkpt>
      <trkpt lat="48.77454" lon="-0.37249">
        <ele>216</ele>
        <time>2025-04-26T09:11:51.833Z</time>
      </trkpt>
      <trkpt lat="48.77457" lon="-0.37244">
        <ele>216.3</ele>
        <time>2025-04-26T09:11:55.894Z</time>
      </trkpt>
      <trkpt lat="48.7746" lon="-0.37238">
        <ele>216.4</ele>
        <time>2025-04-26T09:11:59.955Z</time>
      </trkpt>
      <trkpt lat="48.77463" lon="-0.37233">
        <ele>216.6</ele>
        <time>2025-04-26T09:12:04.016Z</time>
      </trkpt>
      <trkpt lat="48.77466" lon="-0.37228">
        <ele>216.7</ele>
        <time>2025-04-26T09:12:08.077Z</time>
      </trkpt>
      <trkpt lat="48.77469" lon="-0.37222">
        <ele>216.8</ele>
        <time>2025-04-26T09:12:12.138Z</time>
      </trkpt>
      <trkpt lat="48.77472" lon="-0.37217">
        <ele>217</ele>
        <time>2025-04-26T09:12:16.199Z</time>
      </trkpt>
      <trkpt lat="48.77475" lon="-0.37212">
        <ele>217.4</ele>
        <time>2025-04-26T09:12:20.260Z</time>
      </trkpt>
      <trkpt lat="48.77478" lon="-0.37206">
        <ele>217.7</ele>
        <time>2025-04-26T09:12:24.321Z</time>
      </trkpt>
      <trkpt lat="48.77481" lon="-0.37201">
        <ele>218</ele>
        <time>2025-04-26T09:12:28.382Z</time>
      </trkpt>
      <trkpt lat="48.77484" lon="-0.37195">
        <ele>218.3</ele>
        <time>2025-04-26T09:12:32.443Z</time>
      </trkpt>
      <trkpt lat="48.77487" lon="-0.3719">
        <ele>218.7</ele>
        <time>2025-04-26T09:12:36.504Z</time>
      </trkpt>
      <trkpt lat="48.77493" lon="-0.37183">
        <ele>219.4</ele>
        <time>2025-04-26T09:12:43.420Z</time>
      </trkpt>
      <trkpt lat="48.77498" lon="-0.37175">
        <ele>219.9</ele>
        <time>2025-04-26T09:12:50.337Z</time>
      </trkpt>
      <trkpt lat="48.77504" lon="-0.37168">
        <ele>220.4</ele>
        <time>2025-04-26T09:12:57.254Z</time>
      </trkpt>
      <trkpt lat="48.7751" lon="-0.37161">
        <ele>221.1</ele>
        <time>2025-04-26T09:13:04.171Z</time>
      </trkpt>
      <trkpt lat="48.77515" lon="-0.37153">
        <ele>221.6</ele>
        <time>2025-04-26T09:13:11.088Z</time>
      </trkpt>
      <trkpt lat="48.77521" lon="-0.37146">
        <ele>221.9</ele>
        <time>2025-04-26T09:13:18.005Z</time>
      </trkpt>
      <trkpt lat="48.77526" lon="-0.37138">
        <ele>222</ele>
        <time>2025-04-26T09:13:24.922Z</time>
      </trkpt>
      <trkpt lat="48.77532" lon="-0.37131">
        <ele>222.3</ele>
        <time>2025-04-26T09:13:31.839Z</time>
      </trkpt>
      <trkpt lat="48.7754" lon="-0.37131">
        <ele>222.7</ele>
        <time>2025-04-26T09:13:38.805Z</time>
      </trkpt>
      <trkpt lat="48.77547" lon="-0.37131">
        <ele>223.2</ele>
        <time>2025-04-26T09:13:45.771Z</time>
      </trkpt>
      <trkpt lat="48.77552" lon="-0.37138">
        <ele>223.7</ele>
        <time>2025-04-26T09:13:53.065Z</time>
      </trkpt>
      <trkpt lat="48.77558" lon="-0.37144">
        <ele>224.4</ele>
        <time>2025-04-26T09:14:00.360Z</time>
      </trkpt>
      <trkpt lat="48.77563" lon="-0.37151">
        <ele>225.2</ele>
        <time>2025-04-26T09:14:07.655Z</time>
      </trkpt>
      <trkpt lat="48.77568" lon="-0.37157">
        <ele>226</ele>
        <time>2025-04-26T09:14:14.950Z</time>
      </trkpt>
      <trkpt lat="48.77573" lon="-0.37156">
        <ele>226.5</ele>
        <time>2025-04-26T09:14:20.004Z</time>
      </trkpt>
      <trkpt lat="48.77578" lon="-0.37155">
        <ele>227</ele>
        <time>2025-04-26T09:14:25.058Z</time>
      </trkpt>
      <trkpt lat="48.77584" lon="-0.37154">
        <ele>227.6</ele>
        <time>2025-04-26T09:14:30.112Z</time>
      </trkpt>
      <trkpt lat="48.77589" lon="-0.37153">
        <ele>228.1</ele>
        <time>2025-04-26T09:14:35.166Z</time>
      </trkpt>
      <trkpt lat="48.77594" lon="-0.37152">
        <ele>228.6</ele>
        <time>2025-04-26T09:14:40.220Z</time>
      </trkpt>
      <trkpt lat="48.77599" lon="-0.37151">
        <ele>229.1</ele>
        <time>2025-04-26T09:14:45.275Z</time>
      </trkpt>
      <trkpt lat="48.77604" lon="-0.3715">
        <ele>229.7</ele>
        <time>2025-04-26T09:14:50.330Z</time>
      </trkpt>
      <trkpt lat="48.7761" lon="-0.37149">
        <ele>230.2</ele>
        <time>2025-04-26T09:14:55.385Z</time>
      </trkpt>
      <trkpt lat="48.77615" lon="-0.37147">
        <ele>230.5</ele>
        <time>2025-04-26T09:15:00.440Z</time>
      </trkpt>
      <trkpt lat="48.7762" lon="-0.37146">
        <ele>230.8</ele>
        <time>2025-04-26T09:15:05.495Z</time>
      </trkpt>
      <trkpt lat="48.77625" lon="-0.37145">
        <ele>231.1</ele>
        <time>2025-04-26T09:15:10.550Z</time>
      </trkpt>
      <trkpt lat="48.7763" lon="-0.37144">
        <ele>231.4</ele>
        <time>2025-04-26T09:15:15.605Z</time>
      </trkpt>
      <trkpt lat="48.77635" lon="-0.37143">
        <ele>231.8</ele>
        <time>2025-04-26T09:15:20.660Z</time>
      </trkpt>
      <trkpt lat="48.77641" lon="-0.37142">
        <ele>232</ele>
        <time>2025-04-26T09:15:25.715Z</time>
      </trkpt>
      <trkpt lat="48.77646" lon="-0.37141">
        <ele>232</ele>
        <time>2025-04-26T09:15:30.770Z</time>
      </trkpt>
      <trkpt lat="48.77651" lon="-0.3714">
        <ele>232</ele>
        <time>2025-04-26T09:15:35.825Z</time>
      </trkpt>
      <trkpt lat="48.77657" lon="-0.37137">
        <ele>232</ele>
        <time>2025-04-26T09:15:40.643Z</time>
      </trkpt>
      <trkpt lat="48.77663" lon="-0.37134">
        <ele>232</ele>
        <time>2025-04-26T09:15:45.461Z</time>
      </trkpt>
      <trkpt lat="48.77669" lon="-0.37131">
        <ele>231.9</ele>
        <time>2025-04-26T09:15:50.279Z</time>
      </trkpt>
      <trkpt lat="48.77676" lon="-0.37128">
        <ele>231.8</ele>
        <time>2025-04-26T09:15:55.098Z</time>
      </trkpt>
      <trkpt lat="48.77682" lon="-0.37125">
        <ele>231.7</ele>
        <time>2025-04-26T09:15:59.917Z</time>
      </trkpt>
      <trkpt lat="48.77688" lon="-0.37122">
        <ele>231.7</ele>
        <time>2025-04-26T09:16:04.736Z</time>
      </trkpt>
      <trkpt lat="48.77694" lon="-0.37119">
        <ele>231.7</ele>
        <time>2025-04-26T09:16:09.555Z</time>
      </trkpt>
      <trkpt lat="48.777" lon="-0.37116">
        <ele>231.6</ele>
        <time>2025-04-26T09:16:14.374Z</time>
      </trkpt>
      <trkpt lat="48.77703" lon="-0.3711">
        <ele>231.7</ele>
        <time>2025-04-26T09:16:18.220Z</time>
      </trkpt>
      <trkpt lat="48.77705" lon="-0.37104">
        <ele>231.9</ele>
        <time>2025-04-26T09:16:22.066Z</time>
      </trkpt>
      <trkpt lat="48.77708" lon="-0.37098">
        <ele>232</ele>
        <time>2025-04-26T09:16:25.912Z</time>
      </trkpt>
      <trkpt lat="48.7771" lon="-0.37093">
        <ele>232.1</ele>
        <time>2025-04-26T09:16:29.758Z</time>
      </trkpt>
      <trkpt lat="48.77713" lon="-0.37087">
        <ele>232.2</ele>
        <time>2025-04-26T09:16:33.605Z</time>
      </trkpt>
      <trkpt lat="48.77715" lon="-0.37081">
        <ele>232.3</ele>
        <time>2025-04-26T09:16:37.452Z</time>
      </trkpt>
      <trkpt lat="48.77718" lon="-0.37075">
        <ele>232.4</ele>
        <time>2025-04-26T09:16:41.299Z</time>
      </trkpt>
      <trkpt lat="48.7772" lon="-0.37069">
        <ele>232.6</ele>
        <time>2025-04-26T09:16:45.146Z</time>
      </trkpt>
      <trkpt lat="48.77727" lon="-0.37066">
        <ele>232.6</ele>
        <time>2025-04-26T09:16:50.858Z</time>
      </trkpt>
      <trkpt lat="48.77734" lon="-0.37062">
        <ele>232.7</ele>
        <time>2025-04-26T09:16:56.570Z</time>
      </trkpt>
      <trkpt lat="48.7774" lon="-0.37059">
        <ele>232.8</ele>
        <time>2025-04-26T09:17:02.283Z</time>
      </trkpt>
      <trkpt lat="48.77747" lon="-0.37055">
        <ele>233</ele>
        <time>2025-04-26T09:17:07.996Z</time>
      </trkpt>
      <trkpt lat="48.77753" lon="-0.37055">
        <ele>232.8</ele>
        <time>2025-04-26T09:17:12.047Z</time>
      </trkpt>
      <trkpt lat="48.77759" lon="-0.37054">
        <ele>232.4</ele>
        <time>2025-04-26T09:17:16.098Z</time>
      </trkpt>
      <trkpt lat="48.77764" lon="-0.37054">
        <ele>232</ele>
        <time>2025-04-26T09:17:20.149Z</time>
      </trkpt>
      <trkpt lat="48.7777" lon="-0.37054">
        <ele>231.6</ele>
        <time>2025-04-26T09:17:24.200Z</time>
      </trkpt>
      <trkpt lat="48.77776" lon="-0.37053">
        <ele>231.2</ele>
        <time>2025-04-26T09:17:28.251Z</time>
      </trkpt>
      <trkpt lat="48.77782" lon="-0.37053">
        <ele>231.2</ele>
        <time>2025-04-26T09:17:32.303Z</time>
      </trkpt>
      <trkpt lat="48.77787" lon="-0.37052">
        <ele>231.5</ele>
        <time>2025-04-26T09:17:36.355Z</time>
      </trkpt>
      <trkpt lat="48.77793" lon="-0.37052">
        <ele>231.7</ele>
        <time>2025-04-26T09:17:40.407Z</time>
      </trkpt>
      <trkpt lat="48.77797" lon="-0.37057">
        <ele>231.6</ele>
        <time>2025-04-26T09:17:44.154Z</time>
      </trkpt>
      <trkpt lat="48.77796" lon="-0.37066">
        <ele>231.3</ele>
        <time>2025-04-26T09:17:48.150Z</time>
      </trkpt>
      <trkpt lat="48.77794" lon="-0.37075">
        <ele>230.9</ele>
        <time>2025-04-26T09:17:52.147Z</time>
      </trkpt>
      <trkpt lat="48.77793" lon="-0.37083">
        <ele>230.5</ele>
        <time>2025-04-26T09:17:56.144Z</time>
      </trkpt>
      <trkpt lat="48.77791" lon="-0.37092">
        <ele>229.7</ele>
        <time>2025-04-26T09:18:00.142Z</time>
      </trkpt>
      <trkpt lat="48.77789" lon="-0.37099">
        <ele>229</ele>
        <time>2025-04-26T09:18:03.759Z</time>
      </trkpt>
      <trkpt lat="48.77786" lon="-0.37107">
        <ele>228.4</ele>
        <time>2025-04-26T09:18:07.376Z</time>
      </trkpt>
      <trkpt lat="48.77784" lon="-0.37114">
        <ele>227.8</ele>
        <time>2025-04-26T09:18:10.993Z</time>
      </trkpt>
      <trkpt lat="48.77781" lon="-0.37121">
        <ele>227.3</ele>
        <time>2025-04-26T09:18:14.611Z</time>
      </trkpt>
      <trkpt lat="48.77781" lon="-0.37133">
        <ele>226.4</ele>
        <time>2025-04-26T09:18:19.926Z</time>
      </trkpt>
      <trkpt lat="48.7778" lon="-0.37145">
        <ele>225.8</ele>
        <time>2025-04-26T09:18:25.241Z</time>
      </trkpt>
      <trkpt lat="48.7778" lon="-0.37157">
        <ele>225.3</ele>
        <time>2025-04-26T09:18:30.557Z</time>
      </trkpt>
      <trkpt lat="48.77779" lon="-0.37169">
        <ele>224.9</ele>
        <time>2025-04-26T09:18:35.874Z</time>
      </trkpt>
      <trkpt lat="48.77784" lon="-0.37179">
        <ele>224.3</ele>
        <time>2025-04-26T09:18:41.413Z</time>
      </trkpt>
      <trkpt lat="48.77789" lon="-0.3719">
        <ele>223.8</ele>
        <time>2025-04-26T09:18:46.953Z</time>
      </trkpt>
      <trkpt lat="48.77793" lon="-0.372">
        <ele>223.2</ele>
        <time>2025-04-26T09:18:52.493Z</time>
      </trkpt>
      <trkpt lat="48.77798" lon="-0.3721">
        <ele>222.3</ele>
        <time>2025-04-26T09:18:58.033Z</time>
      </trkpt>
      <trkpt lat="48.77801" lon="-0.37218">
        <ele>221.6</ele>
        <time>2025-04-26T09:19:01.997Z</time>
      </trkpt>
      <trkpt lat="48.77803" lon="-0.37226">
        <ele>221.2</ele>
        <time>2025-04-26T09:19:05.961Z</time>
      </trkpt>
      <trkpt lat="48.77806" lon="-0.37234">
        <ele>221</ele>
        <time>2025-04-26T09:19:09.925Z</time>
      </trkpt>
      <trkpt lat="48.77808" lon="-0.37243">
        <ele>221</ele>
        <time>2025-04-26T09:19:13.889Z</time>
      </trkpt>
      <trkpt lat="48.77811" lon="-0.37251">
        <ele>220.8</ele>
        <time>2025-04-26T09:19:17.853Z</time>
      </trkpt>
      <trkpt lat="48.77813" lon="-0.37259">
        <ele>220.4</ele>
        <time>2025-04-26T09:19:21.817Z</time>
      </trkpt>
      <trkpt lat="48.77816" lon="-0.37267">
        <ele>220</ele>
        <time>2025-04-26T09:19:25.781Z</time>
      </trkpt>
      <trkpt lat="48.77818" lon="-0.37275">
        <ele>219.7</ele>
        <time>2025-04-26T09:19:29.746Z</time>
      </trkpt>
      <trkpt lat="48.77818" lon="-0.37289">
        <ele>219.2</ele>
        <time>2025-04-26T09:19:35.759Z</time>
      </trkpt>
      <trkpt lat="48.77818" lon="-0.37302">
        <ele>218.7</ele>
        <time>2025-04-26T09:19:41.772Z</time>
      </trkpt>
      <trkpt lat="48.77817" lon="-0.37316">
        <ele>218.4</ele>
        <time>2025-04-26T09:19:47.785Z</time>
      </trkpt>
      <trkpt lat="48.77817" lon="-0.37329">
        <ele>218.2</ele>
        <time>2025-04-26T09:19:53.800Z</time>
      </trkpt>
      <trkpt lat="48.77814" lon="-0.37335">
        <ele>218.3</ele>
        <time>2025-04-26T09:19:58.009Z</time>
      </trkpt>
      <trkpt lat="48.77812" lon="-0.37342">
        <ele>218.3</ele>
        <time>2025-04-26T09:20:02.218Z</time>
      </trkpt>
      <trkpt lat="48.77809" lon="-0.37348">
        <ele>218.3</ele>
        <time>2025-04-26T09:20:06.427Z</time>
      </trkpt>
      <trkpt lat="48.77806" lon="-0.37354">
        <ele>218.2</ele>
        <time>2025-04-26T09:20:10.636Z</time>
      </trkpt>
      <trkpt lat="48.77803" lon="-0.3736">
        <ele>218.5</ele>
        <time>2025-04-26T09:20:14.845Z</time>
      </trkpt>
      <trkpt lat="48.77801" lon="-0.37367">
        <ele>218.8</ele>
        <time>2025-04-26T09:20:19.054Z</time>
      </trkpt>
      <trkpt lat="48.77798" lon="-0.37373">
        <ele>219.1</ele>
        <time>2025-04-26T09:20:23.263Z</time>
      </trkpt>
      <trkpt lat="48.77795" lon="-0.37379">
        <ele>219.5</ele>
        <time>2025-04-26T09:20:27.474Z</time>
      </trkpt>
      <trkpt lat="48.77793" lon="-0.37388">
        <ele>219.8</ele>
        <time>2025-04-26T09:20:32.594Z</time>
      </trkpt>
      <trkpt lat="48.7779" lon="-0.37397">
        <ele>219.8</ele>
        <time>2025-04-26T09:20:37.714Z</time>
      </trkpt>
      <trkpt lat="48.77788" lon="-0.37406">
        <ele>219.9</ele>
        <time>2025-04-26T09:20:42.835Z</time>
      </trkpt>
      <trkpt lat="48.77785" lon="-0.37415">
        <ele>220</ele>
        <time>2025-04-26T09:20:47.956Z</time>
      </trkpt>
      <trkpt lat="48.77783" lon="-0.37423">
        <ele>220.2</ele>
        <time>2025-04-26T09:20:53.077Z</time>
      </trkpt>
      <trkpt lat="48.7778" lon="-0.37432">
        <ele>220.2</ele>
        <time>2025-04-26T09:20:58.198Z</time>
      </trkpt>
      <trkpt lat="48.77778" lon="-0.37441">
        <ele>220.3</ele>
        <time>2025-04-26T09:21:03.319Z</time>
      </trkpt>
      <trkpt lat="48.77775" lon="-0.3745">
        <ele>220.3</ele>
        <time>2025-04-26T09:21:08.441Z</time>
      </trkpt>
      <trkpt lat="48.77775" lon="-0.37459">
        <ele>219.5</ele>
        <time>2025-04-26T09:21:12.312Z</time>
      </trkpt>
      <trkpt lat="48.77775" lon="-0.37468">
        <ele>218.6</ele>
        <time>2025-04-26T09:21:16.183Z</time>
      </trkpt>
      <trkpt lat="48.77774" lon="-0.37476">
        <ele>217.7</ele>
        <time>2025-04-26T09:21:20.055Z</time>
      </trkpt>
      <trkpt lat="48.77774" lon="-0.37485">
        <ele>216.8</ele>
        <time>2025-04-26T09:21:23.928Z</time>
      </trkpt>
      <trkpt lat="48.77778" lon="-0.37494">
        <ele>214.7</ele>
        <time>2025-04-26T09:21:28.643Z</time>
      </trkpt>
      <trkpt lat="48.77781" lon="-0.37504">
        <ele>213.2</ele>
        <time>2025-04-26T09:21:33.358Z</time>
      </trkpt>
      <trkpt lat="48.77785" lon="-0.37513">
        <ele>212</ele>
        <time>2025-04-26T09:21:38.073Z</time>
      </trkpt>
      <trkpt lat="48.77788" lon="-0.37522">
        <ele>210.9</ele>
        <time>2025-04-26T09:21:42.788Z</time>
      </trkpt>
      <trkpt lat="48.77792" lon="-0.37531">
        <ele>209.8</ele>
        <time>2025-04-26T09:21:47.504Z</time>
      </trkpt>
      <trkpt lat="48.77795" lon="-0.37541">
        <ele>209</ele>
        <time>2025-04-26T09:21:52.220Z</time>
      </trkpt>
      <trkpt lat="48.77799" lon="-0.3755">
        <ele>208.4</ele>
        <time>2025-04-26T09:21:56.936Z</time>
      </trkpt>
      <trkpt lat="48.77802" lon="-0.37559">
        <ele>207.9</ele>
        <time>2025-04-26T09:22:01.652Z</time>
      </trkpt>
      <trkpt lat="48.77807" lon="-0.37563">
        <ele>207.4</ele>
        <time>2025-04-26T09:22:05.346Z</time>
      </trkpt>
      <trkpt lat="48.77812" lon="-0.37566">
        <ele>207</ele>
        <time>2025-04-26T09:22:09.040Z</time>
      </trkpt>
      <trkpt lat="48.77817" lon="-0.37566">
        <ele>206.8</ele>
        <time>2025-04-26T09:22:12.069Z</time>
      </trkpt>
      <trkpt lat="48.77821" lon="-0.37565">
        <ele>206.6</ele>
        <time>2025-04-26T09:22:15.099Z</time>
      </trkpt>
      <trkpt lat="48.77827" lon="-0.37574">
        <ele>206.1</ele>
        <time>2025-04-26T09:22:20.996Z</time>
      </trkpt>
      <trkpt lat="48.77834" lon="-0.37583">
        <ele>206</ele>
        <time>2025-04-26T09:22:26.893Z</time>
      </trkpt>
      <trkpt lat="48.7784" lon="-0.37592">
        <ele>205.5</ele>
        <time>2025-04-26T09:22:32.790Z</time>
      </trkpt>
      <trkpt lat="48.77846" lon="-0.37601">
        <ele>204.9</ele>
        <time>2025-04-26T09:22:38.687Z</time>
      </trkpt>
      <trkpt lat="48.77852" lon="-0.3761">
        <ele>204.4</ele>
        <time>2025-04-26T09:22:44.584Z</time>
      </trkpt>
      <trkpt lat="48.77859" lon="-0.37619">
        <ele>204.1</ele>
        <time>2025-04-26T09:22:50.482Z</time>
      </trkpt>
      <trkpt lat="48.77865" lon="-0.37628">
        <ele>204</ele>
        <time>2025-04-26T09:22:56.380Z</time>
      </trkpt>
      <trkpt lat="48.77871" lon="-0.37637">
        <ele>204</ele>
        <time>2025-04-26T09:23:02.278Z</time>
        <extensions>
          <visugpx:TrkExtension xmlns:visugpx="https://www.visugpx.com/editgpx/">
            <visugpx:node>23</visugpx:node>
            </visugpx:TrkExtension>
        </extensions>
      </trkpt>
    </trkseg>
  </trk>
</gpx>